[[{"header":{"parameterUnit":"m.s-1","parameterCategory":1,"la1":31.0,"la2":29.5877,"lo1":-88.7671,"lo2":-86.6584,"dx":0.0162,"dy":0.0185,"nx":115,"ny":88,"refTime":"2023-01-27T18:00:00:Z","depth":0,"parameterNumber":2,"parameterNumberName":"U-component_of_WINDS"},"data":[0.0,0.0,0.0,0.0,0.0,0.0,0.0,0.0,0.0,0.0,0.0,0.0,0.0,0.0,0.0,0.0,0.0,0.0,0.0,0.0,0.0,0.0,0.0,0.0,0.0,0.0,0.0,0.0,0.0,0.0,0.0,0.0,0.0,0.0,0.0,0.0,0.0,0.0,0.0,0.0,0.0,0.0,0.0,0.0,0.0,0.0,0.0,0.0,0.0,0.0,0.0,0.0,0.0,0.0,0.0,0.0,0.0,0.0,0.0,0.0,0.0,0.0,0.0,0.0,0.0,0.0,0.0,0.0,0.0,0.0,0.0,0.0,0.0,0.0,0.0,0.0,0.0,0.0,0.0,0.0,0.0,0.0,0.0,0.0,0.0,0.0,0.0,0.0,0.0,0.0,0.0,0.0,0.0,0.0,0.0,0.0,0.0,0.0,0.0,0.0,0.0,0.0,0.0,0.0,0.0,0.0,0.0,0.0,0.0,0.0,0.0,0.0,0.0,0.0,0.0,0.0,0.0,0.0,0.0,0.0,0.0,0.0,0.0,0.0,0.0,0.0,0.0,0.0,0.0,0.0,0.0,0.0,0.0,0.0,0.0,0.0,0.0,0.0,0.0,0.0,0.0,0.0,0.0,0.0,0.0,0.0,0.0,0.0,0.0,0.0,0.0,0.0,0.0,0.0,0.0,0.0,0.0,0.0,0.0,0.0,0.0,0.0,0.0,0.0,0.0,0.0,0.0,0.0,0.0,0.0,0.0,0.0,0.0,0.0,0.0,0.0,0.0,0.0,0.0,0.0,0.0,0.0,0.0,0.0,0.0,0.0,0.0,0.0,0.0,0.0,0.0,0.0,0.0,0.0,0.0,0.0,0.0,0.0,0.0,0.0,0.0,0.0,0.0,0.0,0.0,0.0,0.0,0.0,0.0,0.0,0.0,0.0,0.0,0.0,0.0,0.0,0.0,0.0,0.0,0.0,0.0,0.0,0.0,0.0,0.0,0.0,0.0,0.0,0.0,0.0,0.0,0.0,0.0,0.0,0.0,0.0,0.0,0.0,0.0,0.0,0.0,0.0,0.0,0.0,0.0,0.0,0.0,0.0,0.0,0.0,0.0,0.0,0.0,0.0,0.0,0.0,0.0,0.0,0.0,0.0,0.0,0.0,0.0,0.0,0.0,0.0,0.0,0.0,0.0,0.0,0.0,0.0,0.0,0.0,0.0,0.0,0.0,0.0,0.0,0.0,0.0,0.0,0.0,0.0,0.0,0.0,0.0,0.0,0.0,0.0,0.0,0.0,0.0,0.0,0.0,0.0,0.0,0.0,0.0,0.0,0.0,0.0,0.0,0.0,0.0,0.0,0.0,0.0,0.0,0.0,0.0,0.0,0.0,0.0,0.0,0.0,0.0,0.0,0.0,0.0,0.0,0.0,0.0,0.0,0.0,0.0,0.0,0.0,0.0,0.0,0.0,0.0,0.0,0.0,0.0,0.0,0.0,0.0,0.0,0.0,0.0,0.0,0.0,0.0,0.0,0.0,0.0,0.0,0.0,0.0,0.0,0.0,0.0,0.0,0.0,0.0,0.0,0.0,0.0,0.0,0.0,0.0,0.0,0.0,0.0,0.0,0.0,0.0,0.0,0.0,0.0,0.0,0.0,0.0,0.0,0.0,0.0,0.0,0.0,0.0,0.0,0.0,0.0,0.0,0.0,0.0,0.0,0.0,0.0,0.0,0.0,0.0,0.0,0.0,0.0,0.0,0.0,0.0,0.0,0.0,0.0,0.0,0.0,0.0,0.0,0.0,0.0,0.0,0.0,0.0,0.0,0.0,0.0,0.0,0.0,0.0,0.0,0.0,0.0,0.0,0.0,0.0,0.0,0.0,0.0,0.0,0.0,0.0,0.0,0.0,0.0,0.0,0.0,0.0,0.0,0.0,0.0,0.0,0.0,0.0,0.0,0.0,0.0,0.0,0.0,0.0,0.0,0.0,0.0,0.0,0.0,0.0,0.0,0.0,0.0,0.0,0.0,0.0,0.0,0.0,0.0,0.0,0.0,0.0,0.0,0.0,0.0,0.0,0.0,0.0,0.0,0.0,0.0,0.0,0.0,0.0,0.0,0.0,0.0,0.0,0.0,0.0,0.0,0.0,0.0,0.0,0.0,0.0,0.0,0.0,0.0,0.0,0.0,0.0,0.0,0.0,0.0,0.0,0.0,0.0,0.0,0.0,0.0,0.0,0.0,0.0,0.0,0.0,0.0,0.0,0.0,0.0,0.0,0.0,0.0,0.0,0.0,0.0,0.0,0.0,0.0,0.0,0.0,0.0,0.0,0.0,0.0,0.0,0.0,0.0,0.0,0.0,0.0,0.0,0.0,0.0,0.0,0.0,0.0,0.0,0.0,0.0,0.0,0.0,0.0,0.0,0.0,0.0,0.0,0.0,0.0,0.0,0.0,0.0,0.0,0.0,0.0,0.0,0.0,0.0,0.0,0.0,0.0,0.0,0.0,0.0,0.0,0.0,0.0,0.0,0.0,0.0,0.0,0.0,0.0,0.0,0.0,0.0,0.0,0.0,0.0,0.0,0.0,0.0,0.0,0.0,0.0,0.0,0.0,0.0,0.0,0.0,0.0,0.0,0.0,0.0,0.0,0.0,0.0,0.0,0.0,0.0,0.0,0.0,0.0,0.0,0.0,0.0,0.0,0.0,0.0,0.0,0.0,0.0,0.0,0.0,0.0,0.0,0.0,0.0,0.0,0.0,0.0,0.0,0.0,0.0,0.0,0.0,0.0,0.0,0.0,0.0,0.0,0.0,0.0,0.0,0.0,0.0,0.0,0.0,0.0,0.0,0.0,0.0,0.0,0.0,0.0,0.0,0.0,0.0,0.0,0.0,0.0,0.0,0.0,0.0,0.0,0.0,0.0,0.0,0.0,0.0,0.0,0.0,0.0,0.0,0.0,0.0,0.0,0.0,0.0,0.0,0.0,0.0,0.0,0.0,0.0,0.0,0.0,0.0,0.0,0.0,0.0,0.0,0.0,0.0,0.0,0.0,0.0,0.0,0.0,0.0,0.0,0.0,0.0,0.0,0.0,0.0,0.0,0.0,0.0,0.0,0.0,0.0,0.0,0.0,0.0,0.0,0.0,0.0,0.0,0.0,0.0,0.0,0.0,0.0,0.0,0.0,0.0,0.0,0.0,0.0,0.0,0.0,0.0,0.0,0.0,0.0,0.0,0.0,0.0,0.0,0.0,0.0,0.0,0.0,0.0,0.0,0.0,0.0,0.0,0.0,0.0,0.0,0.0,0.0,0.0,0.0,0.0,0.0,0.0,0.0,0.0,0.0,0.0,0.0,0.0,0.0,0.0,0.0,0.0,0.0,0.0,0.0,0.0,0.0,0.0,0.0,0.0,0.0,0.0,0.0,0.0,0.0,0.0,0.0,0.0,0.0,0.0,0.0,0.0,0.0,0.0,0.0,0.0,0.0,0.0,0.0,0.0,0.0,0.0,0.0,0.0,0.0,0.0,0.0,0.0,0.0,0.0,0.0,0.0,0.0,0.0,0.0,0.0,0.0,0.0,0.0,0.0,0.0,0.0,0.0,0.0,0.0,0.0,0.0,0.0,0.0,0.0,0.0,0.0,0.0,0.0,0.0,0.0,0.0,0.0,0.0,0.0,0.0,0.0,0.0,0.0,0.0,0.0,0.0,0.0,0.0,0.0,0.0,0.0,0.0,0.0,0.0,0.0,0.0,0.0,0.0,0.0,0.0,0.0,0.0,0.0,0.0,0.0,0.0,0.0,0.0,0.0,0.0,0.0,0.0,0.0,0.0,0.0,0.0,0.0,0.0,0.0,0.0,0.0,0.0,0.0,0.0,0.0,0.0,0.0,0.0,0.0,0.0,0.0,0.0,0.0,0.0,0.0,0.0,0.0,0.0,0.0,0.0,0.0,0.0,0.0,0.0,0.0,0.0,0.0,0.0,0.0,0.0,0.0,0.0,0.0,0.0,0.0,0.0,0.0,0.0,0.0,0.0,0.0,0.0,0.0,0.0,0.0,0.0,0.0,0.0,0.0,0.0,0.0,0.0,0.0,0.0,0.0,0.0,0.0,0.0,0.0,0.0,0.0,0.0,0.0,0.0,0.0,0.0,0.0,0.0,0.0,0.0,0.0,0.0,0.0,0.0,0.0,0.0,0.0,0.0,0.0,0.0,0.0,0.0,0.0,0.0,0.0,0.0,0.0,0.0,0.0,0.0,0.0,0.0,0.0,0.0,0.0,0.0,-1.1859,0.0,0.0,0.0,0.0,0.0,0.0,0.0,0.0,0.0,0.0,0.0,0.0,0.0,0.0,0.0,0.0,0.0,0.0,0.0,0.0,0.0,0.0,0.0,0.0,0.0,0.0,0.0,0.0,0.0,0.0,0.0,0.0,0.0,0.0,0.0,0.0,0.0,0.0,0.0,0.0,0.0,0.0,0.0,0.0,0.0,0.0,0.0,0.0,0.0,0.0,0.0,0.0,0.0,0.0,0.0,0.0,0.0,0.0,0.0,0.0,0.0,0.0,0.0,0.0,0.0,0.0,0.0,0.0,0.0,0.0,0.0,0.0,0.0,0.0,0.0,0.0,0.0,0.0,0.0,0.0,0.0,0.0,0.0,0.0,0.0,0.0,0.0,0.0,0.0,0.0,0.0,0.0,0.0,0.0,0.0,0.0,0.0,0.0,0.0,0.0,0.0,0.0,0.0,0.0,0.0,0.0,0.0,0.0,0.0,0.0,-1.1968,-1.1327,-1.1811,-1.1824,-1.1314,0.0,0.0,0.0,0.0,0.0,0.0,0.0,0.0,0.0,0.0,0.0,0.0,0.0,0.0,0.0,0.0,0.0,0.0,0.0,0.0,0.0,0.0,0.0,0.0,0.0,0.0,0.0,0.0,0.0,0.0,0.0,0.0,0.0,0.0,0.0,0.0,0.0,0.0,0.0,0.0,0.0,0.0,0.0,0.0,0.0,0.0,0.0,0.0,0.0,0.0,0.0,0.0,0.0,0.0,0.0,0.0,0.0,0.0,0.0,0.0,0.0,0.0,0.0,0.0,0.0,0.0,0.0,0.0,0.0,0.0,0.0,0.0,0.0,0.0,0.0,0.0,0.0,0.0,0.0,0.0,0.0,0.0,0.0,0.0,0.0,0.0,0.0,0.0,0.0,0.0,0.0,0.0,0.0,0.0,0.0,0.0,0.0,0.0,0.0,0.0,0.0,0.0,0.0,0.0,0.0,0.0,0.0,0.0,0.0,0.0,0.0,0.0,-1.1119,-1.1144,-1.0846,0.0,0.0,0.0,0.0,0.0,0.0,0.0,0.0,0.0,0.0,0.0,0.0,0.0,0.0,0.0,0.0,0.0,0.0,0.0,0.0,0.0,0.0,0.0,0.0,0.0,0.0,0.0,0.0,0.0,0.0,0.0,0.0,0.0,0.0,0.0,0.0,0.0,0.0,0.0,0.0,0.0,0.0,0.0,0.0,0.0,0.0,0.0,0.0,0.0,0.0,0.0,0.0,0.0,0.0,0.0,0.0,0.0,0.0,0.0,0.0,0.0,0.0,0.0,0.0,0.0,0.0,0.0,0.0,0.0,0.0,0.0,0.0,0.0,0.0,0.0,0.0,0.0,0.0,0.0,0.0,0.0,0.0,0.0,0.0,0.0,0.0,0.0,0.0,0.0,0.0,0.0,0.0,0.0,0.0,0.0,0.0,0.0,0.0,0.0,0.0,0.0,0.0,0.0,0.0,0.0,0.0,0.0,0.0,0.0,0.0,-1.0895,-1.0783,-0.9986,0.0,-1.082,0.0,0.0,0.0,0.0,0.0,0.0,0.0,0.0,0.0,0.0,0.0,0.0,0.0,0.0,0.0,0.0,0.0,0.0,0.0,0.0,0.0,0.0,0.0,0.0,0.0,0.0,0.0,0.0,0.0,0.0,0.0,0.0,0.0,0.0,0.0,0.0,0.0,0.0,0.0,0.0,0.0,0.0,0.0,0.0,0.0,0.0,0.0,0.0,0.0,0.0,0.0,0.0,0.0,0.0,0.0,0.0,0.0,0.0,0.0,0.0,0.0,0.0,0.0,0.0,0.0,0.0,0.0,0.0,0.0,0.0,0.0,0.0,0.0,0.0,0.0,0.0,0.0,0.0,0.0,0.0,0.0,0.0,0.0,0.0,0.0,0.0,0.0,0.0,0.0,0.0,0.0,0.0,0.0,0.0,0.0,0.0,0.0,0.0,0.0,0.0,0.0,0.0,0.0,0.0,0.0,0.0,0.0,0.0,0.0,0.0,-1.0222,-0.9064,-0.8647,-0.9432,0.0,0.0,0.0,0.0,0.0,0.0,0.0,0.0,0.0,0.0,0.0,0.0,0.0,0.0,0.0,0.0,0.0,0.0,0.0,0.0,0.0,0.0,0.0,0.0,0.0,0.0,0.0,0.0,0.0,0.0,0.0,0.0,0.0,0.0,0.0,0.0,0.0,0.0,0.0,0.0,0.0,0.0,0.0,0.0,0.0,0.0,0.0,0.0,0.0,0.0,0.0,0.0,0.0,0.0,0.0,0.0,0.0,0.0,0.0,0.0,0.0,0.0,0.0,0.0,0.0,0.0,0.0,0.0,0.0,0.0,0.0,0.0,0.0,0.0,0.0,0.0,0.0,0.0,0.0,0.0,0.0,0.0,0.0,0.0,0.0,0.0,0.0,0.0,0.0,0.0,0.0,0.0,0.0,0.0,0.0,0.0,0.0,0.0,0.0,0.0,0.0,0.0,0.0,0.0,0.0,0.0,0.0,0.0,0.0,0.0,-1.0522,-0.9627,-0.811,-0.8382,-0.982,-1.2358,0.0,0.0,0.0,0.0,0.0,0.0,0.0,0.0,0.0,0.0,0.0,0.0,0.0,0.0,0.0,0.0,0.0,0.0,0.0,0.0,0.0,0.0,0.0,0.0,0.0,0.0,0.0,0.0,0.0,0.0,0.0,0.0,0.0,0.0,0.0,0.0,0.0,0.0,0.0,0.0,0.0,0.0,0.0,0.0,0.0,0.0,0.0,0.0,0.0,0.0,0.0,0.0,0.0,0.0,0.0,0.0,0.0,0.0,0.0,0.0,0.0,0.0,0.0,0.0,0.0,0.0,0.0,0.0,0.0,0.0,0.0,0.0,0.0,0.0,0.0,0.0,0.0,0.0,0.0,0.0,0.0,0.0,0.0,0.0,0.0,0.0,0.0,0.0,0.0,0.0,0.0,0.0,0.0,0.0,0.0,0.0,0.0,0.0,0.0,0.0,0.0,0.0,0.0,0.0,0.0,0.0,0.0,0.0,-1.0783,-0.9847,-0.9095,-0.85,-0.9849,-1.1326,0.0,0.0,0.0,0.0,0.0,0.0,0.0,0.0,0.0,0.0,0.0,0.0,0.0,0.0,0.0,0.0,0.0,0.0,0.0,0.0,0.0,0.0,0.0,0.0,0.0,0.0,0.0,0.0,0.0,0.0,0.0,0.0,0.0,0.0,0.0,0.0,0.0,0.0,0.0,0.0,0.0,0.0,0.0,0.0,0.0,0.0,0.0,0.0,0.0,0.0,0.0,0.0,0.0,0.0,0.0,0.0,0.0,0.0,0.0,0.0,0.0,0.0,0.0,0.0,0.0,0.0,0.0,0.0,0.0,0.0,0.0,0.0,0.0,0.0,0.0,0.0,0.0,0.0,0.0,0.0,0.0,0.0,0.0,0.0,0.0,0.0,0.0,0.0,0.0,0.0,0.0,0.0,0.0,0.0,0.0,0.0,0.0,0.0,0.0,0.0,0.0,0.0,0.0,0.0,0.0,0.0,0.0,0.0,0.0,-0.9742,-0.9016,-0.8594,-0.8561,-0.9947,-1.1294,0.0,0.0,0.0,0.0,0.0,0.0,0.0,0.0,0.0,0.0,0.0,0.0,0.0,0.0,0.0,0.0,0.0,0.0,0.0,0.0,0.0,0.0,0.0,0.0,0.0,0.0,0.0,0.0,0.0,0.0,0.0,0.0,0.0,0.0,0.0,0.0,0.0,0.0,0.0,0.0,0.0,0.0,0.0,0.0,0.0,0.0,0.0,0.0,0.0,0.0,0.0,0.0,0.0,0.0,0.0,0.0,0.0,0.0,0.0,0.0,0.0,0.0,0.0,0.0,0.0,0.0,0.0,0.0,0.0,0.0,0.0,0.0,0.0,0.0,0.0,0.0,0.0,0.0,0.0,0.0,0.0,0.0,0.0,0.0,0.0,0.0,0.0,0.0,0.0,0.0,0.0,0.0,0.0,0.0,0.0,0.0,0.0,0.0,0.0,0.0,0.0,0.0,0.0,0.0,0.0,0.0,0.0,0.0,0.0,-0.9637,0.0,-0.7771,-0.9228,-1.0499,-1.195,0.0,0.0,0.0,0.0,0.0,0.0,0.0,0.0,0.0,0.0,0.0,0.0,0.0,0.0,0.0,0.0,0.0,0.0,0.0,0.0,0.0,0.0,0.0,0.0,0.0,0.0,0.0,0.0,0.0,0.0,0.0,0.0,0.0,0.0,0.0,0.0,0.0,0.0,0.0,0.0,0.0,0.0,0.0,0.0,0.0,0.0,0.0,0.0,0.0,0.0,0.0,0.0,0.0,0.0,0.0,0.0,0.0,0.0,0.0,0.0,0.0,0.0,0.0,0.0,0.0,0.0,0.0,0.0,0.0,0.0,0.0,0.0,0.0,0.0,0.0,0.0,0.0,0.0,0.0,0.0,0.0,0.0,0.0,0.0,0.0,0.0,0.0,0.0,0.0,0.0,0.0,0.0,0.0,0.0,0.0,0.0,0.0,0.0,0.0,0.0,0.0,0.0,0.0,0.0,0.0,0.0,0.0,0.0,-1.264,-1.0701,-0.6904,-0.6841,-1.0623,-1.1642,-1.3503,0.0,0.0,0.0,0.0,0.0,0.0,0.0,0.0,0.0,0.0,0.0,0.0,0.0,0.0,0.0,0.0,0.0,0.0,0.0,0.0,0.0,0.0,0.0,0.0,0.0,0.0,0.0,0.0,0.0,0.0,0.0,0.0,0.0,0.0,0.0,0.0,0.0,0.0,0.0,0.0,0.0,0.0,0.0,0.0,0.0,0.0,0.0,0.0,0.0,0.0,0.0,0.0,0.0,0.0,0.0,0.0,0.0,0.0,0.0,0.0,0.0,0.0,0.0,0.0,0.0,0.0,0.0,0.0,0.0,0.0,0.0,0.0,0.0,0.0,0.0,0.0,0.0,0.0,0.0,0.0,0.0,0.0,0.0,0.0,0.0,0.0,0.0,0.0,0.0,0.0,0.0,0.0,0.0,0.0,0.0,0.0,0.0,0.0,0.0,0.0,0.0,0.0,0.0,0.0,0.0,0.0,0.0,0.0,0.0,-1.2692,-0.9115,-0.8496,-1.1175,-1.2575,-1.3378,0.0,0.0,0.0,0.0,0.0,0.0,0.0,0.0,0.0,0.0,0.0,0.0,0.0,0.0,0.0,0.0,0.0,0.0,0.0,0.0,0.0,0.0,0.0,0.0,0.0,0.0,0.0,0.0,0.0,0.0,0.0,0.0,0.0,0.0,0.0,0.0,0.0,0.0,0.0,0.0,0.0,0.0,0.0,0.0,0.0,0.0,0.0,0.0,0.0,0.0,0.0,0.0,0.0,0.0,0.0,0.0,0.0,0.0,0.0,0.0,0.0,0.0,0.0,0.0,0.0,0.0,0.0,0.0,0.0,0.0,0.0,0.0,0.0,0.0,0.0,0.0,0.0,0.0,0.0,0.0,0.0,0.0,0.0,0.0,0.0,0.0,0.0,0.0,0.0,0.0,0.0,0.0,0.0,0.0,0.0,0.0,0.0,0.0,0.0,0.0,0.0,0.0,0.0,0.0,0.0,0.0,0.0,0.0,0.0,-1.3362,-0.9278,-0.8144,-1.0419,-1.2312,-1.3195,-1.3061,0.0,0.0,0.0,0.0,0.0,0.0,0.0,0.0,0.0,0.0,0.0,0.0,0.0,0.0,0.0,0.0,0.0,0.0,0.0,0.0,0.0,0.0,0.0,0.0,0.0,0.0,0.0,0.0,0.0,0.0,0.0,0.0,0.0,0.0,0.0,0.0,0.0,0.0,0.0,0.0,0.0,0.0,0.0,0.0,0.0,0.0,0.0,0.0,0.0,0.0,0.0,0.0,0.0,0.0,0.0,0.0,0.0,0.0,0.0,0.0,0.0,0.0,0.0,0.0,0.0,0.0,0.0,0.0,0.0,0.0,0.0,0.0,0.0,0.0,0.0,0.0,0.0,0.0,0.0,0.0,0.0,0.0,0.0,0.0,0.0,0.0,0.0,0.0,0.0,0.0,0.0,0.0,0.0,0.0,0.0,0.0,0.0,0.0,0.0,0.0,0.0,0.0,0.0,0.0,0.0,0.0,0.0,0.0,-1.3397,-0.7922,-0.6271,-0.8845,-1.1188,-1.2966,0.0,0.0,0.0,0.0,0.0,0.0,0.0,0.0,0.0,0.0,0.0,0.0,0.0,0.0,0.0,0.0,0.0,0.0,0.0,0.0,0.0,0.0,0.0,0.0,0.0,0.0,0.0,0.0,0.0,0.0,0.0,0.0,0.0,0.0,0.0,0.0,0.0,0.0,0.0,0.0,0.0,0.0,0.0,0.0,0.0,0.0,0.0,0.0,0.0,0.0,0.0,0.0,0.0,0.0,0.0,0.0,0.0,0.0,0.0,0.0,0.0,0.0,0.0,0.0,0.0,0.0,0.0,0.0,0.0,0.0,0.0,0.0,0.0,0.0,0.0,0.0,0.0,0.0,0.0,0.0,0.0,0.0,0.0,0.0,0.0,0.0,0.0,0.0,0.0,0.0,0.0,0.0,0.0,0.0,0.0,0.0,0.0,0.0,0.0,0.0,0.0,0.0,0.0,0.0,0.0,0.0,0.0,0.0,0.0,-1.5449,-0.9601,-0.733,-0.935,-1.1354,-1.2567,0.0,0.0,0.0,0.0,0.0,0.0,0.0,0.0,0.0,0.0,0.0,0.0,0.0,0.0,0.0,0.0,0.0,0.0,0.0,0.0,0.0,0.0,0.0,0.0,0.0,0.0,0.0,0.0,0.0,0.0,0.0,0.0,0.0,0.0,0.0,0.0,0.0,0.0,0.0,0.0,0.0,0.0,0.0,0.0,0.0,0.0,0.0,0.0,0.0,0.0,0.0,0.0,0.0,0.0,0.0,0.0,0.0,0.0,0.0,0.0,0.0,0.0,0.0,0.0,0.0,0.0,0.0,0.0,0.0,0.0,0.0,0.0,0.0,0.0,0.0,0.0,0.0,0.0,0.0,0.0,0.0,0.0,0.0,0.0,0.0,0.0,0.0,0.0,0.0,0.0,0.0,0.0,0.0,0.0,0.0,0.0,0.0,0.0,0.0,0.0,0.0,0.0,0.0,0.0,0.0,0.0,0.0,0.0,-1.7388,-1.6031,-1.1976,-0.9996,-1.023,-1.0939,-1.1666,0.0,0.0,0.0,0.0,0.0,0.0,0.0,0.0,0.0,0.0,0.0,0.0,0.0,0.0,0.0,0.0,0.0,0.0,0.0,0.0,0.0,0.0,0.0,0.0,0.0,0.0,0.0,0.0,0.0,0.0,0.0,0.0,0.0,0.0,0.0,0.0,0.0,0.0,0.0,0.0,0.0,0.0,0.0,0.0,0.0,0.0,0.0,0.0,0.0,0.0,0.0,0.0,0.0,0.0,0.0,0.0,0.0,0.0,0.0,0.0,0.0,0.0,0.0,0.0,0.0,0.0,0.0,0.0,0.0,0.0,0.0,0.0,0.0,0.0,0.0,0.0,0.0,0.0,0.0,0.0,0.0,0.0,0.0,0.0,0.0,0.0,0.0,0.0,0.0,0.0,0.0,0.0,0.0,0.0,0.0,0.0,0.0,0.0,0.0,0.0,0.0,0.0,0.0,0.0,0.0,0.0,0.0,0.0,-2.0317,-1.5897,-1.4527,-1.3243,-1.186,-1.0773,-1.1008,0.0,0.0,0.0,0.0,0.0,0.0,0.0,0.0,0.0,0.0,0.0,0.0,0.0,0.0,0.0,0.0,0.0,0.0,0.0,0.0,0.0,0.0,0.0,0.0,0.0,0.0,0.0,0.0,0.0,0.0,0.0,0.0,0.0,0.0,0.0,0.0,0.0,0.0,0.0,0.0,0.0,0.0,0.0,0.0,0.0,0.0,0.0,0.0,0.0,0.0,0.0,0.0,0.0,0.0,0.0,0.0,0.0,0.0,0.0,0.0,0.0,0.0,0.0,0.0,0.0,0.0,0.0,0.0,0.0,0.0,0.0,0.0,0.0,0.0,0.0,0.0,0.0,0.0,0.0,0.0,0.0,0.0,0.0,0.0,0.0,0.0,0.0,0.0,0.0,0.0,0.0,0.0,0.0,0.0,0.0,0.0,0.0,0.0,0.0,0.0,0.0,0.0,0.0,0.0,0.0,0.0,0.0,0.0,-2.1073,-1.9462,-1.5828,-1.4726,-1.6389,-1.379,-1.301,0.0,0.0,0.0,0.0,0.0,0.0,0.0,0.0,0.0,0.0,0.0,0.0,0.0,0.0,0.0,0.0,0.0,0.0,0.0,0.0,0.0,0.0,0.0,0.0,0.0,0.0,0.0,0.0,0.0,0.0,0.0,0.0,0.0,0.0,0.0,0.0,0.0,0.0,0.0,0.0,0.0,0.0,0.0,0.0,0.0,0.0,0.0,0.0,-2.6358,0.0,0.0,0.0,0.0,0.0,0.0,0.0,0.0,0.0,0.0,0.0,0.0,0.0,0.0,0.0,0.0,0.0,0.0,0.0,0.0,0.0,0.0,0.0,0.0,0.0,0.0,0.0,0.0,0.0,0.0,0.0,0.0,0.0,0.0,0.0,0.0,0.0,0.0,0.0,0.0,0.0,0.0,0.0,0.0,0.0,0.0,0.0,0.0,0.0,0.0,0.0,0.0,0.0,0.0,0.0,0.0,0.0,0.0,0.0,-2.3927,-2.187,-1.9562,-1.8214,-1.7846,-1.5912,-1.5393,0.0,0.0,0.0,0.0,0.0,0.0,0.0,0.0,0.0,0.0,0.0,0.0,0.0,0.0,0.0,0.0,0.0,0.0,0.0,0.0,0.0,0.0,0.0,0.0,0.0,0.0,0.0,0.0,0.0,0.0,0.0,0.0,0.0,0.0,0.0,0.0,0.0,0.0,0.0,0.0,0.0,0.0,0.0,0.0,0.0,0.0,0.0,0.0,0.0,0.0,0.0,0.0,0.0,0.0,0.0,0.0,0.0,0.0,0.0,0.0,0.0,0.0,0.0,0.0,0.0,0.0,0.0,0.0,0.0,0.0,0.0,0.0,0.0,0.0,0.0,0.0,0.0,0.0,0.0,0.0,0.0,0.0,0.0,0.0,0.0,0.0,0.0,0.0,0.0,0.0,0.0,0.0,0.0,0.0,0.0,0.0,0.0,0.0,0.0,0.0,0.0,0.0,0.0,0.0,0.0,0.0,0.0,-2.8958,-2.713,-2.3848,-2.3591,-2.1937,-1.8632,-1.7878,-1.81,-1.9233,0.0,0.0,0.0,0.0,0.0,0.0,0.0,0.0,0.0,0.0,0.0,0.0,0.0,0.0,0.0,0.0,0.0,0.0,0.0,0.0,0.0,0.0,0.0,0.0,0.0,0.0,0.0,0.0,0.0,0.0,0.0,0.0,0.0,0.0,0.0,0.0,0.0,0.0,-2.4324,-2.655,0.0,0.0,0.0,0.0,0.0,0.0,0.0,0.0,-2.9235,0.0,0.0,0.0,0.0,0.0,0.0,0.0,0.0,0.0,0.0,0.0,0.0,0.0,0.0,0.0,0.0,0.0,0.0,0.0,0.0,0.0,0.0,0.0,0.0,0.0,0.0,0.0,0.0,0.0,0.0,0.0,0.0,0.0,0.0,0.0,0.0,0.0,0.0,0.0,0.0,0.0,0.0,0.0,0.0,0.0,0.0,0.0,0.0,0.0,0.0,0.0,0.0,0.0,0.0,0.0,0.0,-3.0468,-2.9823,-2.8177,-2.5475,-2.4834,-2.3537,-2.1413,-2.036,-2.1099,-2.3614,0.0,0.0,0.0,0.0,0.0,0.0,0.0,0.0,0.0,0.0,0.0,0.0,0.0,0.0,0.0,0.0,0.0,0.0,0.0,0.0,0.0,0.0,0.0,0.0,0.0,0.0,0.0,0.0,0.0,0.0,0.0,0.0,0.0,0.0,0.0,0.0,0.0,0.0,0.0,-2.5889,-2.6685,0.0,0.0,0.0,0.0,0.0,0.0,0.0,0.0,-3.1206,0.0,0.0,0.0,0.0,0.0,0.0,0.0,0.0,0.0,0.0,0.0,0.0,0.0,0.0,0.0,0.0,0.0,0.0,0.0,0.0,0.0,0.0,0.0,0.0,0.0,0.0,0.0,0.0,0.0,0.0,0.0,0.0,0.0,0.0,0.0,0.0,0.0,0.0,0.0,0.0,0.0,0.0,0.0,0.0,0.0,0.0,0.0,0.0,0.0,0.0,0.0,0.0,0.0,0.0,0.0,-3.2861,-3.2449,-3.0854,-2.7993,-2.7098,-2.5902,-2.4165,-2.2838,-2.3928,0.0,0.0,0.0,0.0,0.0,0.0,0.0,0.0,0.0,0.0,0.0,0.0,0.0,0.0,0.0,0.0,0.0,0.0,0.0,0.0,0.0,0.0,0.0,0.0,0.0,0.0,0.0,0.0,0.0,0.0,0.0,0.0,0.0,0.0,0.0,0.0,0.0,0.0,0.0,0.0,-2.6777,-2.7746,-2.7854,0.0,0.0,0.0,0.0,0.0,0.0,-3.1155,-3.1716,0.0,0.0,0.0,0.0,0.0,0.0,0.0,0.0,0.0,0.0,0.0,0.0,0.0,0.0,0.0,0.0,0.0,0.0,0.0,0.0,0.0,0.0,0.0,0.0,0.0,0.0,0.0,0.0,0.0,0.0,0.0,0.0,0.0,0.0,0.0,0.0,0.0,0.0,0.0,0.0,0.0,0.0,0.0,0.0,0.0,0.0,0.0,0.0,0.0,0.0,0.0,0.0,0.0,0.0,0.0,-3.4899,-3.4905,-3.3406,-3.0425,-2.9506,-2.8239,-2.6467,-2.5561,-2.6823,0.0,0.0,0.0,0.0,0.0,0.0,0.0,0.0,0.0,0.0,0.0,0.0,0.0,0.0,0.0,0.0,0.0,0.0,0.0,0.0,0.0,0.0,0.0,0.0,0.0,0.0,0.0,0.0,0.0,0.0,0.0,0.0,0.0,0.0,0.0,0.0,0.0,0.0,0.0,0.0,0.0,-2.8858,-2.8978,-3.004,0.0,0.0,0.0,0.0,-3.1192,-3.167,0.0,0.0,0.0,0.0,0.0,0.0,0.0,0.0,0.0,0.0,0.0,0.0,0.0,0.0,0.0,0.0,0.0,0.0,0.0,0.0,0.0,0.0,0.0,0.0,0.0,0.0,0.0,0.0,0.0,0.0,0.0,0.0,0.0,0.0,0.0,0.0,0.0,0.0,0.0,0.0,0.0,0.0,0.0,0.0,0.0,0.0,0.0,0.0,0.0,0.0,0.0,0.0,0.0,0.0,0.0,0.0,-3.5544,-3.5621,-3.4458,-3.2114,-3.1324,-2.9799,-2.7439,-2.8753,-2.9967,0.0,0.0,0.0,0.0,0.0,0.0,0.0,0.0,0.0,0.0,0.0,0.0,0.0,0.0,0.0,0.0,0.0,0.0,0.0,0.0,0.0,0.0,0.0,0.0,0.0,0.0,0.0,0.0,0.0,0.0,0.0,0.0,0.0,0.0,0.0,0.0,0.0,0.0,0.0,0.0,0.0,-2.8509,-3.028,-3.0166,-3.036,0.0,0.0,-3.1237,-3.0939,-3.1746,0.0,0.0,0.0,0.0,0.0,0.0,0.0,0.0,0.0,0.0,0.0,0.0,0.0,0.0,0.0,0.0,0.0,0.0,0.0,0.0,0.0,0.0,0.0,0.0,0.0,0.0,0.0,0.0,0.0,0.0,0.0,0.0,0.0,0.0,0.0,0.0,0.0,0.0,0.0,0.0,0.0,0.0,0.0,0.0,0.0,0.0,0.0,0.0,0.0,0.0,0.0,0.0,0.0,0.0,0.0,-3.7022,-3.6411,-3.7359,-3.6753,-3.4372,-3.3559,-3.2484,-3.1006,-3.0881,-3.1681,0.0,0.0,0.0,0.0,0.0,0.0,0.0,0.0,0.0,0.0,0.0,0.0,0.0,0.0,0.0,0.0,0.0,0.0,0.0,0.0,0.0,0.0,0.0,0.0,0.0,0.0,0.0,0.0,0.0,0.0,0.0,0.0,0.0,0.0,0.0,0.0,0.0,0.0,0.0,0.0,0.0,0.0,-3.0429,-3.1034,0.0,0.0,0.0,-3.2125,-3.208,0.0,0.0,0.0,0.0,0.0,0.0,0.0,0.0,0.0,0.0,0.0,0.0,0.0,0.0,0.0,0.0,0.0,0.0,0.0,0.0,0.0,0.0,0.0,0.0,0.0,0.0,0.0,0.0,0.0,0.0,0.0,0.0,0.0,0.0,0.0,0.0,0.0,0.0,0.0,0.0,0.0,0.0,0.0,0.0,0.0,0.0,0.0,0.0,0.0,0.0,0.0,0.0,0.0,0.0,0.0,0.0,0.0,-3.6959,-3.8815,-3.8627,-3.6211,-3.5454,-3.4745,-3.3925,-3.2863,0.0,0.0,0.0,0.0,0.0,0.0,0.0,0.0,0.0,0.0,0.0,0.0,0.0,0.0,0.0,0.0,0.0,0.0,0.0,0.0,0.0,0.0,0.0,0.0,0.0,0.0,0.0,-2.8607,0.0,0.0,0.0,0.0,0.0,0.0,0.0,0.0,0.0,0.0,0.0,0.0,0.0,0.0,-3.0113,-3.0649,-3.1565,-3.1974,0.0,0.0,-3.2416,-3.2375,-3.2532,-3.2919,0.0,0.0,0.0,0.0,0.0,0.0,0.0,0.0,0.0,0.0,0.0,0.0,0.0,0.0,0.0,0.0,0.0,0.0,0.0,0.0,0.0,0.0,0.0,0.0,0.0,0.0,0.0,0.0,0.0,0.0,0.0,0.0,0.0,0.0,0.0,0.0,0.0,0.0,0.0,0.0,0.0,0.0,0.0,0.0,0.0,0.0,0.0,0.0,0.0,0.0,0.0,0.0,0.0,0.0,-3.8476,-3.704,-3.9427,-3.9584,-3.7219,-3.6701,-3.5884,-3.4767,-3.4992,-3.5725,0.0,0.0,0.0,0.0,0.0,0.0,0.0,0.0,0.0,0.0,0.0,0.0,0.0,0.0,0.0,0.0,0.0,0.0,0.0,0.0,0.0,0.0,0.0,0.0,0.0,0.0,0.0,0.0,0.0,0.0,0.0,0.0,0.0,0.0,0.0,0.0,0.0,0.0,0.0,0.0,0.0,-3.0815,-3.1521,-3.1114,-3.0624,0.0,-3.1034,-3.1322,-3.0521,-3.1629,-3.2561,-3.2788,0.0,0.0,0.0,0.0,0.0,0.0,0.0,0.0,0.0,0.0,0.0,0.0,0.0,0.0,0.0,0.0,0.0,0.0,0.0,0.0,0.0,0.0,0.0,0.0,0.0,0.0,0.0,0.0,0.0,0.0,0.0,0.0,0.0,0.0,0.0,0.0,0.0,0.0,0.0,0.0,0.0,0.0,0.0,0.0,0.0,0.0,0.0,0.0,0.0,0.0,0.0,0.0,0.0,-3.8654,-3.8228,-4.0978,-4.1421,-3.9535,-3.9264,-3.842,-3.6845,-3.6942,-3.7261,0.0,0.0,0.0,0.0,0.0,0.0,0.0,0.0,0.0,0.0,0.0,0.0,0.0,0.0,0.0,0.0,0.0,0.0,0.0,0.0,0.0,0.0,0.0,0.0,0.0,0.0,0.0,0.0,-2.6835,-2.6189,-2.5849,0.0,0.0,0.0,0.0,0.0,0.0,0.0,0.0,0.0,0.0,-3.0813,-3.1338,-3.1123,0.0,0.0,-3.0823,-3.1116,-3.0531,-3.1668,-3.27,-3.2915,-3.4225,0.0,0.0,0.0,0.0,0.0,0.0,0.0,0.0,0.0,0.0,0.0,0.0,0.0,0.0,0.0,0.0,0.0,0.0,0.0,0.0,0.0,0.0,0.0,0.0,0.0,0.0,0.0,0.0,0.0,0.0,0.0,0.0,0.0,0.0,0.0,0.0,0.0,0.0,0.0,0.0,0.0,0.0,0.0,0.0,0.0,0.0,0.0,0.0,0.0,0.0,0.0,0.0,-3.9101,-3.9069,-4.2168,-4.296,-4.1282,-4.1089,-4.0217,-3.8596,-3.8363,-3.8498,0.0,0.0,0.0,0.0,0.0,0.0,0.0,0.0,0.0,0.0,0.0,0.0,0.0,0.0,0.0,0.0,0.0,0.0,0.0,0.0,0.0,0.0,0.0,0.0,0.0,0.0,0.0,0.0,-2.728,-2.7371,-2.7734,0.0,0.0,0.0,0.0,0.0,0.0,0.0,0.0,0.0,0.0,-3.0589,-3.0966,-3.1212,-3.1131,-3.0423,-3.1135,-3.1556,-3.101,-3.1984,-3.2891,-3.297,0.0,0.0,0.0,0.0,0.0,0.0,0.0,0.0,0.0,0.0,0.0,0.0,0.0,0.0,0.0,0.0,0.0,0.0,0.0,0.0,0.0,0.0,0.0,0.0,0.0,0.0,0.0,0.0,0.0,0.0,-4.2054,0.0,0.0,0.0,0.0,0.0,0.0,0.0,0.0,0.0,0.0,0.0,0.0,0.0,0.0,0.0,0.0,0.0,0.0,0.0,0.0,0.0,0.0,-3.9895,-3.9262,-4.2813,-4.3904,-4.2334,-4.1773,-4.0905,-3.9586,-3.9169,-3.9581,-4.0792,0.0,0.0,0.0,0.0,0.0,0.0,0.0,0.0,0.0,0.0,0.0,0.0,0.0,0.0,0.0,0.0,0.0,0.0,0.0,0.0,0.0,0.0,0.0,0.0,0.0,0.0,-2.7221,-2.8532,-2.9199,0.0,0.0,0.0,0.0,0.0,0.0,0.0,0.0,0.0,-3.0012,-3.0046,-3.0335,-3.0603,-3.1213,-3.1378,-3.0691,-3.1948,-3.2702,-3.176,-3.2443,-3.3001,0.0,0.0,0.0,0.0,0.0,0.0,0.0,0.0,0.0,0.0,0.0,0.0,0.0,0.0,0.0,0.0,0.0,0.0,0.0,0.0,0.0,0.0,0.0,0.0,0.0,0.0,0.0,-4.0903,-4.0591,0.0,0.0,0.0,0.0,0.0,0.0,0.0,0.0,0.0,0.0,0.0,-3.8933,-3.873,0.0,0.0,0.0,0.0,0.0,0.0,0.0,0.0,0.0,0.0,0.0,0.0,-3.9803,-3.9861,-4.3458,-4.4925,-4.3944,-4.372,-4.3123,-4.2139,-4.1996,-4.2078,-4.2408,0.0,0.0,0.0,0.0,0.0,0.0,0.0,0.0,0.0,0.0,0.0,0.0,0.0,0.0,0.0,0.0,0.0,0.0,0.0,0.0,0.0,0.0,0.0,0.0,0.0,-2.9548,0.0,0.0,0.0,0.0,0.0,0.0,0.0,0.0,0.0,0.0,0.0,-3.0892,-3.0405,-3.0594,-3.0743,-3.0602,-3.0804,-3.0813,0.0,0.0,0.0,0.0,0.0,0.0,0.0,0.0,0.0,0.0,0.0,0.0,0.0,0.0,-3.69,-3.696,-3.6921,-3.6843,-3.6843,0.0,0.0,0.0,0.0,0.0,0.0,0.0,0.0,0.0,0.0,0.0,0.0,0.0,0.0,-4.1485,0.0,-4.2097,0.0,0.0,0.0,0.0,0.0,0.0,0.0,0.0,-4.0167,-4.0307,-4.0221,-4.0005,-3.9863,0.0,-3.9022,-3.7267,0.0,0.0,0.0,0.0,0.0,0.0,0.0,0.0,-3.9496,-4.0007,-4.3662,-4.5281,-4.4548,-4.464,-4.4256,-4.337,-4.3643,-4.3984,-4.4359,-4.4608,-4.4392,0.0,0.0,0.0,0.0,0.0,0.0,0.0,0.0,0.0,0.0,0.0,0.0,0.0,0.0,0.0,0.0,0.0,0.0,0.0,0.0,0.0,0.0,0.0,-3.0301,0.0,0.0,0.0,0.0,0.0,0.0,0.0,0.0,0.0,-3.068,-3.0568,-3.0422,-3.0201,-3.029,-3.0421,-3.0759,0.0,0.0,0.0,0.0,0.0,0.0,0.0,-3.2632,-3.234,-3.3796,-3.4676,-3.3625,-3.4787,-3.6225,-3.7374,0.0,0.0,-3.7704,-3.7552,-3.7496,-3.7496,-3.7687,-3.8049,-3.8632,-3.9241,-3.983,0.0,0.0,0.0,0.0,0.0,0.0,0.0,0.0,-4.2541,-4.2352,0.0,-4.3575,0.0,0.0,0.0,0.0,0.0,-4.2032,0.0,0.0,-4.4073,-4.4284,-4.2334,-4.1605,-4.1291,-4.1073,-3.7772,-3.6408,-3.7049,-3.8343,0.0,0.0,0.0,0.0,0.0,0.0,-3.8993,-3.9997,-4.3458,-4.493,-4.4247,-4.4543,-4.4245,-4.3341,-4.4077,-4.5165,-4.644,-4.5667,-4.5632,-4.6515,-4.3741,0.0,0.0,0.0,0.0,0.0,0.0,0.0,0.0,0.0,0.0,0.0,0.0,0.0,0.0,0.0,0.0,0.0,0.0,0.0,0.0,-3.0541,0.0,0.0,0.0,0.0,0.0,0.0,0.0,0.0,0.0,0.0,-2.9925,-2.9712,-2.9478,-2.9574,0.0,0.0,0.0,0.0,-3.1659,-3.1486,-3.2633,-3.3224,-3.2557,-3.2249,-3.1987,-3.1728,0.0,0.0,-3.3974,-3.5916,-3.7313,-3.7723,-3.8748,-3.9144,-3.7829,-3.7634,-3.7634,-3.7603,-3.8173,-3.8786,-3.9386,-3.9846,-4.0243,-3.9898,0.0,0.0,0.0,0.0,-4.0941,-4.176,-4.3031,-4.3647,-4.396,-4.4088,-4.5054,0.0,0.0,0.0,0.0,0.0,0.0,-4.229,-4.2823,-4.2468,-4.2555,-4.2991,-4.2181,-4.1554,-4.1037,-3.9999,-3.9363,-3.9149,-3.955,-3.8202,-3.5144,0.0,0.0,0.0,0.0,-4.0156,-4.1931,-4.3857,-4.512,-4.5791,-4.5367,-4.5019,-4.4766,-4.497,-4.5403,-4.6079,-4.5925,-4.5697,-4.5335,-4.4404,0.0,0.0,0.0,0.0,0.0,0.0,0.0,0.0,0.0,0.0,0.0,0.0,0.0,0.0,0.0,0.0,0.0,0.0,0.0,-3.0633,-2.7556,-2.6696,0.0,0.0,0.0,0.0,0.0,0.0,0.0,0.0,0.0,-3.077,-3.0831,-3.1254,0.0,0.0,-3.2144,-3.2105,-3.2053,-3.1743,-3.095,-3.119,0.0,-3.0932,-3.1399,-3.161,-3.1048,-3.1267,-3.2829,-3.67,-3.6787,-3.6921,-3.8554,-3.9182,-3.9325,-3.8983,-3.8869,-3.8838,-3.8865,-3.9051,-3.9419,-4.019,-4.0896,-4.161,-4.2761,-4.2311,-4.1223,-4.1441,-4.2541,-4.2828,-4.3532,-4.4518,-4.5009,-4.5321,-4.5475,-4.6595,-4.6645,-4.5814,-4.518,0.0,0.0,0.0,-4.2999,-4.4014,-4.259,-4.2094,-4.2346,-4.185,-4.1276,-4.0603,-4.0006,-3.9656,-3.9574,-3.8403,-3.7395,-3.6363,0.0,0.0,-3.796,-3.9894,-4.1669,-4.3242,-4.4595,-4.5515,-4.5943,-4.5366,-4.5218,-4.5582,-4.5003,-4.5014,-4.5717,-4.5593,-4.548,-4.5422,-4.4761,-4.303,0.0,0.0,0.0,0.0,0.0,0.0,0.0,0.0,0.0,0.0,0.0,-3.156,-3.2116,0.0,0.0,0.0,-2.9541,-2.9285,-2.9113,-2.6494,0.0,0.0,0.0,0.0,0.0,0.0,0.0,-3.1523,-3.1803,-3.1993,-3.1739,-3.176,-3.1883,-3.2229,-3.192,-3.1698,-3.1714,0.0,-3.1175,-3.0657,-3.0596,-3.0562,-3.0395,-3.0774,-3.1129,-3.1358,-3.1943,-3.3577,-3.6953,-3.6966,-3.7047,-3.8531,-3.923,-3.9403,-3.9403,-3.9403,-3.9403,-3.9403,-3.9403,-3.9625,-4.0095,-4.1129,-4.2141,-4.5582,-4.6065,-4.3553,-4.3257,-4.4518,-4.5187,-4.5854,-4.6483,-4.653,-4.6488,-4.661,-4.8211,-4.789,-4.6108,-4.4838,0.0,-4.6508,-4.4484,-4.4113,-4.5088,-4.3805,-4.2443,-4.1022,-4.0928,-4.0513,-3.9842,-3.8404,-3.8122,-3.8729,-3.6261,-3.6315,-3.8941,-3.9758,-4.0302,-4.0842,-4.1959,-4.304,-4.3985,-4.5345,-4.5839,-4.5339,-4.4974,-4.5142,-4.5893,-4.458,-4.4383,-4.548,-4.4907,-4.5122,-4.62,-4.4836,-4.3305,-4.1888,0.0,0.0,0.0,0.0,0.0,0.0,0.0,0.0,0.0,0.0,0.0,0.0,0.0,0.0,0.0,-2.7109,0.0,-2.6316,-2.6795,0.0,0.0,0.0,-3.0833,-3.2853,-3.2448,-3.2214,-3.262,0.0,0.0,-3.2633,-3.237,-3.1818,-3.1156,-2.9996,-2.9563,-3.0556,-3.0537,-3.037,-3.0514,-3.0528,-3.0556,-3.0616,-3.0653,-3.1075,-3.2368,-3.3254,-3.447,-3.6344,-3.6998,-3.7455,-3.84,-3.899,-3.9403,-3.9403,-3.9403,-3.9403,-3.9403,-3.9403,-3.9409,-3.9666,-4.0894,-4.2013,-4.5533,-4.6756,-4.6129,-4.589,-4.5895,-4.6092,-4.6539,-4.7176,-4.7493,-4.8078,-4.891,-4.9629,-4.9648,-4.9205,-4.8575,-4.8062,-4.7574,-4.6266,-4.5212,-4.4402,-4.2944,-4.1725,-4.0778,-4.0063,-3.9447,-3.8777,-3.8421,-3.8427,-3.8748,-3.8685,-3.8964,-3.9785,-4.1013,-4.1094,-4.0136,-4.0372,-4.1682,-4.3983,-4.3722,-4.4415,-4.6073,-4.6321,-4.6384,-4.6278,-4.5473,-4.5388,-4.5997,-4.4926,-4.4778,-4.5629,-4.4293,-4.2546,-4.0583,-3.9391,0.0,0.0,0.0,0.0,0.0,0.0,0.0,0.0,0.0,-3.0095,-3.0564,0.0,-2.9414,0.0,-2.6081,-2.5891,-2.7724,-2.6417,0.0,0.0,-3.1296,-3.2011,-3.1358,-3.2449,-3.288,-3.1833,-3.2596,-3.2976,-3.2403,-3.2498,-3.2437,-3.196,-3.1765,-3.1648,-3.1426,-3.1128,-3.0808,-3.0377,-3.0142,-3.0269,-3.0963,-3.1613,-3.2307,-3.3237,-3.4107,-3.5385,-3.759,-3.8012,-3.8293,-3.9014,-3.9254,-3.9373,-3.9403,-3.9403,-3.9403,-3.9403,-3.9403,-3.9625,-4.0239,-4.1262,-4.2205,-4.6013,-4.6986,-4.6986,-4.7063,-4.7214,-4.7599,-4.7993,-4.8366,-4.865,-4.9197,-4.9991,-5.0215,-5.031,-5.0231,-4.9616,-4.883,-4.7955,-4.6869,-4.5388,-4.3609,-4.2484,-4.1369,-4.0256,-3.9776,-3.9375,-3.9104,-3.9104,-3.9148,-3.9314,-3.9717,-4.0316,-4.1016,-4.1829,-4.1793,-4.0964,-4.0826,-4.1556,-4.3052,-4.3215,-4.4545,-4.7089,-4.651,-4.587,-4.5312,-4.3824,-4.2981,-4.2908,-4.1688,-4.1504,-4.2539,-4.1883,-4.0696,-3.9092,-3.8226,-3.6448,0.0,0.0,0.0,0.0,0.0,0.0,0.0,0.0,0.0,0.0,0.0,-2.9474,-2.8915,-2.6953,-2.6707,-2.9012,-2.7926,-2.8032,-3.0484,-3.2135,-3.2712,-3.1811,-3.2714,-3.3094,-3.2273,-3.2893,-3.3239,-3.2676,-3.2561,-3.247,-3.2206,-3.2121,-3.1861,-3.1283,-3.1029,-3.0687,-3.0134,-2.9897,-3.0266,-3.1423,-3.2426,-3.3417,-3.451,-3.5697,-3.6969,-3.8172,-3.8661,-3.899,-3.9284,-3.9403,-3.9403,-3.9403,-3.9403,-3.9403,-3.9445,-3.9702,-4.0165,-4.0622,-4.1395,-4.2269,-4.6768,-4.7146,-4.7259,-4.7716,-4.845,-4.9297,-4.9621,-4.9566,-4.9695,-4.9967,-5.0341,-5.0334,-5.0269,-5.0089,-4.919,-4.842,-4.774,-4.6644,-4.4913,-4.278,-4.214,-4.1048,-3.9689,-3.9658,-3.981,-4.0064,-3.9972,-4.0095,-4.0399,-4.0309,-4.0929,-4.2125,-4.2274,-4.2155,-4.1929,-4.1789,-4.1789,-4.1874,-4.3319,-4.526,-4.7673,-4.5707,-4.4329,-4.3664,-4.1233,-3.9602,-3.8991,-3.7722,-3.7653,-3.8854,-3.8745,-3.8367,-3.7689,-3.6656,-3.4999,0.0,-3.262,0.0,0.0,0.0,0.0,0.0,0.0,0.0,0.0,-2.8413,-2.9451,-3.0281,-2.8363,-2.7911,-2.9774,-2.9859,-3.0238,-3.1286,-3.2396,-3.3089,-3.3104,-3.3136,-3.3136,-3.3136,-3.3136,-3.3136,-3.3086,-3.2616,-3.2315,-3.2315,-3.2021,-3.1696,-3.1189,-3.1091,-3.0823,-3.0058,-3.0151,-3.1033,-3.2235,-3.3376,-3.4638,-3.5978,-3.7252,-3.8392,-3.8542,-3.902,-3.9373,-3.9373,-3.9403,-3.9403,-3.9403,-3.9403,-3.9403,-3.9409,-4.006,-4.0622,-4.0792,-4.1528,-4.2395,-4.7827,-4.7969,-4.867,-4.9096,-4.9393,-5.028,-5.0248,-4.9695,-5.0046,-5.0293,-5.0428,-5.0338,-4.9935,-4.9281,-4.8499,-4.762,-4.6634,-4.526,-4.3734,-4.2109,-4.133,-4.0423,-3.9485,-3.945,-3.9856,-4.0489,-3.9872,-4.062,-4.2684,-4.1944,-4.1581,-4.1517,-4.2021,-4.1433,-3.9814,0.0,0.0,0.0,-4.3169,-4.4421,-4.49,-4.3393,-4.2516,-4.2374,-4.0828,0.0,-3.9729,-3.8504,-3.7915,-3.8157,-3.6899,0.0,0.0,0.0,0.0,0.0,0.0,0.0,0.0,0.0,0.0,0.0,-3.1713,-3.0928,-2.9142,-2.8562,-2.846,-2.8833,-2.7873,-2.7601,-2.8391,-2.9278,-3.022,-3.1304,-3.2424,-3.3122,-3.3111,-3.3136,-3.3136,-3.3136,-3.3136,-3.3136,-3.3111,-3.3011,-3.296,-3.291,-3.286,-3.2937,-3.3115,-3.2711,-3.1992,-3.0874,-3.1715,-3.2853,-3.3285,-3.5146,-3.6435,-3.7011,-3.7676,-3.8566,-3.908,-3.929,-3.9373,-3.9403,-3.9403,-3.9403,-3.9403,-3.9403,-3.9403,-3.9403,-4.013,-4.0724,-4.0758,-4.1949,-4.3108,-4.8308,0.0,-4.8766,-4.9246,0.0,-5.0096,-5.0314,-5.0402,-5.0592,-5.0581,-5.0377,-4.99,-4.9267,-4.8546,-4.7974,-4.7082,-4.5915,-4.4741,-4.3385,-4.1981,-4.1098,-4.0451,-4.006,-4.006,-4.069,-4.1917,-4.1526,-4.2237,-4.386,-4.3499,-4.3164,-4.2925,-4.2894,-4.2294,-4.1285,-4.1208,-4.1519,-4.2135,-4.3232,-4.4249,-4.5174,-4.3838,-4.2725,-4.1973,-4.0281,0.0,0.0,0.0,0.0,0.0,0.0,0.0,0.0,0.0,0.0,-3.1998,-3.1468,-3.1182,-3.1281,-3.1193,-3.1089,-3.0919,-3.1164,-3.0817,-2.9685,-2.8208,-2.7806,-2.8998,-2.8509,-2.8539,-2.9618,-3.0491,-3.1331,-3.2148,-3.2717,-3.3136,-3.3136,-3.3136,-3.3136,-3.3136,-3.3136,-3.3136,-3.3136,-3.3598,-3.3641,-3.3283,-3.4011,-3.4504,-3.4214,-3.3275,-3.2296,-3.1885,-3.3062,-3.4381,-3.5204,-3.618,-3.7529,-3.8046,-3.8614,-3.9014,-3.9349,-3.9403,-3.9403,-3.9403,-3.9403,-3.9403,-3.9403,-3.9403,-3.9403,-3.9517,-4.0447,-4.1297,-4.1363,-4.2395,-4.3443,-4.8855,-4.8743,-4.8876,-4.9247,-4.9811,-4.9809,-5.0273,-5.0953,0.0,0.0,0.0,-4.9253,-4.8509,-4.7875,-4.7313,-4.6389,-4.5216,-4.4248,-4.3092,-4.1756,-4.086,-4.0481,-4.0451,-4.0451,-4.1395,-4.3017,-4.2925,-4.3439,-4.4559,-4.444,-4.444,-4.4519,-4.3809,-4.3341,-4.3139,-4.2591,-4.2568,-4.3093,-4.2876,-4.3631,-4.5361,-4.3886,-4.2536,-4.1459,-3.9422,-3.7404,-3.5493,-3.4936,-3.4312,-3.3536,-3.3098,-3.2655,-3.2236,-3.1439,-3.0557,-2.9719,-2.9821,-2.9905,-2.9804,-2.988,-3.0181,-3.0708,-3.0758,-3.0532,-2.998,-2.8274,-2.7945,-2.9688,-2.9438,-2.978,-3.1129,-3.1845,-3.2374,-3.2842,-3.3018,-3.3136,-3.3136,-3.3136,-3.3154,-3.3326,-3.324,-3.3283,-3.37,-3.4262,-3.4511,-3.4037,-3.5047,-3.5961,-3.4995,-3.3829,-3.3331,-3.4059,-3.4835,-3.5563,-3.6793,-3.7412,-3.796,-3.9079,-3.9343,-3.9403,-3.9403,-3.9403,-3.9403,-3.9403,-3.9403,-3.9403,-3.9409,-3.9589,-3.9553,-3.9475,-4.0894,-4.2173,-4.2141,-4.28,-4.3739,-5.0286,-4.9677,-5.0306,-5.0246,-4.9843,-5.0458,-5.059,-5.0408,-5.04,-4.9995,-4.9225,-4.8479,-4.7897,-4.7413,-4.6246,-4.5295,-4.4298,-4.2944,-4.1789,-4.086,-3.999,-3.9559,-3.9589,-3.9559,-4.0481,-4.2046,-4.1429,-4.23,-4.4298,-4.3856,-4.386,-4.4395,-4.3809,-4.3098,-4.2489,-4.2354,-4.2339,-4.2411,-4.1214,-4.0993,-4.1861,-3.974,-3.883,-3.9144,-3.7698,-3.6257,-3.5036,-3.5218,-3.4263,-3.1985,-3.1914,-3.175,-3.1239,-3.0491,-3.0113,-3.0402,-3.0446,-3.0281,-2.9854,-3.0231,-3.0733,-3.121,-3.1286,-3.106,-3.0518,-3.0204,-2.9965,-2.988,-3.0084,-3.0433,-3.0758,-3.1644,-3.2223,-3.2231,-3.2724,-3.3111,-3.3136,-3.3154,-3.3471,-3.4262,-3.3641,-3.3885,-3.5238,-3.5156,-3.5075,-3.5588,-3.6006,-3.6181,-3.608,-3.5421,-3.5767,-3.7034,-3.7041,-3.7172,-3.7955,-3.8686,-3.905,-3.9337,-3.9403,-3.9403,-3.9403,-3.9403,-3.9403,-3.9403,-3.9403,-3.9403,-3.9439,-4.0025,-4.0025,-3.9666,-4.1262,-4.2676,-4.2173,-4.3229,-4.4384,-5.0857,-5.0543,-5.0885,-5.0826,-5.0514,-5.0547,-5.0171,-4.9551,-4.9562,-4.9344,-4.892,-4.805,-4.7377,-4.6819,-4.589,-4.4851,-4.366,-4.3012,-4.2013,-4.0724,-4.0309,-3.9879,-3.9481,-3.9849,-4.0538,-4.1374,-4.1469,-4.2138,-4.3198,-4.2942,-4.297,-4.3301,-4.2963,-4.2625,-4.232,-4.2286,-4.2489,-4.2834,-4.1781,-4.1221,-4.1182,-3.9606,-3.8764,-3.873,-3.7589,-3.6627,-3.5776,-3.541,-3.4381,-3.2632,-3.1874,-3.1256,-3.0791,-3.0163,-2.9905,-3.0156,-3.0181,-3.0055,-2.9804,-3.0306,-3.0834,-3.1336,-3.1386,-3.116,-3.0658,-3.0331,-3.0055,-2.9829,-3.0306,-3.0733,-3.1009,-3.1754,-3.2307,-3.2574,-3.2918,-3.3111,-3.3197,-3.3683,-3.4163,-3.4635,-3.4774,-3.5156,-3.6093,-3.6318,-3.62,-3.633,-3.6615,-3.7211,-3.78,-3.7692,-3.7635,-3.8004,-3.8179,-3.8463,-3.8889,-3.92,-3.9373,-3.9403,-3.9403,-3.9403,-3.9403,-3.9403,-3.9403,-3.9403,-3.9403,-3.9403,-3.9403,-3.9702,-3.9737,-3.9809,-4.1062,-4.2173,-4.23,-4.338,-4.4468,-5.1035,-5.097,-5.093,-5.0836,-5.0695,-5.021,-4.9589,-4.8895,-4.8635,-4.8566,-4.8421,-4.7601,-4.6819,-4.6161,-4.5382,-4.4271,-4.3139,-4.3017,-4.2045,-4.0519,-4.0622,-4.0239,-3.9589,-4.0309,-4.088,-4.1182,-4.1852,-4.2309,-4.2476,-4.2388,-4.2286,-4.2286,-4.2286,-4.2286,-4.2286,-4.2286,-4.2591,-4.3078,-4.234,-4.1763,-4.1412,-4.0323,-3.9366,-3.8631,-3.7842,-3.6994,-3.6075,-3.5711,-3.4789,-3.3211,-3.2223,-3.1374,-3.0475,-3.003,-2.9779,-2.9779,-2.9779,-2.9779,-2.9804,-3.0306,-3.0783,-3.1185,-3.1428,-3.1251,-3.0673,-3.0508,-3.0216,-2.9971,-3.0407,-3.104,-3.1686,-3.2138,-3.26,-3.3039,-3.3139,-3.3343,-3.3784,-3.4345,-3.4938,-3.5346,-3.5922,-3.629,-3.6877,-3.7405,-3.7548,-3.7252,-3.7663,-3.8509,-3.9228,-3.9403,-3.9017,-3.862,-3.887,-3.9271,-3.9403,-3.9373,-3.9403,-3.9403,-3.9403,-3.9403,-3.9403,-3.9403,-3.9403,-3.9403,-3.9403,-3.9403,-3.9439,-3.9631,-3.9773,-3.995,-4.1262,-4.2426,-4.28,-4.368,-4.4553,-5.0858,-5.0555,-5.0435,-5.009,-4.9638,-4.9205,-4.8957,-4.8759,-4.7929,-4.7554,-4.7434,-4.6819,-4.6185,-4.5407,-4.4164,-4.3075,-4.2237,-4.2141,-4.1229,-3.9809,-4.0343,-4.0239,-3.9589,-4.0343,-4.1131,-4.1789,-4.2108,-4.2504,-4.3003,-4.2523,-4.2286,-4.2286,-4.2286,-4.232,-4.232,-4.232,-4.2354,-4.2361,-4.1488,-4.1391,-4.1983,-4.0651,-3.9407,-3.8344,-3.7747,-3.6517,-3.488,-3.6254,-3.5574,-3.2557,-3.2907,-3.2283,-3.0214,-2.9804,-2.9779,-2.9779,-2.9779,-2.9779,-2.9868,-3.0306,-3.0673,-3.0698,-3.15,-3.1565,-3.0795,-3.1686,-3.1599,-3.0458,-3.0788,-3.1826,-3.2698,-3.2957,-3.3164,-3.3257,-3.3306,-3.3827,-3.5386,-3.5183,-3.5427,-3.7357,-3.676,-3.6916,-3.8442,-3.8331,-3.8182,-3.8694,-3.887,-3.9119,-3.9301,-3.9403,-3.9373,-3.9228,-3.9373,-3.9373,-3.9403,-3.9403,-3.9403,-3.9403,-3.9403,-3.9403,-3.9403,-3.9403,-3.9403,-3.9403,-3.9517,-3.9517,-3.9589,-3.999,-4.0485,-4.0588,-4.1756,-4.3353,-4.4064,-4.444,-4.4581,-5.0063,-4.9901,-4.9846,-4.9546,-4.9086,-4.8598,-4.8218,-4.7945,-4.7162,-4.6635,-4.6257,-4.5989,-4.5749,-4.539,-4.3963,-4.3108,-4.2738,-4.2237,-4.1362,-4.0309,-4.1062,-4.0995,-4.0378,-4.1593,-4.2006,-4.1501,-4.1996,-4.1957,-4.1523,-4.1576,-4.1644,-4.1779,-4.2489,-4.2963,-4.2997,-4.3403,-4.3639,-4.3612,-4.2785,-4.2254,-4.1878,-4.0034,-3.8608,-3.7807,-3.6945,-3.6301,-3.5565,-3.4803,-3.3879,-3.3179,-3.2554,-3.1729,-3.0722,-3.062,-3.0381,-2.9856,-2.9779,-3.0176,-3.1035,-3.1306,-3.1188,-3.0647,-3.1988,-3.2321,-3.1135,-3.1963,-3.2263,-3.177,-3.249,-3.2987,-3.2446,-3.3762,-3.4778,-3.4498,-3.467,-3.5413,-3.6635,-3.6665,-3.6944,-3.7701,-3.7965,-3.8331,-3.9126,-3.9017,-3.8943,-3.9337,-3.9403,-3.9403,-3.9403,-3.9403,-3.9403,-3.9403,-3.9403,-3.9403,-3.9403,-3.9403,-3.9403,-3.9403,-3.9403,-3.9403,-3.9403,-3.9403,-3.9403,-3.9409,-3.9737,-3.9809,-3.9445,-4.0095,-4.0724,-4.1098,-4.2077,-4.3562,-4.4412,-4.4615,-4.4581,-4.9431,-4.9326,-4.9218,-4.8911,-4.8439,-4.8047,-4.7549,-4.7066,-4.6448,-4.589,-4.5494,-4.532,-4.5241,-4.5054,-4.3643,-4.2857,-4.2539,-4.1757,-4.1014,-4.0546,-4.1308,-4.1243,-4.0647,-4.2167,-4.2404,-4.1597,-4.1976,-4.1745,-4.0857,-4.1204,-4.161,-4.1948,-4.2868,-4.3511,-4.3775,-4.4344,-4.4468,-4.415,-4.3413,-4.252,-4.1497,-3.9681,-3.8256,-3.7321,-3.6664,-3.6248,-3.6039,-3.422,-3.3301,-3.3561,-3.2335,-3.1462,-3.123,-3.1204,-3.0895,-3.0292,-3.0177,-3.0611,-3.1724,-3.1762,-3.1637,-3.1318,-3.2475,-3.2737,-3.2019,-3.2727,-3.3164,-3.296,-3.4321,-3.4491,-3.3301,-3.479,-3.6093,-3.6286,-3.6413,-3.6598,-3.7681,-3.792,-3.7852,-3.8219,-3.8804,-3.9403,-3.9403,-3.9337,-3.9337,-3.9373,-3.9403,-3.9403,-3.9403,-3.9403,-3.9403,-3.9403,-3.9403,-3.9403,-3.9403,-3.9403,-3.9403,-3.9403,-3.9403,-3.9403,-3.9403,-3.9403,-3.9631,-3.9849,-4.0239,-4.0343,-4.006,-4.0481,-4.1098,-4.1593,-4.2614,-4.3798,-4.4502,-4.4587,-4.4581,-4.928,-4.8915,-4.8495,-4.8038,-4.7491,-4.7428,-4.7044,-4.6389,-4.579,-4.5528,-4.5399,-4.4906,-4.4671,-4.4491,-4.2862,-4.1725,-4.1086,-4.0319,-3.9924,-3.9891,-4.0674,-4.0546,-3.9796,-4.1425,-4.2235,-4.2084,-4.2299,-4.2252,-4.2083,-4.2219,-4.2625,-4.324,-4.3409,-4.3809,-4.435,-4.4491,-4.4184,-4.3443,-4.2552,-4.1658,-4.0795,-3.9854,-3.8595,-3.7332,-3.721,-3.665,-3.5456,-3.5844,-3.521,-3.2798,-3.2629,-3.2164,-3.1352,-3.1241,-3.1204,-3.113,-3.113,-3.1193,-3.1357,-3.1458,-3.1653,-3.2318,-3.2731,-3.2712,-3.2775,-3.4225,-3.4724,-3.3748,-3.5845,-3.667,-3.584,-3.6136,-3.7147,-3.8435,-3.7291,-3.7396,-3.901,-3.8389,-3.836,-3.898,-3.9301,-3.9403,-3.9403,-3.9403,-3.9403,-3.9403,-3.9403,-3.9403,-3.9403,-3.9403,-3.9403,-3.9403,-3.9403,-3.9403,-3.9403,-3.9403,-3.9403,-3.9403,-3.9403,-3.9403,-3.9403,-3.9481,-3.9884,-4.0135,-4.0025,-4.0135,-4.0485,-4.1062,-4.1691,-4.2458,-4.3469,-4.4412,-4.4587,-4.4587,-4.4581,-4.8658,-4.8458,-4.7959,-4.7611,-4.732,-4.6542,-4.6039,-4.574,-4.5196,-4.4934,-4.4879,-4.4692,-4.4298,-4.371,-4.2552,-4.2484,-4.2983,-4.0769,-3.9932,-4.0451,-4.0845,-4.0591,-4.0101,-4.1939,-4.2685,-4.2372,-4.276,-4.276,-4.2388,-4.276,-4.3132,-4.3443,-4.3944,-4.4316,-4.4463,-4.4035,-4.3591,-4.3169,-4.1917,-4.0997,-4.0656,-3.9849,-3.9109,-3.8582,-3.7923,-3.7279,-3.6566,-3.5703,-3.4896,-3.4467,-3.3871,-3.3331,-3.2982,-3.2415,-3.2092,-3.2092,-3.2092,-3.2343,-3.2876,-3.2982,-3.2841,-3.2664,-3.3802,-3.434,-3.4393,-3.5321,-3.6089,-3.627,-3.7128,-3.7793,-3.7766,-3.7945,-3.8256,-3.8256,-3.8331,-3.8442,-3.909,-3.9053,-3.898,-3.9301,-3.9403,-3.9403,-3.9403,-3.9403,-3.9403,-3.9403,-3.9403,-3.9403,-3.9403,-3.9403,-3.9403,-3.9403,-3.9403,-3.9403,-3.9403,-3.9403,-3.9403,-3.9403,-3.9403,-3.9403,-3.9403,-3.9403,-3.9702,-4.0025,-3.9849,-4.0343,-4.0961,-4.1853,-4.2489,-4.3047,-4.4093,-4.4497,-4.4581,-4.4581,-4.4581,-4.7858,-4.7617,-4.7277,-4.6955,-4.6705,-4.59,-4.5399,-4.5196,-4.4803,-4.4581,-4.4581,-4.4581,-4.427,-4.3651,-4.28,-4.3199,-4.414,-4.1183,-4.0132,-4.0942,-4.1053,-4.0925,-4.0948,-4.2283,-4.2929,-4.2794,-4.3436,-4.3504,-4.3132,-4.3538,-4.3775,-4.3842,-4.4378,-4.444,-4.4121,-4.3562,-4.3108,-4.2363,-4.1264,-4.0588,-4.0274,-3.9737,-3.9403,-3.9301,-3.8694,-3.8003,-3.743,-3.6092,-3.5196,-3.4974,-3.4277,-3.3766,-3.3498,-3.3255,-3.3052,-3.308,-3.3052,-3.3296,-3.3905,-3.4185,-3.4192,-3.3915,-3.4898,-3.5629,-3.5775,-3.6408,-3.7071,-3.7644,-3.8093,-3.8487,-3.8751,-3.9134,-3.909,-3.8509,-3.898,-3.9403,-3.9403,-3.9403,-3.9373,-3.9373,-3.9403,-3.9403,-3.9433,-3.9619,-3.9619,-3.9433,-3.9559,-3.9679,-3.9469,-3.9403,-3.9403,-3.9403,-3.9403,-3.9403,-3.9403,-3.9403,-3.9403,-3.9403,-3.9403,-3.9403,-3.9403,-3.9403,-3.9589,-3.9814,-4.0309,-4.086,-4.1626,-4.2583,-4.3169,-4.3591,-4.4064,-4.4553,-4.4581,-4.4581,-4.4581,-4.7021,-4.6542,-4.6389,-4.6112,-4.5673,-4.539,-4.5054,-4.4609,-4.4468,-4.4355,-4.4384,-4.4497,-4.4474,-4.4422,-4.3565,-4.3739,-4.3901,-4.1436,-4.0483,-4.1209,-4.1337,-4.1663,-4.2041,-4.2445,-4.2963,-4.3436,-4.4181,-4.4547,-4.4412,-4.4418,-4.4451,-4.4491,-4.4435,-4.4035,-4.329,-4.3078,-4.2363,-4.1164,-4.069,-4.0239,-3.9553,-3.9409,-3.9403,-3.9373,-3.9271,-3.8644,-3.7524,-3.7361,-3.6355,-3.4529,-3.4023,-3.3381,-3.315,-3.3652,-3.4036,-3.3997,-3.4036,-3.407,-3.422,-3.4813,-3.5541,-3.5971,-3.6172,-3.6435,-3.7104,-3.7366,-3.7704,-3.8272,-3.8482,-3.8691,-3.923,-3.9379,-3.9337,-3.9373,-3.9373,-3.9403,-3.9403,-3.9403,-3.9403,-3.9499,-3.9529,-3.9439,-3.9559,-3.9828,-3.9918,-3.9619,-3.9828,-3.9978,-3.9529,-3.9403,-3.9403,-3.9403,-3.9403,-3.9403,-3.9403,-3.9403,-3.9403,-3.9403,-3.9403,-3.9403,-3.9403,-3.9409,-3.9809,-4.0135,-4.1062,-4.1657,-4.2395,-4.3229,-4.371,-4.4121,-4.444,-4.4581,-4.4581,-4.4581,-4.4581,-4.6612,-4.6377,-4.594,-4.5699,-4.5364,-4.4412,-4.3852,-4.3651,-4.3075,-4.3169,-4.3621,-4.371,-4.4302,-4.4836,-4.3946,-4.3802,-4.444,-4.2906,-4.2374,-4.2653,-4.2712,-4.255,-4.2555,-4.3368,-4.4005,-4.4215,-4.4479,-4.4581,-4.4581,-4.4553,-4.4327,-4.3831,-4.371,-4.3229,-4.2426,-4.1788,-4.1162,-4.0724,-4.0095,-3.9631,-3.9409,-3.9403,-3.9403,-3.9343,-3.896,-3.8482,-3.8123,-3.8093,-3.7331,-3.5743,-3.6006,-3.5619,-3.4714,-3.5215,-3.5385,-3.4848,-3.5385,-3.5955,-3.631,-3.6483,-3.6734,-3.7033,-3.704,-3.7337,-3.7968,-3.8093,-3.8392,-3.896,-3.911,-3.923,-3.9379,-3.9403,-3.9403,-3.9403,-3.9403,-3.9403,-3.9493,-3.9792,-4.0068,-4.0098,-4.0098,-4.0098,-4.0008,-4.0068,-3.9709,-3.9499,-3.9649,-3.9649,-3.9463,-3.9403,-3.9403,-3.9403,-3.9403,-3.9403,-3.9403,-3.9433,-3.9499,-3.9463,-3.9463,-3.9403,-3.9403,-3.9481,-3.9849,-4.0622,-4.1559,-4.2395,-4.3139,-4.3739,-4.4179,-4.4384,-4.4525,-4.4581,-4.4581,-4.4581,-4.4581,-4.6335,-4.603,-4.5096,-4.4695,-4.4523,-4.3317,-4.2833,-4.2769,-4.2614,-4.2963,-4.3652,-4.4082,-4.4733,-4.5361,-4.4608,-4.4528,-4.4902,-4.414,-4.4264,-4.4686,-4.3726,-4.3289,-4.3213,-4.4086,-4.4581,-4.4581,-4.4581,-4.4581,-4.4553,-4.427,-4.386,-4.3383,-4.2986,-4.2395,-4.156,-4.0997,-4.0588,-4.0205,-3.9666,-3.9228,-3.898,-3.9192,-3.9228,-3.8884,-3.8775,-3.8811,-3.8781,-3.8781,-3.8182,-3.7165,-3.7225,-3.6724,-3.5613,-3.6232,-3.6505,-3.6202,-3.6433,-3.7015,-3.7375,-3.7545,-3.7764,-3.7793,-3.8003,-3.8332,-3.8691,-3.8781,-3.902,-3.9284,-3.9373,-3.9403,-3.9403,-3.9679,-3.9679,-3.9403,-3.9403,-3.9529,-3.9738,-4.0127,-4.0367,-4.0307,-4.0157,-4.0068,-3.9918,-4.0038,-3.9619,-3.9529,-3.9619,-3.9619,-3.9493,-3.9403,-3.9403,-3.9403,-3.9403,-3.9403,-3.9403,-3.9433,-3.9559,-3.9589,-3.9619,-3.9463,-3.9403,-3.9409,-3.9702,-4.0758,-4.1756,-4.2614,-4.3413,-4.4035,-4.4525,-4.4581,-4.4649,-4.4581,-4.4581,-4.4581,-4.4581,-4.6082,-4.5433,-4.3926,-4.3358,-4.3298,-4.2523,-4.227,-4.2302,-4.2997,-4.376,-4.4497,-4.5113,-4.566,-4.5843,-4.5722,-4.5713,-4.5607,-4.497,-4.552,-4.6127,-4.5032,-4.3996,-4.4564,-4.4621,-4.4581,-4.4581,-4.4581,-4.4581,-4.4587,-4.3831,-4.3259,-4.3078,-4.23,-4.1495,-4.0758,-4.0588,-4.017,-3.9595,-3.9409,-3.8943,-3.8182,-3.8907,-3.9017,-3.8182,-3.8884,-3.9284,-3.932,-3.9254,-3.8775,-3.7734,-3.7584,-3.7149,-3.6505,-3.702,-3.743,-3.7297,-3.743,-3.7554,-3.7674,-3.8153,-3.8452,-3.8512,-3.8931,-3.9373,-3.9284,-3.929,-3.932,-3.9373,-3.9403,-3.9403,-3.9493,-3.9828,-3.9918,-3.9582,-3.9463,-3.9642,-4.0217,-4.0337,-4.0397,-4.0337,-3.9888,-3.9553,-3.9798,-4.0157,-3.9978,-3.9798,-3.9918,-3.9798,-3.9553,-3.9403,-3.9403,-3.9403,-3.9403,-3.9403,-3.9403,-3.9768,-3.9858,-3.9978,-4.0068,-4.0098,-4.0142,-4.0226,-4.0147,-4.1174,-4.2398,-4.3117,-4.3698,-4.4361,-4.4801,-4.4919,-4.4852,-4.4682,-4.4615,-4.4615,-4.4649,-4.4593,-4.4334,-4.346,-4.3073,-4.3073,-4.2847,-4.2815,-4.2911,-4.3654,-4.4461,-4.5166,-4.5448,-4.627,-4.7166,-4.6718,-4.6515,-4.6307,-4.5703,-4.5568,-4.6075,-4.5602,-4.5196,-4.5229,-4.4852,-4.4581,-4.4581,-4.4649,-4.4581,-4.4559,-4.3684,-4.2956,-4.2332,-4.1462,-4.0622,-3.9879,-3.9809,-3.9631,-3.9445,-3.9403,-3.9265,-3.9017,-3.9192,-3.9265,-3.9119,-3.9228,-3.9403,-3.9403,-3.9403,-3.932,-3.8931,-3.8392,-3.8053,-3.7807,-3.7983,-3.8123,-3.8123,-3.8153,-3.8362,-3.8781,-3.899,-3.911,-3.914,-3.9254,-3.9373,-3.9403,-3.9403,-3.9403,-3.9403,-3.9403,-3.9403,-3.9433,-3.9582,-3.9762,-4.0068,-3.9768,-3.9589,-3.9828,-4.0098,-4.0397,-4.0427,-4.0606,-4.0636,-4.0576,-4.0427,-4.0277,-4.0068,-3.9858,-3.9709,-3.9463,-3.9403,-3.9403,-3.9403,-3.9403,-3.9403,-3.9523,-3.9948,-4.0217,-4.0367,-4.0636,-4.1055,-4.1468,-4.1996,-4.1824,-4.1997,-4.3776,-4.4783,-4.4693,-4.4942,-4.5081,-4.5365,-4.5021,-4.4852,-4.4716,-4.4649,-4.475,-4.4473,-4.4409,-4.374,-4.3452,-4.3452,-4.3552,-4.3553,-4.3715,-4.4399,-4.5212,-4.5922,-4.6398,-4.6986,-4.771,-4.7102,-4.6956,-4.7022,-4.6152,-4.6075,-4.6515,-4.5974,-4.5703,-4.55,-4.4925,-4.4581,-4.4649,-4.4919,-4.4625,-4.4081,-4.3462,-4.259,-4.1492,-4.0585,-3.9884,-3.9481,-3.9403,-3.9403,-3.9403,-3.9373,-3.9228,-3.8767,-3.9192,-3.9261,-3.9247,-3.9297,-3.9499,-3.9732,-3.9828,-3.9709,-3.9409,-3.905,-3.8811,-3.8811,-3.8811,-3.8811,-3.8811,-3.8811,-3.902,-3.929,-3.9403,-3.9403,-3.9373,-3.9403,-3.9403,-3.9403,-3.9403,-3.9403,-3.9403,-3.9403,-3.9523,-3.9792,-3.9905,-4.0084,-4.0307,-4.0134,-4.0044,-4.0187,-4.0636,-4.0636,-4.0546,-4.0487,-4.0576,-4.0576,-4.0217,-4.0068,-3.9888,-3.9582,-3.9493,-3.9403,-3.9403,-3.9463,-3.9553,-3.9768,-3.9888,-4.0098,-4.0487,-4.1055,-4.1175,-4.1504,-4.1923,-4.2234,-4.2988,-4.2966,-4.3139,-4.4933,-4.6031,-4.5678,-4.5524,-4.5904,-4.5906,-4.5399,-4.5292,-4.5326,-4.5089,-4.5122,-4.5069,-4.5005,-4.4441,-4.4221,-4.4255,-4.4391,-4.446,-4.456,-4.566,-4.6335,-4.6822,-4.7615,-4.7888,-4.7781,-4.7501,-4.7313,-4.761,-4.6629,-4.6695,-4.6781,-4.6413,-4.5872,-4.5602,-4.4925,-4.4615,-4.4682,-4.5297,-4.4729,-4.3806,-4.3232,-4.2324,-4.1199,-4.0132,-3.9571,-3.9523,-3.9463,-3.9403,-3.9403,-3.9553,-3.929,-3.8884,-3.9372,-3.9736,-3.956,-3.9699,-4.0031,-4.0397,-4.0457,-4.0277,-3.9679,-3.9589,-3.9529,-3.9493,-3.9493,-3.9403,-3.9313,-3.932,-3.9313,-3.9409,-3.9403,-3.9403,-3.9403,-3.9403,-3.9403,-3.9403,-3.9403,-3.9403,-3.9403,-3.9403,-3.9649,-4.0001,-4.0368,-4.0517,-4.0472,-4.0613,-4.0719,-4.1242,-4.1324,-4.1055,-4.0516,-3.9918,-3.9709,-3.9529,-3.9493,-3.9523,-4.0008,-3.9738,-3.9589,-3.9612,-3.9732,-3.9888,-4.0008,-4.0217,-4.0487,-4.0756,-4.1055,-4.1713,-4.2192,-4.2551,-4.2809,-4.2622,-4.3094,-4.343,-4.4184,-4.5627,-4.626,-4.6175,-4.6296,-4.6641,-4.665,-4.6244,-4.6346,-4.6447,-4.6007,-4.5838,-4.4861,-4.4903,-4.4935,-4.4994,-4.5096,-4.5766,-4.5733,-4.5434,-4.789,-4.8162,-4.7832,-4.8305,-4.8568,-4.8457,-4.834,-4.8232,-4.7877,-4.741,-4.7077,-4.6109,-4.6583,-4.6177,-4.5669,-4.4953,-4.4615,-4.4621,-4.4722,-4.4528,-4.392,-4.2847,-4.2287,-4.2019,-4.0364,-3.9642,-4.0098,-3.9732,-3.9403,-3.9493,-3.9881,-4.0047,-3.9981,-4.042,-4.0793,-4.0715,-4.0882,-4.1025,-4.1115,-4.1175,-4.1085,-4.0876,-4.0516,-4.0277,-4.0187,-4.0187,-3.9978,-3.9589,-3.9433,-3.9403,-3.9403,-3.9403,-3.9403,-3.9463,-3.9403,-3.9403,-3.9403,-3.9403,-3.9403,-3.9403,-3.9403,-3.9493,-3.9732,-3.9661,-4.0234,-4.0763,-4.0494,-4.0321,-4.1002,-4.0935,-4.0606,-4.0457,-4.0606,-4.0726,-4.0217,-4.0127,-4.0098,-4.0098,-3.9978,-3.9768,-3.9918,-4.0157,-4.0337,-4.0516,-4.0876,-4.1175,-4.1354,-4.1683,-4.2282,-4.2731,-4.305,-4.3299,-4.3119,-4.3673,-4.4189,-4.5019,-4.6061,-4.6517,-4.697,-4.6851,-4.7124,-4.7124,-4.7124,-4.709,-4.6989,-4.6684,-4.6752,-4.4358,-4.4856,-4.5437,-4.5713,-4.5961,-4.6775,-4.6786,-4.6562,-4.8043,-4.8488,-4.8016,-4.8494,-4.8937,-4.9138,-4.8972,-4.8837,-4.8982,-4.8495,-4.7707,-4.679,-4.648,-4.6137,-4.5964,-4.5156,-4.4615,-4.4592,-4.4553,-4.4311,-4.3602,-4.2719,-4.2006,-4.2138,-4.0631,-4.0344,-4.0756,-4.0487,-4.0397,-4.0427,-4.0666,-4.0846,-4.0935,-4.1175,-4.1422,-4.1632,-4.1893,-4.2192,-4.1901,-4.1871,-4.2013,-4.2043,-4.1683,-4.1145,-4.0905,-4.0846,-4.0516,-4.0008,-3.9888,-3.9679,-3.9529,-3.9403,-3.9523,-3.9858,-3.9619,-3.9649,-3.9642,-3.9612,-3.9619,-3.9709,-3.9649,-3.9493,-3.9822,-4.0254,-4.0766,-4.1159,-4.133,-4.1292,-4.1257,-4.0816,-4.0247,-4.0098,-4.0127,-4.0127,-4.0068,-4.0247,-4.0397,-4.0277,-4.0756,-4.0606,-4.0666,-4.0876,-4.0965,-4.1175,-4.1632,-4.1901,-4.2021,-4.2312,-4.2821,-4.309,-4.317,-4.329,-4.3238,-4.4188,-4.5195,-4.5897,-4.6486,-4.7756,-4.8138,-4.7943,-4.7733,-4.797,-4.8003,-4.7733,-4.7597,-4.753,-4.7699,-4.409,-4.5079,-4.5901,-4.6414,-4.6776,-4.7264,-4.7098,-4.6738,-4.7286,-4.7557,-4.7621,-4.8227,-4.8829,-4.9415,-4.9008,-4.9567,-5.002,-4.9564,-4.8469,-4.7447,-4.6627,-4.6366,-4.6266,-4.5623,-4.5128,-4.4936,-4.4804,-4.4387,-4.3871,-4.2776,-4.2567,-4.2098,-4.1055,-4.0943,-4.1384,-4.1422,-4.1242,-4.1205,-4.1452,-4.1572,-4.1594,-4.1683,-4.1833,-4.2043,-4.2581,-4.291,-4.2581,-4.2551,-4.2731,-4.323,-4.2821,-4.2282,-4.1833,-4.1504,-4.1145,-4.0516,-4.0457,-4.0277,-3.9858,-3.9798,-4.0068,-4.0516,-4.0098,-4.0038,-4.0307,-4.0217,-4.0187,-4.0157,-4.0127,-3.9828,-4.036,-4.0815,-4.1216,-4.1624,-4.253,-4.2598,-4.1678,-4.0846,-4.0397,-3.9858,-4.0008,-4.0068,-4.0068,-4.0157,-4.0337,-4.0606,-4.1115,-4.1512,-4.1542,-4.1632,-4.1692,-4.1923,-4.2342,-4.2791,-4.294,-4.2761,-4.323,-4.3678,-4.3678,-4.3559,-4.3609,-4.4557,-4.5514,-4.6064,-4.6838,-4.7966,-4.8671,-4.8459,-4.8456,-4.8821,-4.8714,-4.8342,-4.8308,-4.8409,-4.8545,-4.5116,-4.6,-4.6318,-4.6908,-4.7426,-4.6558,-4.6007,-4.5987,-4.6473,-4.6733,-4.6762,-4.751,-4.8497,-4.9189,-4.896,-4.9203,-4.9834,-4.9758,-4.9082,-4.8076,-4.7378,-4.721,-4.6749,-4.6408,-4.6302,-4.6244,-4.5879,-4.5617,-4.5336,-4.4555,-4.3521,-4.3623,-4.2213,-4.1602,-4.1863,-4.1782,-4.1564,-4.1713,-4.1983,-4.2231,-4.2282,-4.2581,-4.2673,-4.2673,-4.3061,-4.317,-4.317,-4.311,-4.32,-4.326,-4.317,-4.309,-4.2821,-4.2432,-4.1683,-4.0935,-4.0995,-4.0935,-4.0397,-4.0696,-4.0995,-4.1175,-4.0973,-4.0973,-4.1123,-4.1063,-4.0846,-4.0905,-4.0666,-4.0337,-4.0397,-4.1018,-4.1347,-4.1723,-4.2357,-4.2758,-4.1723,-4.1265,-4.0935,-4.0367,-4.0277,-4.0247,-4.0367,-4.0576,-4.0905,-4.1205,-4.1594,-4.1983,-4.2162,-4.2321,-4.244,-4.2731,-4.308,-4.3569,-4.3958,-4.3599,-4.3648,-4.4407,-4.4496,-4.4197,-4.4409,-4.503,-4.5721,-4.6234,-4.6781,-4.7638,-4.8193,-4.8576,-4.8861,-4.892,-4.8883,-4.8849,-4.8781,-4.8714,-4.8781,-4.5342,-4.6215,-4.642,-4.6566,-4.6562,-4.5602,-4.4654,-4.4088,-4.4613,-4.5296,-4.5929,-4.6699,-4.7976,-4.9135,-4.9297,-4.9407,-4.9848,-5.071,-5.0099,-4.9007,-4.8448,-4.8137,-4.757,-4.7192,-4.7106,-4.7158,-4.6997,-4.6435,-4.5796,-4.4152,-4.3961,-4.3741,-4.2637,-4.2261,-4.2671,-4.2611,-4.2333,-4.2423,-4.2632,-4.2811,-4.2781,-4.313,-4.2991,-4.267,-4.2981,-4.329,-4.329,-4.329,-4.329,-4.329,-4.329,-4.329,-4.32,-4.3,-4.2402,-4.1654,-4.1722,-4.1632,-4.1055,-4.1235,-4.1362,-4.1324,-4.1145,-4.1085,-4.1212,-4.1123,-4.1145,-4.1324,-4.1662,-4.1302,-4.1033,-4.1196,-4.137,-4.1633,-4.2478,-4.2539,-4.1904,-4.1782,-4.1444,-4.1055,-4.0995,-4.0965,-4.0995,-4.1235,-4.1534,-4.1863,-4.2162,-4.2432,-4.2761,-4.294,-4.306,-4.3359,-4.3678,-4.4227,-4.4586,-4.4407,-4.4336,-4.5035,-4.5214,-4.4915,-4.4907,-4.5414,-4.5878,-4.6306,-4.6921,-4.7634,-4.7967,-4.8485,-4.8738,-4.9086,-4.9086,-4.912,-4.9018,-4.9018,-4.9187,-4.528,-4.5987,-4.6192,-4.5998,-4.5375,-4.4618,-4.3654,-4.2791,-4.3286,-4.4355,-4.5472,-4.6313,-4.772,-4.9198,-4.9771,-4.9955,-5.0105,-5.124,-5.0845,-5.0059,-4.9315,-4.8983,-4.847,-4.7989,-4.7631,-4.8071,-4.8041,-4.7466,-4.6415,-4.4735,-4.4015,-4.3981,-4.332,-4.2761,-4.311,-4.2763,-4.3061,-4.29,-4.267,-4.2659,-4.29,-4.2699,-4.2548,-4.1906,-4.2426,-4.2699,-4.321,-4.2941,-4.3061,-4.321,-4.329,-4.329,-4.329,-4.329,-4.303,-4.256,-4.25,-4.2231,-4.1841,-4.1833,-4.1983,-4.1983,-4.1354,-4.1414,-4.1474,-4.1564,-4.1205,-4.1683,-4.1564,-4.1722,-4.1265,-4.1077,-4.1175,-4.1542,-4.2196,-4.2655,-4.2218,-4.2013,-4.2201,-4.1893,-4.1773,-4.1713,-4.1752,-4.1782,-4.2081,-4.2432,-4.2761,-4.2781,-4.312,-4.3479,-4.3658,-4.3928,-4.4317,-4.4825,-4.5125,-4.5155,-4.5334,-4.5903,-4.5843,-4.5544,-4.5514,-4.5608,-4.5991,-4.6419,-4.7284,-4.795,-4.8166,-4.8724,-4.951,-4.9898,-4.9593,-4.956,-4.983,-4.9898,-4.9965,-4.4992,-4.5248,-4.5473,-4.5202,-4.4609,-4.3717,-4.3276,-4.3108,-4.3547,-4.4796,-4.5953,-4.6858,-4.7938,-4.9365,-5.0325,-5.0615,-5.0758,-5.1067,-5.1228,-5.0832,-5.016,-4.9503,-4.8965,-4.886,-4.8572,-4.8714,-4.8781,-4.8818,-4.7726,-4.6211,-4.5571,-4.5232,-4.3876,-4.32,-4.322,-4.2699,-4.1823,-4.167,-4.0916,-4.0873,-4.1504,-4.0958,-4.1449,-4.1864,-4.1657,-4.1337,-4.267,-4.2467,-4.2467,-4.3101,-4.325,-4.329,-4.329,-4.329,-4.297,-4.2731,-4.2761,-4.291,-4.2351,-4.2551,-4.2701,-4.2641,-4.2641,-4.2901,-4.2521,-4.2192,-4.2043,-4.2931,-4.1803,-4.1175,-4.1227,-4.042,-4.0479,-4.1062,-4.1863,-4.2261,-4.2154,-4.2521,-4.2641,-4.2641,-4.2432,-4.2462,-4.25,-4.25,-4.256,-4.297,-4.326,-4.3349,-4.3529,-4.3928,-4.4436,-4.4766,-4.4975,-4.5484,-4.5873,-4.5873,-4.6082,-4.6681,-4.6471,-4.6172,-4.6202,-4.6142,-4.5999,-4.6528,-4.7524,-4.8537,-4.9104,-4.979,-5.0589,-5.0614,-5.0212,-5.0447,-5.0948,-5.0881,-5.0644,-4.5077,-4.5277,-4.5479,-4.4649,-4.3261,-4.2424,-4.1999,-4.1936,-4.2172,-4.3518,-4.5353,-4.591,-4.7122,-4.8871,-5.0178,-5.0802,-5.0986,-5.1646,-5.2166,-5.181,-5.1082,-5.0373,-4.9998,-4.938,-4.8984,-4.9018,-4.8923,-4.8543,-4.7933,-4.6867,-4.5818,-4.4593,-4.3849,-4.326,-4.325,-4.282,-4.2263,-4.1574,-4.0618,-4.0189,-4.0361,-4.0189,-4.0059,-4.0462,-4.0618,-4.1085,-4.1378,-4.2467,-4.2275,-4.2611,-4.2594,-4.3,-4.303,-4.2761,-4.2282,-4.297,-4.2372,-4.2073,-4.1961,-4.2791,-4.2821,-4.2521,-4.2521,-4.2521,-4.2282,-4.2073,-4.2171,-4.2671,-4.1683,-4.1354,-4.1564,-4.0823,-4.086,-4.1227,-4.1914,-4.2192,-4.2521,-4.2901,-4.314,-4.311,-4.318,-4.3269,-4.3269,-4.321,-4.321,-4.3389,-4.3738,-4.3947,-4.4197,-4.4526,-4.5125,-4.5753,-4.5903,-4.6142,-4.6501,-4.6741,-4.6681,-4.704,-4.704,-4.683,-4.686,-4.6813,-4.6599,-4.7031,-4.8102,-4.9101,-4.9932,-5.0441,-5.0794,-5.0826,-5.0825,-5.1026,-5.126,-5.122,-5.1051,-4.5082,-4.4915,-4.5274,-4.4113,-4.2068,-4.1707,-4.1595,-4.1521,-4.2194,-4.3557,-4.5136,-4.5972,-4.6934,-4.8265,-4.9774,-5.0545,-5.0912,-5.227,-5.2789,-5.2459,-5.1801,-5.0998,-5.0292,-4.9551,-4.9018,-4.8987,-4.8608,-4.8096,-4.7205,-4.6208,-4.5042,-4.3693,-4.3536,-4.3329,-4.321,-4.2739,-4.1988,-4.0419,-3.9711,-3.9404,-3.9448,-3.9404,-3.9139,-3.9288,-3.9814,-4.059,-4.059,-4.0689,-4.0967,-4.246,-4.192,-4.2248,-4.2712,-4.2611,-4.2102,-4.2372,-4.1893,-4.1654,-4.1713,-4.2073,-4.2252,-4.2013,-4.1961,-4.2321,-4.1961,-4.1654,-4.1923,-4.2701,-4.1871,-4.1841,-4.1983,-4.1504,-4.1406,-4.1811,-4.2526,-4.2638,-4.2908,-4.3399,-4.3708,-4.3738,-4.3898,-4.4197,-4.4167,-4.4018,-4.3958,-4.3888,-4.4157,-4.4556,-4.4915,-4.5274,-4.5753,-4.6411,-4.6591,-4.6711,-4.692,-4.7219,-4.7309,-4.7429,-4.7429,-4.7339,-4.7279,-4.7263,-4.7212,-4.7867,-4.8676,-4.9019,-4.9469,-5.0196,-5.0959,-5.1124,-5.129,-5.1261,-5.1329,-5.1462,-5.1693,-4.4673,-4.3624,-4.439,-4.3403,-4.1383,-4.237,-4.2776,-4.2908,-4.4601,-4.5769,-4.676,-4.7606,-4.7936,-4.8563,-4.9297,-5.0178,-5.0839,-5.1683,-5.212,-5.2038,-5.1444,-5.0796,-5.0146,-4.9492,-4.8987,-4.8829,-4.8321,-4.7373,-4.6349,-4.5597,-4.4968,-4.4586,-4.3615,-4.3369,-4.2981,-4.2426,-4.1,-3.9596,-3.8827,-3.8604,-3.8514,-3.8604,-3.8827,-3.9271,-3.905,-3.9244,-4.114,-3.9814,-3.9732,-4.228,-4.1821,-4.1686,-4.2443,-4.2551,-4.2192,-4.1833,-4.1863,-4.1564,-4.1474,-4.1871,-4.2051,-4.1871,-4.1961,-4.2351,-4.2171,-4.2231,-4.2581,-4.2851,-4.2073,-4.1961,-4.2171,-4.2132,-4.2004,-4.2303,-4.292,-4.3309,-4.3539,-4.3968,-4.4287,-4.4377,-4.4586,-4.4825,-4.5095,-4.4945,-4.4676,-4.4616,-4.4934,-4.5334,-4.5813,-4.6172,-4.6501,-4.692,-4.716,-4.7249,-4.7279,-4.7489,-4.7848,-4.7908,-4.7878,-4.7728,-4.7549,-4.7575,-4.7902,-4.8059,-4.8663,-4.883,-4.9056,-4.975,-5.0542,-5.143,-5.1834,-5.1752,-5.2234,-5.2708,-5.2909,-4.3392,-4.2624,-4.4021,-4.3301,-4.1281,-4.2098,-4.2949,-4.3797,-4.4915,-4.608,-4.7186,-4.792,-4.8306,-4.8563,-4.9206,-5.0051,-5.0839,-5.161,-5.196,-5.1872,-5.1419,-5.0689,-5.0004,-4.9436,-4.9018,-4.8798,-4.8031,-4.7138,-4.6208,-4.519,-4.4396,-4.3927,-4.3488,-4.3369,-4.2941,-4.2152,-4.0746,-3.9711,-3.9094,-3.8917,-3.8334,-3.8872,-3.9094,-3.8649,-3.9448,-3.9094,-3.9525,-3.9938,-4.0238,-4.0694,-4.1336,-4.1903,-4.2234,-4.2372,-4.2222,-4.1825,-4.2013,-4.1683,-4.1692,-4.2111,-4.2381,-4.2611,-4.2491,-4.2381,-4.2351,-4.2111,-4.2201,-4.2252,-4.2372,-4.2351,-4.2791,-4.2841,-4.2841,-4.3011,-4.3329,-4.3847,-4.4246,-4.4646,-4.4885,-4.5005,-4.5155,-4.5334,-4.5633,-4.5903,-4.5574,-4.5334,-4.5723,-4.6142,-4.6621,-4.701,-4.7309,-4.7549,-4.7758,-4.7908,-4.7908,-4.8147,-4.8446,-4.8416,-4.8356,-4.8267,-4.8177,-4.855,-4.8745,-4.8771,-4.8665,-4.8953,-4.9255,-4.9475,-5.0082,-5.0852,-5.1619,-5.2248,-5.2937,-5.3855,-5.3957,-4.2619,-4.2539,-4.3963,-4.3403,-4.1722,-4.2452,-4.3334,-4.4212,-4.5093,-4.6194,-4.748,-4.8067,-4.8489,-4.8857,-4.9591,-5.0257,-5.0957,-5.1602,-5.1815,-5.1573,-5.1034,-5.05,-4.9953,-4.9436,-4.9018,-4.8736,-4.7737,-4.6696,-4.6173,-4.4968,-4.409,-4.3566,-4.329,-4.329,-4.305,-4.2222,-4.1169,-4.0575,-3.9536,-3.9404,-3.8738,-3.8917,-3.9404,-3.8783,-3.9492,-3.9371,-3.9191,-3.9587,-4.0069,-4.0399,-4.0949,-4.1952,-4.2136,-4.2222,-4.2282,-4.2312,-4.2252,-4.1991,-4.2231,-4.2231,-4.2402,-4.2641,-4.2551,-4.244,-4.2291,-4.2102,-4.2521,-4.2641,-4.2701,-4.291,-4.3499,-4.3589,-4.3668,-4.3796,-4.4191,-4.4679,-4.5035,-4.5387,-4.5525,-4.5633,-4.5873,-4.6232,-4.6471,-4.68,-4.6681,-4.6501,-4.683,-4.716,-4.7429,-4.7788,-4.8057,-4.8237,-4.8386,-4.8506,-4.8596,-4.8775,-4.8925,-4.8865,-4.8865,-4.903,-4.909,-4.9359,-4.9359,-4.9119,-4.9089,-4.9239,-4.9359,-4.9502,-4.9755,-5.0142,-5.1345,-5.2812,-5.3946,-5.4803,-5.4702,-4.2593,-4.3455,-4.4288,-4.3741,-4.2569,-4.3683,-4.435,-4.4719,-4.5726,-4.6928,-4.806,-4.8265,-4.8669,-4.9365,-4.9927,-5.035,-5.081,-5.1476,-5.1633,-5.1015,-5.0527,-5.0083,-4.9658,-4.9222,-4.8798,-4.8513,-4.7273,-4.6173,-4.6173,-4.4441,-4.3536,-4.3369,-4.329,-4.309,-4.313,-4.2193,-4.1629,-4.114,-3.9112,-3.9492,-3.9139,-3.9121,-3.9777,-3.9798,-4.0198,-4.0031,-3.9428,-3.9632,-4.0069,-4.0244,-4.0984,-4.1843,-4.2303,-4.2811,-4.2671,-4.1863,-4.2252,-4.2381,-4.241,-4.1871,-4.2132,-4.2611,-4.2641,-4.265,-4.265,-4.2851,-4.323,-4.3509,-4.3479,-4.3718,-4.4037,-4.4295,-4.4422,-4.4661,-4.5096,-4.5483,-4.5855,-4.6107,-4.6244,-4.6531,-4.695,-4.7309,-4.7519,-4.7698,-4.7698,-4.7758,-4.7997,-4.8177,-4.8327,-4.8446,-4.87,-4.8835,-4.8955,-4.9164,-4.9254,-4.9314,-4.9419,-4.9389,-4.9509,-4.9703,-4.9703,-4.9763,-4.9673,-4.9479,-4.9629,-4.9883,-4.9659,-4.9419,-5.0285,-5.1304,-5.2324,-5.3648,-5.4823,-5.5546,-5.5446,-4.1835,-4.2692,-4.506,-4.5224,-4.4054,-4.4733,-4.5364,-4.5926,-4.6801,-4.764,-4.8185,-4.7964,-4.8109,-4.8799,-4.9264,-4.978,-5.0281,-5.0336,-5.0397,-5.039,-5.0033,-4.9722,-4.9282,-4.8762,-4.8482,-4.8161,-4.6797,-4.5778,-4.6173,-4.4213,-4.3448,-4.329,-4.315,-4.2386,-4.1864,-4.1449,-4.167,-3.9332,-3.9683,-4.0887,-3.9326,-4.0653,-4.1639,-4.1071,-4.1327,-4.0886,-3.9827,-4.014,-4.0474,-4.0329,-4.0977,-4.2337,-4.2572,-4.303,-4.311,-4.2701,-4.3,-4.3,-4.315,-4.309,-4.318,-4.315,-4.309,-4.3269,-4.3599,-4.3808,-4.4167,-4.4436,-4.4436,-4.4676,-4.4945,-4.4959,-4.5096,-4.5484,-4.5873,-4.6322,-4.6646,-4.6843,-4.707,-4.7519,-4.7938,-4.8237,-4.8476,-4.8596,-4.8626,-4.8716,-4.8925,-4.8895,-4.8985,-4.903,-4.9149,-4.9284,-4.9464,-4.9733,-4.9942,-5.0032,-5.0182,-5.0272,-5.0451,-5.069,-5.0631,-5.0331,-5.0391,-5.0361,-5.0481,-5.0541,-5.0455,-5.0653,-5.1803,-5.2867,-5.3874,-5.4592,-5.5537,-5.6089,-5.6122,-4.201,-4.3146,-4.5697,-4.6109,-4.5179,-4.5692,-4.6094,-4.6404,-4.7181,-4.7843,-4.8113,-4.8336,-4.8713,-4.9017,-4.9257,-4.9316,-4.9934,-4.996,-4.9687,-4.9722,-4.9634,-4.9372,-4.8889,-4.8353,-4.8354,-4.7901,-4.6694,-4.5597,-4.5561,-4.409,-4.3409,-4.327,-4.3097,-4.2366,-4.178,-4.1948,-4.1835,-4.0255,-4.1196,-4.1479,-4.0775,-4.1387,-4.2651,-4.2249,-4.2036,-4.181,-4.1056,-4.1024,-4.141,-4.0834,-4.1535,-4.308,-4.3,-4.324,-4.3589,-4.3648,-4.3888,-4.3947,-4.4167,-4.4317,-4.4287,-4.4137,-4.4018,-4.4227,-4.4556,-4.4616,-4.4825,-4.5065,-4.5334,-4.5484,-4.5592,-4.5615,-4.5896,-4.6316,-4.6856,-4.7233,-4.7472,-4.7668,-4.7997,-4.8476,-4.8716,-4.906,-4.9329,-4.9464,-4.9523,-4.9673,-4.9793,-4.9733,-4.9673,-4.9733,-4.9808,-4.9912,-5.0092,-5.0361,-5.0601,-5.078,-5.096,-5.1169,-5.1229,-5.1152,-5.1169,-5.084,-5.1079,-5.1229,-5.102,-5.0993,-5.1377,-5.197,-5.3044,-5.4259,-5.5419,-5.6014,-5.6387,-5.6596,-5.6799,-4.3084,-4.4654,-4.6143,-4.6312,-4.5805,-4.6196,-4.6157,-4.5676,-4.7061,-4.7571,-4.7551,-4.9552,-4.9792,-4.9716,-5.0304,-5.0277,-4.9896,-4.9866,-4.9536,-4.9222,-4.9165,-4.8984,-4.8829,-4.8545,-4.7933,-4.7306,-4.6279,-4.5005,-4.4737,-4.4061,-4.3509,-4.3398,-4.3284,-4.2931,-4.2905,-4.3008,-4.261,-4.1862,-4.2119,-4.216,-4.1735,-4.2076,-4.2697,-4.2593,-4.2462,-4.1974,-4.1542,-4.1831,-4.1814,-4.1796,-4.2345,-4.3011,-4.3499,-4.3917,-4.4157,-4.4496,-4.4915,-4.5005,-4.5095,-4.5125,-4.5304,-4.5185,-4.5334,-4.5364,-4.5304,-4.5364,-4.5514,-4.5633,-4.5813,-4.6052,-4.619,-4.6459,-4.6728,-4.7249,-4.7892,-4.8191,-4.8371,-4.8626,-4.8985,-4.9254,-4.9404,-4.9613,-4.9763,-4.9972,-5.0212,-5.0361,-5.0421,-5.0451,-5.0451,-5.0631,-5.0661,-5.072,-5.09,-5.105,-5.1199,-5.1169,-5.1169,-5.1229,-5.1229,-5.1229,-5.1229,-5.1229,-5.1229,-5.1229,-5.1229,-5.1403,-5.1865,-5.2883,-5.4189,-5.5375,-5.6407,-5.6932,-5.7171,-5.734,-5.7509,-4.1555,-4.3045,-4.5134,-4.5602,-4.4993,-4.5156,-4.5371,-4.5766,-4.6672,-4.7215,-4.7672,-4.8297,-4.9064,-4.9048,-4.9293,-4.9375,-4.9335,-4.9256,-4.9195,-4.9015,-4.8892,-4.8513,-4.8064,-4.7506,-4.6936,-4.6173,-4.5269,-4.4624,-4.4671,-4.4134,-4.3988,-4.3975,-4.4027,-4.4221,-4.4541,-4.4951,-4.3704,-4.3126,-4.3575,-4.3126,-4.2983,-4.3315,-4.3364,-4.3106,-4.286,-4.2312,-4.2046,-4.2082,-4.1971,-4.1971,-4.2691,-4.3399,-4.4077,-4.4257,-4.4407,-4.4975,-4.5185,-4.5274,-4.5364,-4.5753,-4.6022,-4.6142,-4.6381,-4.6352,-4.6202,-4.6112,-4.6232,-4.6322,-4.6531,-4.683,-4.71,-4.7339,-4.7578,-4.8027,-4.8566,-4.8925,-4.9075,-4.9284,-4.9673,-4.9972,-5.0122,-5.0301,-5.0421,-5.0541,-5.078,-5.093,-5.102,-5.099,-5.102,-5.1139,-5.1199,-5.1229,-5.1229,-5.1229,-5.1229,-5.1199,-5.1199,-5.1229,-5.1229,-5.1229,-5.1229,-5.1229,-5.1229,-5.1276,-5.1386,-5.1865,-5.244,-5.3656,-5.497,-5.5889,-5.6829,-5.745,-5.7881,-5.7881,-5.7881,-4.1597,-4.2894,-4.486,-4.5432,-4.5026,-4.4716,-4.5021,-4.5794,-4.6732,-4.7292,-4.7407,-4.8617,-4.8998,-4.8855,-4.9173,-4.928,-4.9073,-4.9077,-4.9049,-4.8954,-4.8639,-4.8161,-4.7406,-4.6627,-4.6099,-4.5306,-4.4668,-4.4205,-4.4334,-4.4437,-4.4347,-4.4725,-4.5,-4.5268,-4.5505,-4.5532,-4.5026,-4.469,-4.4557,-4.4194,-4.412,-4.4259,-4.4086,-4.3407,-4.3186,-4.3153,-4.276,-4.276,-4.2965,-4.3036,-4.3905,-4.4216,-4.4796,-4.4945,-4.5424,-4.5992,-4.6172,-4.6232,-4.6292,-4.6501,-4.6651,-4.68,-4.71,-4.716,-4.707,-4.695,-4.701,-4.707,-4.7399,-4.7728,-4.7967,-4.8207,-4.8461,-4.873,-4.9134,-4.9613,-4.9793,-4.9942,-5.0242,-5.0554,-5.0794,-5.102,-5.1169,-5.1229,-5.1229,-5.1169,-5.1139,-5.1139,-5.1139,-5.1169,-5.1199,-5.1229,-5.1229,-5.1229,-5.1229,-5.1259,-5.1259,-5.1259,-5.1229,-5.1229,-5.1229,-5.1229,-5.1229,-5.1433,-5.1681,-5.2215,-5.2812,-5.4305,-5.5618,-5.647,-5.7076,-5.7591,-5.7881,-5.7881,-5.7881,-4.2476,-4.34,-4.5032,-4.5669,-4.5602,-4.5089,-4.5229,-4.5925,-4.7208,-4.743,-4.7407,-4.96,-4.9846,-4.9085,-4.9309,-4.932,-4.9138,-4.9018,-4.9018,-4.8923,-4.8161,-4.7638,-4.7138,-4.6521,-4.5452,-4.493,-4.4503,-4.3979,-4.3818,-4.4276,-4.5053,-4.5311,-4.5153,-4.5418,-4.6049,-4.5858,-4.5595,-4.5704,-4.5395,-4.4974,-4.3906,-4.4022,-4.4519,-4.3319,-4.3847,-4.4727,-4.4512,-4.4732,-4.5221,-4.5233,-4.5244,-4.5185,-4.5544,-4.5963,-4.6621,-4.698,-4.71,-4.7219,-4.7279,-4.7489,-4.7549,-4.7549,-4.7489,-4.7848,-4.7938,-4.7638,-4.7578,-4.7878,-4.8207,-4.8327,-4.8536,-4.8925,-4.9254,-4.9494,-4.9853,-5.0182,-5.0391,-5.0541,-5.075,-5.0943,-5.1003,-5.1259,-5.1498,-5.1528,-5.1618,-5.1439,-5.1409,-5.1439,-5.1588,-5.1588,-5.1409,-5.1409,-5.1468,-5.1498,-5.1289,-5.1319,-5.1319,-5.1319,-5.1319,-5.1229,-5.1229,-5.1229,-5.1229,-5.1386,-5.1588,-5.2485,-5.3309,-5.4598,-5.573,-5.6663,-5.7297,-5.7701,-5.7881,-5.7949,-5.7881,-4.0712,-4.2688,-4.4832,-4.5703,-4.5771,-4.6109,-4.6346,-4.6646,-4.7471,-4.7758,-4.786,-4.8821,-4.9359,-4.9138,-4.918,-4.9168,-4.9077,-4.9018,-4.9018,-4.8671,-4.7966,-4.7138,-4.6486,-4.5634,-4.4631,-4.3935,-4.3636,-4.3976,-4.4368,-4.5155,-4.5843,-4.604,-4.5973,-4.638,-4.6267,-4.5989,-4.6129,-4.6249,-4.5836,-4.5263,-4.4284,-4.4444,-4.4798,-4.4044,-4.4401,-4.4744,-4.4625,-4.4474,-4.4845,-4.5066,-4.5233,-4.5544,-4.601,-4.6711,-4.71,-4.7339,-4.7818,-4.7997,-4.8147,-4.8356,-4.8506,-4.87,-4.8716,-4.888,-4.882,-4.8327,-4.8267,-4.8626,-4.8895,-4.8985,-4.9164,-4.9613,-5.0032,-5.0301,-5.0511,-5.0674,-5.0883,-5.1003,-5.1199,-5.1259,-5.1259,-5.1468,-5.1708,-5.1887,-5.1947,-5.2007,-5.2007,-5.2097,-5.2456,-5.2546,-5.1947,-5.1887,-5.1947,-5.1887,-5.1678,-5.1648,-5.1798,-5.1648,-5.1558,-5.1439,-5.1319,-5.1498,-5.1678,-5.1349,-5.1526,-5.2788,-5.3844,-5.4411,-5.5523,-5.6944,-5.7779,-5.8315,-5.8254,-5.8254,-5.8051,-4.0744,-4.2426,-4.4711,-4.5703,-4.5838,-4.6481,-4.6989,-4.7327,-4.7733,-4.8075,-4.8379,-4.8815,-4.9018,-4.9018,-4.9018,-4.9018,-4.9018,-4.9018,-4.9018,-4.8704,-4.7704,-4.6799,-4.5885,-4.4856,-4.409,-4.3399,-4.3748,-4.4227,-4.5095,-4.5651,-4.6249,-4.6369,-4.6741,-4.6741,-4.6309,-4.6279,-4.6279,-4.6249,-4.5873,-4.5424,-4.4825,-4.5065,-4.5185,-4.4686,-4.4899,-4.5171,-4.5378,-4.5296,-4.5747,-4.6032,-4.6219,-4.6651,-4.713,-4.7549,-4.7908,-4.8207,-4.8536,-4.8716,-4.8835,-4.909,-4.9389,-4.9419,-4.9359,-4.9239,-4.9643,-4.9254,-4.9015,-4.9344,-4.9553,-4.9673,-4.9883,-5.0196,-5.0541,-5.081,-5.09,-5.102,-5.1109,-5.1169,-5.1468,-5.1768,-5.1858,-5.2067,-5.2306,-5.2576,-5.2636,-5.2665,-5.2636,-5.2695,-5.3084,-5.3443,-5.2845,-5.2516,-5.2665,-5.2606,-5.2486,-5.2456,-5.2516,-5.2276,-5.1947,-5.2127,-5.2247,-5.2187,-5.2127,-5.2231,-5.2719,-5.384,-5.4719,-5.5445,-5.6461,-5.8043,-5.8612,-5.9032,-5.8829,-5.8693,-5.8829,-4.1262,-4.2571,-4.4884,-4.594,-4.6109,-4.6786,-4.7462,-4.8003,-4.8071,-4.8379,-4.8883,-4.8984,-4.9018,-4.9018,-4.9018,-4.9018,-4.9018,-4.9018,-4.9018,-4.8289,-4.7036,-4.6244,-4.5342,-4.4289,-4.3744,-4.3878,-4.4347,-4.5113,-4.604,-4.6429,-4.6518,-4.6429,-4.6369,-4.6369,-4.6309,-4.6279,-4.6279,-4.6279,-4.61,-4.6022,-4.5723,-4.5454,-4.5454,-4.5663,-4.6022,-4.6411,-4.6651,-4.6847,-4.7219,-4.7459,-4.7489,-4.7848,-4.8087,-4.8356,-4.864,-4.897,-4.9224,-4.9344,-4.9434,-4.9613,-4.9673,-4.9613,-4.9494,-4.9733,-5.0166,-5.0166,-4.9942,-5.0002,-5.0166,-5.0345,-5.0524,-5.0674,-5.0943,-5.1199,-5.1229,-5.1468,-5.1468,-5.1468,-5.1798,-5.2217,-5.2456,-5.2665,-5.2995,-5.3234,-5.3294,-5.3294,-5.3354,-5.3384,-5.3533,-5.3892,-5.3803,-5.3623,-5.3683,-5.3563,-5.3204,-5.3234,-5.3264,-5.2875,-5.2636,-5.2965,-5.323,-5.3217,-5.3381,-5.3645,-5.4236,-5.5308,-5.6279,-5.7134,-5.823,-5.9059,-5.9302,-5.9539,-5.9573,-5.9573,-5.9911,-4.0028,-4.3105,-4.5581,-4.6921,-4.753,-4.824,-4.868,-4.8781,-4.8781,-4.8883,-4.8984,-4.9018,-4.9018,-4.9018,-4.9018,-4.9018,-4.9018,-4.9018,-4.8418,-4.7671,-4.673,-4.5921,-4.5129,-4.4378,-4.3878,-4.4306,-4.5185,-4.5992,-4.6459,-4.683,-4.707,-4.698,-4.698,-4.677,-4.6309,-4.6279,-4.6309,-4.6369,-4.6459,-4.6441,-4.6711,-4.6471,-4.6172,-4.6381,-4.677,-4.701,-4.7189,-4.7249,-4.7608,-4.8057,-4.8506,-4.8805,-4.9015,-4.9105,-4.9284,-4.9583,-4.9853,-5.0002,-5.0122,-5.0361,-5.0451,-5.0541,-5.0541,-5.0601,-5.09,-5.09,-5.075,-5.078,-5.093,-5.0883,-5.1003,-5.102,-5.1199,-5.1319,-5.1409,-5.2037,-5.2366,-5.2276,-5.2336,-5.2725,-5.3054,-5.3414,-5.3862,-5.3952,-5.3922,-5.3982,-5.4102,-5.4192,-5.4551,-5.467,-5.47,-5.467,-5.464,-5.4012,-5.3443,-5.3862,-5.3892,-5.3503,-5.3324,-5.3563,-5.3923,-5.434,-5.4513,-5.4851,-5.5709,-5.6766,-5.7732,-5.8495,-5.9076,-5.9722,-5.9802,-6.0013,-6.0182,-6.0452,-6.0825]},{"header":{"parameterUnit":"m.s-1","parameterCategory":1,"la1":31.0,"la2":29.5877,"lo1":-88.7671,"lo2":-86.6584,"dx":0.0162,"dy":0.0185,"nx":115,"ny":88,"refTime":"2023-01-27T18:00:00:Z","depth":0,"parameterNumber":3,"parameterNumberName":"V-component_of_WINDS"},"data":[0.0,0.0,0.0,0.0,0.0,0.0,0.0,0.0,0.0,0.0,0.0,0.0,0.0,0.0,0.0,0.0,0.0,0.0,0.0,0.0,0.0,0.0,0.0,0.0,0.0,0.0,0.0,0.0,0.0,0.0,0.0,0.0,0.0,0.0,0.0,0.0,0.0,0.0,0.0,0.0,0.0,0.0,0.0,0.0,0.0,0.0,0.0,0.0,0.0,0.0,0.0,0.0,0.0,0.0,0.0,0.0,0.0,0.0,0.0,0.0,0.0,0.0,0.0,0.0,0.0,0.0,0.0,0.0,0.0,0.0,0.0,0.0,0.0,0.0,0.0,0.0,0.0,0.0,0.0,0.0,0.0,0.0,0.0,0.0,0.0,0.0,0.0,0.0,0.0,0.0,0.0,0.0,0.0,0.0,0.0,0.0,0.0,0.0,0.0,0.0,0.0,0.0,0.0,0.0,0.0,0.0,0.0,0.0,0.0,0.0,0.0,0.0,0.0,0.0,0.0,0.0,0.0,0.0,0.0,0.0,0.0,0.0,0.0,0.0,0.0,0.0,0.0,0.0,0.0,0.0,0.0,0.0,0.0,0.0,0.0,0.0,0.0,0.0,0.0,0.0,0.0,0.0,0.0,0.0,0.0,0.0,0.0,0.0,0.0,0.0,0.0,0.0,0.0,0.0,0.0,0.0,0.0,0.0,0.0,0.0,0.0,0.0,0.0,0.0,0.0,0.0,0.0,0.0,0.0,0.0,0.0,0.0,0.0,0.0,0.0,0.0,0.0,0.0,0.0,0.0,0.0,0.0,0.0,0.0,0.0,0.0,0.0,0.0,0.0,0.0,0.0,0.0,0.0,0.0,0.0,0.0,0.0,0.0,0.0,0.0,0.0,0.0,0.0,0.0,0.0,0.0,0.0,0.0,0.0,0.0,0.0,0.0,0.0,0.0,0.0,0.0,0.0,0.0,0.0,0.0,0.0,0.0,0.0,0.0,0.0,0.0,0.0,0.0,0.0,0.0,0.0,0.0,0.0,0.0,0.0,0.0,0.0,0.0,0.0,0.0,0.0,0.0,0.0,0.0,0.0,0.0,0.0,0.0,0.0,0.0,0.0,0.0,0.0,0.0,0.0,0.0,0.0,0.0,0.0,0.0,0.0,0.0,0.0,0.0,0.0,0.0,0.0,0.0,0.0,0.0,0.0,0.0,0.0,0.0,0.0,0.0,0.0,0.0,0.0,0.0,0.0,0.0,0.0,0.0,0.0,0.0,0.0,0.0,0.0,0.0,0.0,0.0,0.0,0.0,0.0,0.0,0.0,0.0,0.0,0.0,0.0,0.0,0.0,0.0,0.0,0.0,0.0,0.0,0.0,0.0,0.0,0.0,0.0,0.0,0.0,0.0,0.0,0.0,0.0,0.0,0.0,0.0,0.0,0.0,0.0,0.0,0.0,0.0,0.0,0.0,0.0,0.0,0.0,0.0,0.0,0.0,0.0,0.0,0.0,0.0,0.0,0.0,0.0,0.0,0.0,0.0,0.0,0.0,0.0,0.0,0.0,0.0,0.0,0.0,0.0,0.0,0.0,0.0,0.0,0.0,0.0,0.0,0.0,0.0,0.0,0.0,0.0,0.0,0.0,0.0,0.0,0.0,0.0,0.0,0.0,0.0,0.0,0.0,0.0,0.0,0.0,0.0,0.0,0.0,0.0,0.0,0.0,0.0,0.0,0.0,0.0,0.0,0.0,0.0,0.0,0.0,0.0,0.0,0.0,0.0,0.0,0.0,0.0,0.0,0.0,0.0,0.0,0.0,0.0,0.0,0.0,0.0,0.0,0.0,0.0,0.0,0.0,0.0,0.0,0.0,0.0,0.0,0.0,0.0,0.0,0.0,0.0,0.0,0.0,0.0,0.0,0.0,0.0,0.0,0.0,0.0,0.0,0.0,0.0,0.0,0.0,0.0,0.0,0.0,0.0,0.0,0.0,0.0,0.0,0.0,0.0,0.0,0.0,0.0,0.0,0.0,0.0,0.0,0.0,0.0,0.0,0.0,0.0,0.0,0.0,0.0,0.0,0.0,0.0,0.0,0.0,0.0,0.0,0.0,0.0,0.0,0.0,0.0,0.0,0.0,0.0,0.0,0.0,0.0,0.0,0.0,0.0,0.0,0.0,0.0,0.0,0.0,0.0,0.0,0.0,0.0,0.0,0.0,0.0,0.0,0.0,0.0,0.0,0.0,0.0,0.0,0.0,0.0,0.0,0.0,0.0,0.0,0.0,0.0,0.0,0.0,0.0,0.0,0.0,0.0,0.0,0.0,0.0,0.0,0.0,0.0,0.0,0.0,0.0,0.0,0.0,0.0,0.0,0.0,0.0,0.0,0.0,0.0,0.0,0.0,0.0,0.0,0.0,0.0,0.0,0.0,0.0,0.0,0.0,0.0,0.0,0.0,0.0,0.0,0.0,0.0,0.0,0.0,0.0,0.0,0.0,0.0,0.0,0.0,0.0,0.0,0.0,0.0,0.0,0.0,0.0,0.0,0.0,0.0,0.0,0.0,0.0,0.0,0.0,0.0,0.0,0.0,0.0,0.0,0.0,0.0,0.0,0.0,0.0,0.0,0.0,0.0,0.0,0.0,0.0,0.0,0.0,0.0,0.0,0.0,0.0,0.0,0.0,0.0,0.0,0.0,0.0,0.0,0.0,0.0,0.0,0.0,0.0,0.0,0.0,0.0,0.0,0.0,0.0,0.0,0.0,0.0,0.0,0.0,0.0,0.0,0.0,0.0,0.0,0.0,0.0,0.0,0.0,0.0,0.0,0.0,0.0,0.0,0.0,0.0,0.0,0.0,0.0,0.0,0.0,0.0,0.0,0.0,0.0,0.0,0.0,0.0,0.0,0.0,0.0,0.0,0.0,0.0,0.0,0.0,0.0,0.0,0.0,0.0,0.0,0.0,0.0,0.0,0.0,0.0,0.0,0.0,0.0,0.0,0.0,0.0,0.0,0.0,0.0,0.0,0.0,0.0,0.0,0.0,0.0,0.0,0.0,0.0,0.0,0.0,0.0,0.0,0.0,0.0,0.0,0.0,0.0,0.0,0.0,0.0,0.0,0.0,0.0,0.0,0.0,0.0,0.0,0.0,0.0,0.0,0.0,0.0,0.0,0.0,0.0,0.0,0.0,0.0,0.0,0.0,0.0,0.0,0.0,0.0,0.0,0.0,0.0,0.0,0.0,0.0,0.0,0.0,0.0,0.0,0.0,0.0,0.0,0.0,0.0,0.0,0.0,0.0,0.0,0.0,0.0,0.0,0.0,0.0,0.0,0.0,0.0,0.0,0.0,0.0,0.0,0.0,0.0,0.0,0.0,0.0,0.0,0.0,0.0,0.0,0.0,0.0,0.0,0.0,0.0,0.0,0.0,0.0,0.0,0.0,0.0,0.0,0.0,0.0,0.0,0.0,0.0,0.0,0.0,0.0,0.0,0.0,0.0,0.0,0.0,0.0,0.0,0.0,0.0,0.0,0.0,0.0,0.0,0.0,0.0,0.0,0.0,0.0,0.0,0.0,0.0,0.0,0.0,0.0,0.0,0.0,0.0,0.0,0.0,0.0,0.0,0.0,0.0,0.0,0.0,0.0,0.0,0.0,0.0,0.0,0.0,0.0,0.0,0.0,0.0,0.0,0.0,0.0,0.0,0.0,0.0,0.0,0.0,0.0,0.0,0.0,0.0,0.0,0.0,0.0,0.0,0.0,0.0,0.0,0.0,0.0,0.0,0.0,0.0,0.0,0.0,0.0,0.0,0.0,0.0,0.0,0.0,0.0,0.0,0.0,0.0,0.0,0.0,0.0,0.0,0.0,0.0,0.0,0.0,0.0,0.0,0.0,0.0,0.0,0.0,0.0,0.0,0.0,0.0,0.0,0.0,0.0,0.0,0.0,0.0,0.0,0.0,0.0,0.0,0.0,0.0,0.0,0.0,0.0,0.0,0.0,0.0,0.0,0.0,0.0,0.0,0.0,0.0,0.0,0.0,0.0,0.0,0.0,0.0,0.0,0.0,0.0,0.0,0.0,0.0,0.0,0.0,0.0,0.0,0.0,0.0,0.0,0.0,0.0,0.0,0.0,0.0,0.0,0.0,0.0,0.0,0.0,0.0,0.0,0.0,0.0,0.0,0.0,0.0,0.0,0.0,0.0,0.0,0.0,0.0,0.0,0.0,0.0,0.0,0.0,0.0,0.0,0.0,0.0,0.0,0.0,0.0,0.0,0.0,0.0,0.0,0.0,3.2472,0.0,0.0,0.0,0.0,0.0,0.0,0.0,0.0,0.0,0.0,0.0,0.0,0.0,0.0,0.0,0.0,0.0,0.0,0.0,0.0,0.0,0.0,0.0,0.0,0.0,0.0,0.0,0.0,0.0,0.0,0.0,0.0,0.0,0.0,0.0,0.0,0.0,0.0,0.0,0.0,0.0,0.0,0.0,0.0,0.0,0.0,0.0,0.0,0.0,0.0,0.0,0.0,0.0,0.0,0.0,0.0,0.0,0.0,0.0,0.0,0.0,0.0,0.0,0.0,0.0,0.0,0.0,0.0,0.0,0.0,0.0,0.0,0.0,0.0,0.0,0.0,0.0,0.0,0.0,0.0,0.0,0.0,0.0,0.0,0.0,0.0,0.0,0.0,0.0,0.0,0.0,0.0,0.0,0.0,0.0,0.0,0.0,0.0,0.0,0.0,0.0,0.0,0.0,0.0,0.0,0.0,0.0,0.0,0.0,0.0,3.3679,3.3488,3.3237,3.3274,3.3451,0.0,0.0,0.0,0.0,0.0,0.0,0.0,0.0,0.0,0.0,0.0,0.0,0.0,0.0,0.0,0.0,0.0,0.0,0.0,0.0,0.0,0.0,0.0,0.0,0.0,0.0,0.0,0.0,0.0,0.0,0.0,0.0,0.0,0.0,0.0,0.0,0.0,0.0,0.0,0.0,0.0,0.0,0.0,0.0,0.0,0.0,0.0,0.0,0.0,0.0,0.0,0.0,0.0,0.0,0.0,0.0,0.0,0.0,0.0,0.0,0.0,0.0,0.0,0.0,0.0,0.0,0.0,0.0,0.0,0.0,0.0,0.0,0.0,0.0,0.0,0.0,0.0,0.0,0.0,0.0,0.0,0.0,0.0,0.0,0.0,0.0,0.0,0.0,0.0,0.0,0.0,0.0,0.0,0.0,0.0,0.0,0.0,0.0,0.0,0.0,0.0,0.0,0.0,0.0,0.0,0.0,0.0,0.0,0.0,0.0,0.0,0.0,3.3475,3.3426,3.4139,0.0,0.0,0.0,0.0,0.0,0.0,0.0,0.0,0.0,0.0,0.0,0.0,0.0,0.0,0.0,0.0,0.0,0.0,0.0,0.0,0.0,0.0,0.0,0.0,0.0,0.0,0.0,0.0,0.0,0.0,0.0,0.0,0.0,0.0,0.0,0.0,0.0,0.0,0.0,0.0,0.0,0.0,0.0,0.0,0.0,0.0,0.0,0.0,0.0,0.0,0.0,0.0,0.0,0.0,0.0,0.0,0.0,0.0,0.0,0.0,0.0,0.0,0.0,0.0,0.0,0.0,0.0,0.0,0.0,0.0,0.0,0.0,0.0,0.0,0.0,0.0,0.0,0.0,0.0,0.0,0.0,0.0,0.0,0.0,0.0,0.0,0.0,0.0,0.0,0.0,0.0,0.0,0.0,0.0,0.0,0.0,0.0,0.0,0.0,0.0,0.0,0.0,0.0,0.0,0.0,0.0,0.0,0.0,0.0,0.0,3.4164,3.42,3.44,0.0,3.4188,0.0,0.0,0.0,0.0,0.0,0.0,0.0,0.0,0.0,0.0,0.0,0.0,0.0,0.0,0.0,0.0,0.0,0.0,0.0,0.0,0.0,0.0,0.0,0.0,0.0,0.0,0.0,0.0,0.0,0.0,0.0,0.0,0.0,0.0,0.0,0.0,0.0,0.0,0.0,0.0,0.0,0.0,0.0,0.0,0.0,0.0,0.0,0.0,0.0,0.0,0.0,0.0,0.0,0.0,0.0,0.0,0.0,0.0,0.0,0.0,0.0,0.0,0.0,0.0,0.0,0.0,0.0,0.0,0.0,0.0,0.0,0.0,0.0,0.0,0.0,0.0,0.0,0.0,0.0,0.0,0.0,0.0,0.0,0.0,0.0,0.0,0.0,0.0,0.0,0.0,0.0,0.0,0.0,0.0,0.0,0.0,0.0,0.0,0.0,0.0,0.0,0.0,0.0,0.0,0.0,0.0,0.0,0.0,0.0,0.0,3.4371,3.4735,3.4841,3.4597,0.0,0.0,0.0,0.0,0.0,0.0,0.0,0.0,0.0,0.0,0.0,0.0,0.0,0.0,0.0,0.0,0.0,0.0,0.0,0.0,0.0,0.0,0.0,0.0,0.0,0.0,0.0,0.0,0.0,0.0,0.0,0.0,0.0,0.0,0.0,0.0,0.0,0.0,0.0,0.0,0.0,0.0,0.0,0.0,0.0,0.0,0.0,0.0,0.0,0.0,0.0,0.0,0.0,0.0,0.0,0.0,0.0,0.0,0.0,0.0,0.0,0.0,0.0,0.0,0.0,0.0,0.0,0.0,0.0,0.0,0.0,0.0,0.0,0.0,0.0,0.0,0.0,0.0,0.0,0.0,0.0,0.0,0.0,0.0,0.0,0.0,0.0,0.0,0.0,0.0,0.0,0.0,0.0,0.0,0.0,0.0,0.0,0.0,0.0,0.0,0.0,0.0,0.0,0.0,0.0,0.0,0.0,0.0,0.0,0.0,3.4281,3.4421,3.4609,3.4745,3.4245,3.3163,0.0,0.0,0.0,0.0,0.0,0.0,0.0,0.0,0.0,0.0,0.0,0.0,0.0,0.0,0.0,0.0,0.0,0.0,0.0,0.0,0.0,0.0,0.0,0.0,0.0,0.0,0.0,0.0,0.0,0.0,0.0,0.0,0.0,0.0,0.0,0.0,0.0,0.0,0.0,0.0,0.0,0.0,0.0,0.0,0.0,0.0,0.0,0.0,0.0,0.0,0.0,0.0,0.0,0.0,0.0,0.0,0.0,0.0,0.0,0.0,0.0,0.0,0.0,0.0,0.0,0.0,0.0,0.0,0.0,0.0,0.0,0.0,0.0,0.0,0.0,0.0,0.0,0.0,0.0,0.0,0.0,0.0,0.0,0.0,0.0,0.0,0.0,0.0,0.0,0.0,0.0,0.0,0.0,0.0,0.0,0.0,0.0,0.0,0.0,0.0,0.0,0.0,0.0,0.0,0.0,0.0,0.0,0.0,3.42,3.4481,3.4242,3.3469,3.3789,3.3364,0.0,0.0,0.0,0.0,0.0,0.0,0.0,0.0,0.0,0.0,0.0,0.0,0.0,0.0,0.0,0.0,0.0,0.0,0.0,0.0,0.0,0.0,0.0,0.0,0.0,0.0,0.0,0.0,0.0,0.0,0.0,0.0,0.0,0.0,0.0,0.0,0.0,0.0,0.0,0.0,0.0,0.0,0.0,0.0,0.0,0.0,0.0,0.0,0.0,0.0,0.0,0.0,0.0,0.0,0.0,0.0,0.0,0.0,0.0,0.0,0.0,0.0,0.0,0.0,0.0,0.0,0.0,0.0,0.0,0.0,0.0,0.0,0.0,0.0,0.0,0.0,0.0,0.0,0.0,0.0,0.0,0.0,0.0,0.0,0.0,0.0,0.0,0.0,0.0,0.0,0.0,0.0,0.0,0.0,0.0,0.0,0.0,0.0,0.0,0.0,0.0,0.0,0.0,0.0,0.0,0.0,0.0,0.0,0.0,3.3698,3.3212,3.3082,3.3252,3.2537,3.2342,0.0,0.0,0.0,0.0,0.0,0.0,0.0,0.0,0.0,0.0,0.0,0.0,0.0,0.0,0.0,0.0,0.0,0.0,0.0,0.0,0.0,0.0,0.0,0.0,0.0,0.0,0.0,0.0,0.0,0.0,0.0,0.0,0.0,0.0,0.0,0.0,0.0,0.0,0.0,0.0,0.0,0.0,0.0,0.0,0.0,0.0,0.0,0.0,0.0,0.0,0.0,0.0,0.0,0.0,0.0,0.0,0.0,0.0,0.0,0.0,0.0,0.0,0.0,0.0,0.0,0.0,0.0,0.0,0.0,0.0,0.0,0.0,0.0,0.0,0.0,0.0,0.0,0.0,0.0,0.0,0.0,0.0,0.0,0.0,0.0,0.0,0.0,0.0,0.0,0.0,0.0,0.0,0.0,0.0,0.0,0.0,0.0,0.0,0.0,0.0,0.0,0.0,0.0,0.0,0.0,0.0,0.0,0.0,0.0,3.3607,0.0,3.3004,3.2586,3.2075,3.1856,0.0,0.0,0.0,0.0,0.0,0.0,0.0,0.0,0.0,0.0,0.0,0.0,0.0,0.0,0.0,0.0,0.0,0.0,0.0,0.0,0.0,0.0,0.0,0.0,0.0,0.0,0.0,0.0,0.0,0.0,0.0,0.0,0.0,0.0,0.0,0.0,0.0,0.0,0.0,0.0,0.0,0.0,0.0,0.0,0.0,0.0,0.0,0.0,0.0,0.0,0.0,0.0,0.0,0.0,0.0,0.0,0.0,0.0,0.0,0.0,0.0,0.0,0.0,0.0,0.0,0.0,0.0,0.0,0.0,0.0,0.0,0.0,0.0,0.0,0.0,0.0,0.0,0.0,0.0,0.0,0.0,0.0,0.0,0.0,0.0,0.0,0.0,0.0,0.0,0.0,0.0,0.0,0.0,0.0,0.0,0.0,0.0,0.0,0.0,0.0,0.0,0.0,0.0,0.0,0.0,0.0,0.0,0.0,3.3474,3.3939,3.491,3.4006,3.1293,3.2426,3.1909,0.0,0.0,0.0,0.0,0.0,0.0,0.0,0.0,0.0,0.0,0.0,0.0,0.0,0.0,0.0,0.0,0.0,0.0,0.0,0.0,0.0,0.0,0.0,0.0,0.0,0.0,0.0,0.0,0.0,0.0,0.0,0.0,0.0,0.0,0.0,0.0,0.0,0.0,0.0,0.0,0.0,0.0,0.0,0.0,0.0,0.0,0.0,0.0,0.0,0.0,0.0,0.0,0.0,0.0,0.0,0.0,0.0,0.0,0.0,0.0,0.0,0.0,0.0,0.0,0.0,0.0,0.0,0.0,0.0,0.0,0.0,0.0,0.0,0.0,0.0,0.0,0.0,0.0,0.0,0.0,0.0,0.0,0.0,0.0,0.0,0.0,0.0,0.0,0.0,0.0,0.0,0.0,0.0,0.0,0.0,0.0,0.0,0.0,0.0,0.0,0.0,0.0,0.0,0.0,0.0,0.0,0.0,0.0,0.0,3.1315,3.2455,3.2703,3.1888,3.132,3.1326,0.0,0.0,0.0,0.0,0.0,0.0,0.0,0.0,0.0,0.0,0.0,0.0,0.0,0.0,0.0,0.0,0.0,0.0,0.0,0.0,0.0,0.0,0.0,0.0,0.0,0.0,0.0,0.0,0.0,0.0,0.0,0.0,0.0,0.0,0.0,0.0,0.0,0.0,0.0,0.0,0.0,0.0,0.0,0.0,0.0,0.0,0.0,0.0,0.0,0.0,0.0,0.0,0.0,0.0,0.0,0.0,0.0,0.0,0.0,0.0,0.0,0.0,0.0,0.0,0.0,0.0,0.0,0.0,0.0,0.0,0.0,0.0,0.0,0.0,0.0,0.0,0.0,0.0,0.0,0.0,0.0,0.0,0.0,0.0,0.0,0.0,0.0,0.0,0.0,0.0,0.0,0.0,0.0,0.0,0.0,0.0,0.0,0.0,0.0,0.0,0.0,0.0,0.0,0.0,0.0,0.0,0.0,0.0,0.0,3.129,3.2896,3.3597,3.3045,3.2178,3.1953,3.2429,0.0,0.0,0.0,0.0,0.0,0.0,0.0,0.0,0.0,0.0,0.0,0.0,0.0,0.0,0.0,0.0,0.0,0.0,0.0,0.0,0.0,0.0,0.0,0.0,0.0,0.0,0.0,0.0,0.0,0.0,0.0,0.0,0.0,0.0,0.0,0.0,0.0,0.0,0.0,0.0,0.0,0.0,0.0,0.0,0.0,0.0,0.0,0.0,0.0,0.0,0.0,0.0,0.0,0.0,0.0,0.0,0.0,0.0,0.0,0.0,0.0,0.0,0.0,0.0,0.0,0.0,0.0,0.0,0.0,0.0,0.0,0.0,0.0,0.0,0.0,0.0,0.0,0.0,0.0,0.0,0.0,0.0,0.0,0.0,0.0,0.0,0.0,0.0,0.0,0.0,0.0,0.0,0.0,0.0,0.0,0.0,0.0,0.0,0.0,0.0,0.0,0.0,0.0,0.0,0.0,0.0,0.0,0.0,3.3263,3.5734,3.6258,3.4671,3.4562,3.3559,0.0,0.0,0.0,0.0,0.0,0.0,0.0,0.0,0.0,0.0,0.0,0.0,0.0,0.0,0.0,0.0,0.0,0.0,0.0,0.0,0.0,0.0,0.0,0.0,0.0,0.0,0.0,0.0,0.0,0.0,0.0,0.0,0.0,0.0,0.0,0.0,0.0,0.0,0.0,0.0,0.0,0.0,0.0,0.0,0.0,0.0,0.0,0.0,0.0,0.0,0.0,0.0,0.0,0.0,0.0,0.0,0.0,0.0,0.0,0.0,0.0,0.0,0.0,0.0,0.0,0.0,0.0,0.0,0.0,0.0,0.0,0.0,0.0,0.0,0.0,0.0,0.0,0.0,0.0,0.0,0.0,0.0,0.0,0.0,0.0,0.0,0.0,0.0,0.0,0.0,0.0,0.0,0.0,0.0,0.0,0.0,0.0,0.0,0.0,0.0,0.0,0.0,0.0,0.0,0.0,0.0,0.0,0.0,0.0,3.5111,3.7461,3.7931,3.6316,3.5206,3.4293,0.0,0.0,0.0,0.0,0.0,0.0,0.0,0.0,0.0,0.0,0.0,0.0,0.0,0.0,0.0,0.0,0.0,0.0,0.0,0.0,0.0,0.0,0.0,0.0,0.0,0.0,0.0,0.0,0.0,0.0,0.0,0.0,0.0,0.0,0.0,0.0,0.0,0.0,0.0,0.0,0.0,0.0,0.0,0.0,0.0,0.0,0.0,0.0,0.0,0.0,0.0,0.0,0.0,0.0,0.0,0.0,0.0,0.0,0.0,0.0,0.0,0.0,0.0,0.0,0.0,0.0,0.0,0.0,0.0,0.0,0.0,0.0,0.0,0.0,0.0,0.0,0.0,0.0,0.0,0.0,0.0,0.0,0.0,0.0,0.0,0.0,0.0,0.0,0.0,0.0,0.0,0.0,0.0,0.0,0.0,0.0,0.0,0.0,0.0,0.0,0.0,0.0,0.0,0.0,0.0,0.0,0.0,0.0,3.3049,3.6006,3.7838,3.865,3.8346,3.6929,3.5639,0.0,0.0,0.0,0.0,0.0,0.0,0.0,0.0,0.0,0.0,0.0,0.0,0.0,0.0,0.0,0.0,0.0,0.0,0.0,0.0,0.0,0.0,0.0,0.0,0.0,0.0,0.0,0.0,0.0,0.0,0.0,0.0,0.0,0.0,0.0,0.0,0.0,0.0,0.0,0.0,0.0,0.0,0.0,0.0,0.0,0.0,0.0,0.0,0.0,0.0,0.0,0.0,0.0,0.0,0.0,0.0,0.0,0.0,0.0,0.0,0.0,0.0,0.0,0.0,0.0,0.0,0.0,0.0,0.0,0.0,0.0,0.0,0.0,0.0,0.0,0.0,0.0,0.0,0.0,0.0,0.0,0.0,0.0,0.0,0.0,0.0,0.0,0.0,0.0,0.0,0.0,0.0,0.0,0.0,0.0,0.0,0.0,0.0,0.0,0.0,0.0,0.0,0.0,0.0,0.0,0.0,0.0,0.0,3.2122,3.6236,3.7478,3.8736,4.0038,3.8684,3.6868,0.0,0.0,0.0,0.0,0.0,0.0,0.0,0.0,0.0,0.0,0.0,0.0,0.0,0.0,0.0,0.0,0.0,0.0,0.0,0.0,0.0,0.0,0.0,0.0,0.0,0.0,0.0,0.0,0.0,0.0,0.0,0.0,0.0,0.0,0.0,0.0,0.0,0.0,0.0,0.0,0.0,0.0,0.0,0.0,0.0,0.0,0.0,0.0,0.0,0.0,0.0,0.0,0.0,0.0,0.0,0.0,0.0,0.0,0.0,0.0,0.0,0.0,0.0,0.0,0.0,0.0,0.0,0.0,0.0,0.0,0.0,0.0,0.0,0.0,0.0,0.0,0.0,0.0,0.0,0.0,0.0,0.0,0.0,0.0,0.0,0.0,0.0,0.0,0.0,0.0,0.0,0.0,0.0,0.0,0.0,0.0,0.0,0.0,0.0,0.0,0.0,0.0,0.0,0.0,0.0,0.0,0.0,0.0,3.1537,3.5659,3.7288,3.8239,3.8492,3.7006,3.5504,0.0,0.0,0.0,0.0,0.0,0.0,0.0,0.0,0.0,0.0,0.0,0.0,0.0,0.0,0.0,0.0,0.0,0.0,0.0,0.0,0.0,0.0,0.0,0.0,0.0,0.0,0.0,0.0,0.0,0.0,0.0,0.0,0.0,0.0,0.0,0.0,0.0,0.0,0.0,0.0,0.0,0.0,0.0,0.0,0.0,0.0,0.0,0.0,-2.5676,0.0,0.0,0.0,0.0,0.0,0.0,0.0,0.0,0.0,0.0,0.0,0.0,0.0,0.0,0.0,0.0,0.0,0.0,0.0,0.0,0.0,0.0,0.0,0.0,0.0,0.0,0.0,0.0,0.0,0.0,0.0,0.0,0.0,0.0,0.0,0.0,0.0,0.0,0.0,0.0,0.0,0.0,0.0,0.0,0.0,0.0,0.0,0.0,0.0,0.0,0.0,0.0,0.0,0.0,0.0,0.0,0.0,0.0,0.0,2.9481,3.4329,3.5382,3.6531,3.7839,3.6486,3.4879,0.0,0.0,0.0,0.0,0.0,0.0,0.0,0.0,0.0,0.0,0.0,0.0,0.0,0.0,0.0,0.0,0.0,0.0,0.0,0.0,0.0,0.0,0.0,0.0,0.0,0.0,0.0,0.0,0.0,0.0,0.0,0.0,0.0,0.0,0.0,0.0,0.0,0.0,0.0,0.0,0.0,0.0,0.0,0.0,0.0,0.0,0.0,0.0,0.0,0.0,0.0,0.0,0.0,0.0,0.0,0.0,0.0,0.0,0.0,0.0,0.0,0.0,0.0,0.0,0.0,0.0,0.0,0.0,0.0,0.0,0.0,0.0,0.0,0.0,0.0,0.0,0.0,0.0,0.0,0.0,0.0,0.0,0.0,0.0,0.0,0.0,0.0,0.0,0.0,0.0,0.0,0.0,0.0,0.0,0.0,0.0,0.0,0.0,0.0,0.0,0.0,0.0,0.0,0.0,0.0,0.0,0.0,2.2829,2.6953,3.2599,3.3073,3.4517,3.737,3.5957,3.413,3.201,0.0,0.0,0.0,0.0,0.0,0.0,0.0,0.0,0.0,0.0,0.0,0.0,0.0,0.0,0.0,0.0,0.0,0.0,0.0,0.0,0.0,0.0,0.0,0.0,0.0,0.0,0.0,0.0,0.0,0.0,0.0,0.0,0.0,0.0,0.0,0.0,0.0,0.0,-2.672,-2.6262,0.0,0.0,0.0,0.0,0.0,0.0,0.0,0.0,-2.2281,0.0,0.0,0.0,0.0,0.0,0.0,0.0,0.0,0.0,0.0,0.0,0.0,0.0,0.0,0.0,0.0,0.0,0.0,0.0,0.0,0.0,0.0,0.0,0.0,0.0,0.0,0.0,0.0,0.0,0.0,0.0,0.0,0.0,0.0,0.0,0.0,0.0,0.0,0.0,0.0,0.0,0.0,0.0,0.0,0.0,0.0,0.0,0.0,0.0,0.0,0.0,0.0,0.0,0.0,0.0,0.0,2.0071,2.142,2.5039,3.1041,3.2002,3.3304,3.5028,3.3885,3.1801,2.9031,0.0,0.0,0.0,0.0,0.0,0.0,0.0,0.0,0.0,0.0,0.0,0.0,0.0,0.0,0.0,0.0,0.0,0.0,0.0,0.0,0.0,0.0,0.0,0.0,0.0,0.0,0.0,0.0,0.0,0.0,0.0,0.0,0.0,0.0,0.0,0.0,0.0,0.0,0.0,-2.675,-2.6569,0.0,0.0,0.0,0.0,0.0,0.0,0.0,0.0,-2.3039,0.0,0.0,0.0,0.0,0.0,0.0,0.0,0.0,0.0,0.0,0.0,0.0,0.0,0.0,0.0,0.0,0.0,0.0,0.0,0.0,0.0,0.0,0.0,0.0,0.0,0.0,0.0,0.0,0.0,0.0,0.0,0.0,0.0,0.0,0.0,0.0,0.0,0.0,0.0,0.0,0.0,0.0,0.0,0.0,0.0,0.0,0.0,0.0,0.0,0.0,0.0,0.0,0.0,0.0,0.0,1.6295,1.864,2.2726,2.8736,2.9898,3.1144,3.2657,3.2315,3.0081,0.0,0.0,0.0,0.0,0.0,0.0,0.0,0.0,0.0,0.0,0.0,0.0,0.0,0.0,0.0,0.0,0.0,0.0,0.0,0.0,0.0,0.0,0.0,0.0,0.0,0.0,0.0,0.0,0.0,0.0,0.0,0.0,0.0,0.0,0.0,0.0,0.0,0.0,0.0,0.0,-2.7248,-2.7385,-2.9033,0.0,0.0,0.0,0.0,0.0,0.0,-2.4014,-2.3202,0.0,0.0,0.0,0.0,0.0,0.0,0.0,0.0,0.0,0.0,0.0,0.0,0.0,0.0,0.0,0.0,0.0,0.0,0.0,0.0,0.0,0.0,0.0,0.0,0.0,0.0,0.0,0.0,0.0,0.0,0.0,0.0,0.0,0.0,0.0,0.0,0.0,0.0,0.0,0.0,0.0,0.0,0.0,0.0,0.0,0.0,0.0,0.0,0.0,0.0,0.0,0.0,0.0,0.0,0.0,1.2616,1.5815,2.0471,2.6506,2.7696,2.8988,3.0717,3.0462,2.802,0.0,0.0,0.0,0.0,0.0,0.0,0.0,0.0,0.0,0.0,0.0,0.0,0.0,0.0,0.0,0.0,0.0,0.0,0.0,0.0,0.0,0.0,0.0,0.0,0.0,0.0,0.0,0.0,0.0,0.0,0.0,0.0,0.0,0.0,0.0,0.0,0.0,0.0,0.0,0.0,0.0,-2.8483,-3.0337,-2.8383,0.0,0.0,0.0,0.0,-2.4978,-2.4688,0.0,0.0,0.0,0.0,0.0,0.0,0.0,0.0,0.0,0.0,0.0,0.0,0.0,0.0,0.0,0.0,0.0,0.0,0.0,0.0,0.0,0.0,0.0,0.0,0.0,0.0,0.0,0.0,0.0,0.0,0.0,0.0,0.0,0.0,0.0,0.0,0.0,0.0,0.0,0.0,0.0,0.0,0.0,0.0,0.0,0.0,0.0,0.0,0.0,0.0,0.0,0.0,0.0,0.0,0.0,0.0,1.0529,1.3807,1.8564,2.4753,2.6052,2.7727,3.0011,2.7525,2.4813,0.0,0.0,0.0,0.0,0.0,0.0,0.0,0.0,0.0,0.0,0.0,0.0,0.0,0.0,0.0,0.0,0.0,0.0,0.0,0.0,0.0,0.0,0.0,0.0,0.0,0.0,0.0,0.0,0.0,0.0,0.0,0.0,0.0,0.0,0.0,0.0,0.0,0.0,0.0,0.0,0.0,-2.9651,-2.8924,-2.8192,-2.7577,0.0,0.0,-2.8875,-2.8103,-2.8899,0.0,0.0,0.0,0.0,0.0,0.0,0.0,0.0,0.0,0.0,0.0,0.0,0.0,0.0,0.0,0.0,0.0,0.0,0.0,0.0,0.0,0.0,0.0,0.0,0.0,0.0,0.0,0.0,0.0,0.0,0.0,0.0,0.0,0.0,0.0,0.0,0.0,0.0,0.0,0.0,0.0,0.0,0.0,0.0,0.0,0.0,0.0,0.0,0.0,0.0,0.0,0.0,0.0,0.0,0.0,0.19,0.7366,1.0141,1.4663,2.1063,2.2265,2.3873,2.6249,2.3857,2.1419,0.0,0.0,0.0,0.0,0.0,0.0,0.0,0.0,0.0,0.0,0.0,0.0,0.0,0.0,0.0,0.0,0.0,0.0,0.0,0.0,0.0,0.0,0.0,0.0,0.0,0.0,0.0,0.0,0.0,0.0,0.0,0.0,0.0,0.0,0.0,0.0,0.0,0.0,0.0,0.0,0.0,0.0,-2.9838,-2.875,0.0,0.0,0.0,-2.8359,-2.7157,0.0,0.0,0.0,0.0,0.0,0.0,0.0,0.0,0.0,0.0,0.0,0.0,0.0,0.0,0.0,0.0,0.0,0.0,0.0,0.0,0.0,0.0,0.0,0.0,0.0,0.0,0.0,0.0,0.0,0.0,0.0,0.0,0.0,0.0,0.0,0.0,0.0,0.0,0.0,0.0,0.0,0.0,0.0,0.0,0.0,0.0,0.0,0.0,0.0,0.0,0.0,0.0,0.0,0.0,0.0,0.0,0.0,0.4456,0.7282,1.1534,1.7175,1.8604,2.0365,2.2561,2.1189,0.0,0.0,0.0,0.0,0.0,0.0,0.0,0.0,0.0,0.0,0.0,0.0,0.0,0.0,0.0,0.0,0.0,0.0,0.0,0.0,0.0,0.0,0.0,0.0,0.0,0.0,0.0,-2.22,0.0,0.0,0.0,0.0,0.0,0.0,0.0,0.0,0.0,0.0,0.0,0.0,0.0,0.0,-3.0377,-3.0449,-2.9499,-2.9171,0.0,0.0,-2.8679,-2.7774,-2.9486,-2.964,0.0,0.0,0.0,0.0,0.0,0.0,0.0,0.0,0.0,0.0,0.0,0.0,0.0,0.0,0.0,0.0,0.0,0.0,0.0,0.0,0.0,0.0,0.0,0.0,0.0,0.0,0.0,0.0,0.0,0.0,0.0,0.0,0.0,0.0,0.0,0.0,0.0,0.0,0.0,0.0,0.0,0.0,0.0,0.0,0.0,0.0,0.0,0.0,0.0,0.0,0.0,0.0,0.0,0.0,-0.0252,0.2265,0.6509,1.0283,1.3777,1.6101,1.8284,2.0327,2.0407,1.8252,0.0,0.0,0.0,0.0,0.0,0.0,0.0,0.0,0.0,0.0,0.0,0.0,0.0,0.0,0.0,0.0,0.0,0.0,0.0,0.0,0.0,0.0,0.0,0.0,0.0,0.0,0.0,0.0,0.0,0.0,0.0,0.0,0.0,0.0,0.0,0.0,0.0,0.0,0.0,0.0,0.0,-3.0614,-2.9717,-3.031,-3.1299,0.0,-3.2207,-3.1873,-3.2587,-3.261,-3.1512,-2.8252,0.0,0.0,0.0,0.0,0.0,0.0,0.0,0.0,0.0,0.0,0.0,0.0,0.0,0.0,0.0,0.0,0.0,0.0,0.0,0.0,0.0,0.0,0.0,0.0,0.0,0.0,0.0,0.0,0.0,0.0,0.0,0.0,0.0,0.0,0.0,0.0,0.0,0.0,0.0,0.0,0.0,0.0,0.0,0.0,0.0,0.0,0.0,0.0,0.0,0.0,0.0,0.0,0.0,-0.4063,-0.1043,0.1744,0.5591,1.0317,1.1445,1.3323,1.626,1.4926,1.2967,0.0,0.0,0.0,0.0,0.0,0.0,0.0,0.0,0.0,0.0,0.0,0.0,0.0,0.0,0.0,0.0,0.0,0.0,0.0,0.0,0.0,0.0,0.0,0.0,0.0,0.0,0.0,0.0,-2.5858,-2.5401,-2.4854,0.0,0.0,0.0,0.0,0.0,0.0,0.0,0.0,0.0,0.0,-3.0948,-3.0863,-3.1191,0.0,0.0,-3.241,-3.1802,-3.1824,-3.153,-3.0228,-2.7133,-2.4866,0.0,0.0,0.0,0.0,0.0,0.0,0.0,0.0,0.0,0.0,0.0,0.0,0.0,0.0,0.0,0.0,0.0,0.0,0.0,0.0,0.0,0.0,0.0,0.0,0.0,0.0,0.0,0.0,0.0,0.0,0.0,0.0,0.0,0.0,0.0,0.0,0.0,0.0,0.0,0.0,0.0,0.0,0.0,0.0,0.0,0.0,0.0,0.0,0.0,0.0,0.0,0.0,-0.6324,-0.3418,-0.1288,0.2017,0.6538,0.7662,0.9516,1.2169,1.1046,0.9643,0.0,0.0,0.0,0.0,0.0,0.0,0.0,0.0,0.0,0.0,0.0,0.0,0.0,0.0,0.0,0.0,0.0,0.0,0.0,0.0,0.0,0.0,0.0,0.0,0.0,0.0,0.0,0.0,-2.6633,-2.6031,-2.5414,0.0,0.0,0.0,0.0,0.0,0.0,0.0,0.0,0.0,0.0,-3.1606,-3.1511,-3.1212,-3.1403,-3.2411,-3.1068,-3.0077,-3.0473,-3.0022,-2.8908,-2.6818,0.0,0.0,0.0,0.0,0.0,0.0,0.0,0.0,0.0,0.0,0.0,0.0,0.0,0.0,0.0,0.0,0.0,0.0,0.0,0.0,0.0,0.0,0.0,0.0,0.0,0.0,0.0,0.0,0.0,0.0,0.2158,0.0,0.0,0.0,0.0,0.0,0.0,0.0,0.0,0.0,0.0,0.0,0.0,0.0,0.0,0.0,0.0,0.0,0.0,0.0,0.0,0.0,0.0,-0.6051,-0.4604,-0.1822,0.0431,0.2033,0.5314,0.7581,0.8776,0.9857,0.932,0.6872,0.0,0.0,0.0,0.0,0.0,0.0,0.0,0.0,0.0,0.0,0.0,0.0,0.0,0.0,0.0,0.0,0.0,0.0,0.0,0.0,0.0,0.0,0.0,0.0,0.0,0.0,-2.5163,-2.5522,-2.5947,0.0,0.0,0.0,0.0,0.0,0.0,0.0,0.0,0.0,-2.9816,-3.1801,-3.2601,-3.121,-3.0208,-3.0038,-3.096,-2.8265,-2.6838,-2.9231,-2.8766,-2.8124,0.0,0.0,0.0,0.0,0.0,0.0,0.0,0.0,0.0,0.0,0.0,0.0,0.0,0.0,0.0,0.0,0.0,0.0,0.0,0.0,0.0,0.0,0.0,0.0,0.0,0.0,0.0,1.0009,0.9464,0.0,0.0,0.0,0.0,0.0,0.0,0.0,0.0,0.0,0.0,0.0,-2.3105,-2.3444,0.0,0.0,0.0,0.0,0.0,0.0,0.0,0.0,0.0,0.0,0.0,0.0,-0.8324,-0.6984,-0.5047,-0.26,0.0383,0.1622,0.3205,0.5221,0.5715,0.4376,0.1064,0.0,0.0,0.0,0.0,0.0,0.0,0.0,0.0,0.0,0.0,0.0,0.0,0.0,0.0,0.0,0.0,0.0,0.0,0.0,0.0,0.0,0.0,0.0,0.0,0.0,-2.7135,0.0,0.0,0.0,0.0,0.0,0.0,0.0,0.0,0.0,0.0,0.0,-2.9188,-3.0472,-3.0394,-3.041,-3.0937,-3.0737,-3.0948,0.0,0.0,0.0,0.0,0.0,0.0,0.0,0.0,0.0,0.0,0.0,0.0,0.0,0.0,-2.4366,-2.3264,-2.3977,-2.4734,-2.4734,0.0,0.0,0.0,0.0,0.0,0.0,0.0,0.0,0.0,0.0,0.0,0.0,0.0,0.0,1.2338,0.0,0.8612,0.0,0.0,0.0,0.0,0.0,0.0,0.0,0.0,-2.1639,-2.3154,-2.4527,-2.4877,-2.503,0.0,-2.4681,-2.4375,0.0,0.0,0.0,0.0,0.0,0.0,0.0,0.0,-1.0768,-0.9559,-0.7699,-0.5259,-0.2335,-0.0877,0.0338,0.1562,0.1572,-0.0048,-0.3442,-0.5625,-0.713,0.0,0.0,0.0,0.0,0.0,0.0,0.0,0.0,0.0,0.0,0.0,0.0,0.0,0.0,0.0,0.0,0.0,0.0,0.0,0.0,0.0,0.0,0.0,-2.8505,0.0,0.0,0.0,0.0,0.0,0.0,0.0,0.0,0.0,-2.9241,-2.9583,-3.029,-3.1274,-3.1025,-3.0621,-3.0227,0.0,0.0,0.0,0.0,0.0,0.0,0.0,-2.6366,-2.654,-2.5641,-2.5309,-2.6627,-2.7424,-2.7609,-2.6844,0.0,0.0,-2.5552,-2.6051,-2.6808,-2.6808,-2.6944,-2.6704,-2.557,-2.4699,-2.3814,0.0,0.0,0.0,0.0,0.0,0.0,0.0,0.0,1.649,1.3506,0.0,0.991,0.0,0.0,0.0,0.0,0.0,-1.6398,0.0,0.0,-2.2517,-2.4044,-2.4565,-2.5558,-2.5989,-2.6041,-2.6757,-2.6513,-2.5404,-2.3554,0.0,0.0,0.0,0.0,0.0,0.0,-1.3094,-1.2133,-0.9535,-0.7468,-0.5973,-0.2432,-0.1062,-0.2224,-0.2358,-0.3654,-0.6372,-0.7796,-0.9647,-1.2192,-1.1977,0.0,0.0,0.0,0.0,0.0,0.0,0.0,0.0,0.0,0.0,0.0,0.0,0.0,0.0,0.0,0.0,0.0,0.0,0.0,0.0,-2.9947,0.0,0.0,0.0,0.0,0.0,0.0,0.0,0.0,0.0,0.0,-3.0452,-3.131,-3.2169,-3.2134,0.0,0.0,0.0,0.0,-2.882,-2.707,-2.504,-2.425,-2.5266,-2.6466,-2.7806,-2.9265,0.0,0.0,-2.921,-2.889,-2.8502,-2.7094,-2.9,-2.9901,-2.7548,-2.7218,-2.7218,-2.7195,-2.7607,-2.7285,-2.6131,-2.6,-2.5453,1.0318,0.0,0.0,0.0,0.0,1.4397,1.6661,1.9554,1.864,1.6272,1.2903,1.1599,0.0,0.0,0.0,0.0,0.0,0.0,-1.9945,-2.1702,-2.4334,-2.595,-2.6733,-2.7853,-2.8227,-2.7876,-2.8073,-2.7755,-2.6969,-2.5378,-2.341,-2.1221,0.0,0.0,0.0,0.0,-1.368,-1.302,-1.1547,-0.9797,-0.7766,-0.6426,-0.5478,-0.4952,-0.5871,-0.7242,-0.9218,-1.1504,-1.3104,-1.3914,-1.5616,0.0,0.0,0.0,0.0,0.0,0.0,0.0,0.0,0.0,0.0,0.0,0.0,0.0,0.0,0.0,0.0,0.0,0.0,0.0,-2.9006,-3.101,-3.1395,0.0,0.0,0.0,0.0,0.0,0.0,0.0,0.0,0.0,-3.2997,-3.2348,-3.1666,0.0,0.0,-2.939,-2.7908,-2.8734,-2.9536,-2.9693,-2.9213,0.0,-3.0663,-2.9732,-2.922,-3.0378,-3.1267,-3.129,-2.9785,-3.0663,-3.1534,-3.122,-3.1871,-3.2129,-3.1497,-3.1265,-3.1241,-3.1332,-3.1412,-3.1076,-2.9875,-2.8969,-2.7934,1.3636,1.462,1.226,1.262,1.4908,1.6066,1.831,2.1174,2.0393,1.7853,1.412,1.2649,0.7388,-0.075,-0.5447,0.0,0.0,0.0,-2.1438,-2.2973,-2.5591,-2.7271,-2.8028,-2.8763,-2.8768,-2.8299,-2.8536,-2.8287,-2.7453,-2.7015,-2.5521,-2.311,0.0,0.0,-1.7399,-1.6067,-1.5372,-1.5154,-1.3794,-1.2302,-1.0765,-0.9954,-0.8943,-0.7832,-0.9412,-1.1119,-1.2893,-1.5034,-1.6553,-1.7379,-1.8713,-1.9837,0.0,0.0,0.0,0.0,0.0,0.0,0.0,0.0,0.0,0.0,0.0,-2.823,-2.5949,0.0,0.0,0.0,-3.1472,-3.1336,-3.1016,-3.2428,0.0,0.0,0.0,0.0,0.0,0.0,0.0,-3.293,-3.3956,-3.4686,-3.4865,-3.3836,-3.28,-3.2018,-3.1163,-3.0212,-2.8934,0.0,-3.0972,-3.0993,-3.0999,-3.1305,-3.217,-3.159,-3.1129,-3.1563,-3.2083,-3.1863,-3.0462,-3.1782,-3.2994,-3.2836,-3.2918,-3.3136,-3.3136,-3.3136,-3.3136,-3.3136,-3.3136,-3.281,-3.2108,-3.0643,-2.9166,1.5918,1.8203,1.2643,1.2404,1.5765,1.6895,1.8935,2.1491,2.1389,1.8195,1.3036,1.2805,0.7264,-0.2416,-0.9992,0.0,-1.4999,-2.0039,-2.2781,-2.3785,-2.6451,-2.8093,-2.8791,-2.8925,-2.8632,-2.8092,-2.8743,-2.8467,-2.7434,-2.833,-2.749,-2.4808,-2.1981,-1.993,-1.8613,-1.7919,-1.7663,-1.7827,-1.6002,-1.4784,-1.4295,-1.279,-1.157,-1.0806,-1.2889,-1.4958,-1.6891,-1.8258,-1.9854,-2.1728,-2.1506,-2.2303,-2.4245,0.0,0.0,0.0,0.0,0.0,0.0,0.0,0.0,0.0,0.0,0.0,0.0,0.0,0.0,0.0,-3.5329,0.0,-3.4607,-3.3989,0.0,0.0,0.0,-3.2562,-3.3872,-3.4796,-3.5542,-3.607,0.0,0.0,-3.6322,-3.5559,-3.4952,-3.4603,-3.443,-3.3563,-3.1366,-3.225,-3.2782,-3.1461,-3.1338,-3.1366,-3.1634,-3.2302,-3.2817,-3.2652,-3.3037,-3.2568,-3.1247,-3.2162,-3.3064,-3.2508,-3.2717,-3.3136,-3.3136,-3.3136,-3.3136,-3.3136,-3.3136,-3.3068,-3.2698,-3.0956,-2.935,1.311,1.4072,1.2576,1.5132,2.0134,2.0461,2.0417,2.0025,1.8948,1.5854,1.146,1.0379,0.4835,-0.4089,-0.9277,-1.3498,-1.6964,-2.0358,-2.3036,-2.5121,-2.7755,-2.9557,-3.0589,-3.1583,-3.173,-3.1192,-3.1321,-3.0566,-2.9,-2.843,-2.703,-2.4861,-2.2617,-2.1051,-2.0175,-1.9964,-1.9216,-1.7938,-1.7223,-1.6166,-1.4693,-1.3337,-1.2972,-1.3763,-1.527,-1.6914,-1.8584,-2.0949,-2.2509,-2.3249,-2.4996,-2.6264,-2.6798,-2.4974,0.0,0.0,0.0,0.0,0.0,0.0,0.0,0.0,0.0,-2.9898,-2.7702,0.0,-3.175,0.0,-3.6479,-3.7235,-3.4698,-3.5216,0.0,0.0,-3.3414,-3.4028,-3.5678,-3.6277,-3.6677,-3.7025,-3.7086,-3.7272,-3.7771,-3.6652,-3.6183,-3.7173,-3.4894,-3.2701,-3.1771,-3.2874,-3.3547,-3.2934,-3.3623,-3.4138,-3.335,-3.2952,-3.2876,-3.3165,-3.2722,-3.2212,-3.1893,-3.218,-3.2634,-3.281,-3.3011,-3.3111,-3.3136,-3.3136,-3.3136,-3.3136,-3.3136,-3.281,-3.1865,-3.0463,-2.9143,1.1793,1.27,1.27,1.467,1.7829,1.7915,1.7527,1.6713,1.5223,1.2895,0.9774,0.5056,-0.0494,-0.6613,-1.1,-1.4638,-1.7632,-2.044,-2.3377,-2.6398,-2.8454,-2.9919,-3.089,-3.1569,-3.132,-3.0209,-3.0209,-2.9702,-2.876,-2.8134,-2.7129,-2.5692,-2.4578,-2.3465,-2.23,-2.0802,-1.9488,-1.8441,-1.7955,-1.7155,-1.6099,-1.5618,-1.5682,-1.6213,-1.8321,-1.9758,-2.0466,-2.293,-2.4205,-2.4129,-2.5478,-2.6555,-2.7119,-2.5966,-2.6058,0.0,0.0,0.0,0.0,0.0,0.0,0.0,0.0,0.0,0.0,0.0,-3.2806,-3.2467,-3.6425,-3.7616,-3.4195,-3.5187,-3.5799,-3.5145,-3.5456,-3.6251,-3.766,-3.7967,-3.8155,-3.8292,-3.8174,-3.8237,-3.877,-3.7789,-3.7352,-3.8297,-3.6307,-3.4542,-3.4065,-3.4612,-3.4915,-3.4361,-3.4928,-3.5281,-3.4519,-3.3578,-3.2983,-3.3036,-3.2567,-3.2137,-3.2172,-3.2441,-3.2717,-3.3036,-3.3136,-3.3136,-3.3136,-3.3136,-3.3136,-3.3025,-3.2655,-3.2021,-3.1311,-3.0283,-2.905,1.1012,1.2248,1.2277,1.2229,1.2192,1.2348,1.266,1.2876,1.1359,0.9486,0.6963,-0.1318,-0.6618,-0.968,-1.3815,-1.6554,-1.8206,-2.095,-2.4196,-2.7649,-2.903,-3.0029,-3.073,-3.0706,-2.9863,-2.8184,-2.8315,-2.814,-2.7701,-2.7833,-2.7477,-2.6643,-2.648,-2.5706,-2.433,-2.1235,-1.9542,-1.936,-1.8612,-1.8114,-1.7943,-1.8467,-1.8532,-1.8198,-2.1122,-2.2577,-2.2229,-2.4322,-2.5278,-2.4872,-2.5041,-2.5757,-2.7008,-2.6571,-2.7344,0.0,-2.886,0.0,0.0,0.0,0.0,0.0,0.0,0.0,0.0,-3.4391,-3.4179,-3.1632,-3.5737,-3.7123,-3.395,-3.4961,-3.6277,-3.7285,-3.7931,-3.8572,-3.9277,-3.9403,-3.9403,-3.9403,-3.9403,-3.9403,-3.9343,-3.8871,-3.8512,-3.8512,-3.7993,-3.7193,-3.6599,-3.6323,-3.6089,-3.5663,-3.538,-3.4923,-3.4568,-3.3742,-3.3014,-3.2896,-3.2525,-3.2215,-3.234,-3.2742,-3.3111,-3.3111,-3.3136,-3.3136,-3.3136,-3.3136,-3.3136,-3.3068,-3.2152,-3.1311,-3.1089,-3.0033,-2.8866,0.9026,0.9324,0.9405,0.8823,0.7768,0.7907,0.9256,1.1359,0.9898,0.5786,-0.0385,-0.5735,-0.965,-1.2573,-1.57,-1.8518,-2.1068,-2.3624,-2.6343,-2.9076,-3.0305,-3.144,-3.2549,-3.2592,-3.1845,-3.0649,-3.1574,-3.054,-2.7653,-2.8626,-2.8047,-2.6069,-2.5249,-2.4711,-2.4518,0.0,0.0,0.0,-2.0187,-1.9894,-1.9873,-1.932,-1.8985,-1.8921,-2.131,0.0,-2.2592,-2.4766,-2.5937,-2.5859,-2.7428,0.0,0.0,0.0,0.0,0.0,0.0,0.0,0.0,0.0,0.0,0.0,-3.4307,-3.4124,-3.2579,-3.3295,-3.3842,-3.3834,-3.5278,-3.6133,-3.6014,-3.7056,-3.7654,-3.7473,-3.8471,-3.9211,-3.9373,-3.9403,-3.9403,-3.9403,-3.9403,-3.9403,-3.9373,-3.9254,-3.9194,-3.9134,-3.9074,-3.8394,-3.6939,-3.6409,-3.616,-3.6149,-3.4992,-3.3872,-3.3723,-3.2703,-3.2448,-3.3034,-3.2752,-3.2432,-3.2792,-3.2968,-3.3111,-3.3136,-3.3136,-3.3136,-3.3136,-3.3136,-3.3136,-3.3136,-3.2064,-3.1178,-3.1134,-2.9442,-2.7861,0.6253,0.0,0.6366,0.5992,0.0,0.4658,0.4845,0.552,0.4816,0.0717,-0.574,-0.9417,-1.2627,-1.5423,-1.758,-2.0046,-2.2767,-2.4673,-2.6913,-2.9396,-3.0619,-3.1533,-3.2152,-3.2152,-3.1223,-2.9487,-3.0102,-2.9096,-2.6812,-2.7247,-2.6972,-2.5792,-2.5078,-2.4789,-2.4806,-2.4092,-2.3074,-2.1759,-2.1496,-2.1284,-2.1065,-2.1857,-2.2064,-2.1733,-2.4503,0.0,0.0,0.0,0.0,0.0,0.0,0.0,0.0,0.0,0.0,-3.2138,-3.2657,-3.2931,-3.2891,-3.367,-3.4453,-3.5179,-3.5536,-3.5217,-3.3924,-3.4911,-3.5431,-3.5022,-3.5921,-3.6692,-3.6985,-3.7737,-3.8262,-3.8397,-3.899,-3.9403,-3.9403,-3.9403,-3.9403,-3.9403,-3.9403,-3.9403,-3.9403,-3.8907,-3.887,-3.9228,-3.8442,-3.7737,-3.742,-3.7528,-3.7399,-3.6358,-3.4916,-3.3786,-3.3553,-3.308,-3.2623,-3.3219,-3.298,-3.281,-3.3018,-3.3136,-3.3136,-3.3136,-3.3136,-3.3136,-3.3136,-3.3136,-3.3136,-3.2939,-3.1601,-3.035,-3.0259,-2.8866,-2.741,0.406,0.3997,0.3793,0.3552,0.3319,0.1848,0.0165,-0.1557,0.0,0.0,0.0,-1.268,-1.5411,-1.7959,-1.9598,-2.1693,-2.4042,-2.5547,-2.7453,-2.9715,-3.1,-3.1557,-3.1533,-3.1533,-3.0283,-2.8002,-2.8143,-2.7342,-2.5791,-2.5917,-2.5917,-2.5703,-2.5293,-2.5086,-2.4969,-2.459,-2.3839,-2.2793,-2.2618,-2.2351,-2.2124,-2.4202,-2.4993,-2.436,-2.7603,-2.8896,-2.798,-2.8672,-2.9176,-2.9475,-2.9027,-2.9467,-3.1062,-3.1923,-3.2554,-3.3006,-3.4685,-3.5639,-3.5519,-3.5609,-3.5968,-3.6596,-3.6656,-3.6387,-3.5729,-3.6847,-3.7,-3.5617,-3.6679,-3.7355,-3.7263,-3.7784,-3.8411,-3.914,-3.9349,-3.9403,-3.9403,-3.9403,-3.9337,-3.9192,-3.9265,-3.9228,-3.8767,-3.8219,-3.7994,-3.8472,-3.7501,-3.6515,-3.7282,-3.782,-3.7427,-3.5423,-3.4382,-3.397,-3.3567,-3.3465,-3.3436,-3.3156,-3.3086,-3.3136,-3.3136,-3.3136,-3.3136,-3.3136,-3.3136,-3.3136,-3.3068,-3.2853,-3.2896,-3.305,-3.0956,-2.9189,-2.9235,-2.8262,-2.6935,0.4289,0.4073,0.2912,0.1645,0.0326,-0.1046,-0.3926,-0.759,-0.7645,-0.9548,-1.2788,-1.5635,-1.7789,-1.9457,-2.1996,-2.3894,-2.5382,-2.7755,-2.9602,-3.1,-3.2239,-3.2828,-3.2853,-3.2828,-3.1557,-2.9372,-3.0169,-2.8936,-2.6159,-2.6744,-2.6812,-2.5761,-2.5293,-2.4883,-2.4531,-2.4453,-2.4322,-2.4117,-2.3377,-2.3134,-2.3503,-2.4115,-2.4618,-2.4998,-2.7264,-2.884,-2.9529,-2.9617,-3.0246,-3.1431,-3.1225,-3.1889,-3.3573,-3.4464,-3.5258,-3.5833,-3.6204,-3.6088,-3.5579,-3.6028,-3.6626,-3.7195,-3.7285,-3.7015,-3.645,-3.6559,-3.6351,-3.5609,-3.6252,-3.6673,-3.6656,-3.7545,-3.8232,-3.8582,-3.9086,-3.9373,-3.9403,-3.9337,-3.9017,-3.8219,-3.887,-3.8554,-3.7214,-3.7291,-3.7367,-3.6933,-3.68,-3.6737,-3.5845,-3.5731,-3.4995,-3.3418,-3.3352,-3.3323,-3.2848,-3.2895,-3.3131,-3.3154,-3.3136,-3.3136,-3.3136,-3.3136,-3.3136,-3.3136,-3.3136,-3.3136,-3.3093,-3.2196,-3.2196,-3.2698,-3.0463,-2.8448,-2.9189,-2.7673,-2.6014,-0.0444,-0.0607,-0.1166,-0.183,-0.2703,-0.4867,-0.8339,-1.2297,-1.2415,-1.3106,-1.4607,-1.737,-1.9443,-2.0845,-2.2818,-2.4798,-2.669,-2.7866,-2.9418,-3.1178,-3.1777,-3.2438,-3.2982,-3.2413,-3.1036,-2.9173,-2.8902,-2.7561,-2.5255,-2.5611,-2.5565,-2.5,-2.4805,-2.4609,-2.4434,-2.4414,-2.4531,-2.4793,-2.5042,-2.5137,-2.5051,-2.6715,-2.7586,-2.7499,-2.9104,-3.0059,-3.0287,-3.0714,-3.1574,-3.2775,-3.2863,-3.3665,-3.5343,-3.5472,-3.5639,-3.5938,-3.5968,-3.5818,-3.5519,-3.6118,-3.6746,-3.7345,-3.7404,-3.7135,-3.6537,-3.6148,-3.5818,-3.5549,-3.6118,-3.6626,-3.6956,-3.7759,-3.8417,-3.8906,-3.923,-3.9373,-3.9301,-3.8833,-3.836,-3.7881,-3.7701,-3.7291,-3.633,-3.616,-3.6279,-3.6093,-3.6138,-3.5467,-3.426,-3.4088,-3.4035,-3.3623,-3.3482,-3.3215,-3.2777,-3.2893,-3.3111,-3.3136,-3.3136,-3.3136,-3.3136,-3.3136,-3.3136,-3.3136,-3.3136,-3.3136,-3.3136,-3.2655,-3.2612,-3.2525,-3.0732,-2.9189,-2.9004,-2.7437,-2.5868,-0.4689,-0.4964,-0.5353,-0.5848,-0.6674,-0.9249,-1.2307,-1.5358,-1.6037,-1.6368,-1.6673,-1.8991,-2.0845,-2.2265,-2.3813,-2.5818,-2.7814,-2.8002,-2.9304,-3.1444,-3.1311,-3.1865,-3.2853,-3.1777,-3.0388,-2.8903,-2.757,-2.6054,-2.4709,-2.4473,-2.4414,-2.4414,-2.4414,-2.4414,-2.4414,-2.4414,-2.459,-2.4996,-2.6521,-2.6992,-2.6382,-2.863,-2.9867,-3.0182,-3.0918,-3.1387,-3.1498,-3.1734,-3.2513,-3.3796,-3.3882,-3.4616,-3.6078,-3.5789,-3.5489,-3.5489,-3.5489,-3.5489,-3.5519,-3.6118,-3.6686,-3.7165,-3.696,-3.6752,-3.6473,-3.5485,-3.5067,-3.5481,-3.6237,-3.6828,-3.7099,-3.8048,-3.868,-3.8769,-3.9145,-3.9126,-3.8694,-3.8144,-3.7548,-3.7165,-3.6554,-3.6132,-3.5534,-3.5034,-3.4938,-3.5197,-3.4815,-3.3995,-3.3283,-3.3136,-3.3471,-3.3869,-3.3641,-3.3172,-3.3136,-3.3111,-3.3136,-3.3136,-3.3136,-3.3136,-3.3136,-3.3136,-3.3136,-3.3136,-3.3136,-3.3136,-3.3093,-3.2742,-3.2568,-3.2351,-3.0463,-2.8819,-2.8262,-2.703,-2.5723,-0.5289,-0.6543,-0.7932,-1.0077,-1.2434,-1.4051,-1.5026,-1.5784,-1.8039,-1.9213,-1.9406,-2.0845,-2.2215,-2.3764,-2.6079,-2.784,-2.9096,-2.9235,-3.0508,-3.2525,-3.1733,-3.1865,-3.2853,-3.1733,-3.0574,-2.9193,-2.7607,-2.611,-2.4891,-2.4551,-2.4414,-2.4414,-2.4414,-2.4434,-2.4434,-2.4434,-2.4453,-2.4519,-2.72,-2.805,-2.6939,-2.7679,-2.9226,-3.1538,-3.1464,-3.2237,-3.3609,-3.2358,-3.2527,-3.4534,-3.3928,-3.4094,-3.5377,-3.5519,-3.5489,-3.5489,-3.5489,-3.5489,-3.5517,-3.6118,-3.6473,-3.6503,-3.5761,-3.5599,-3.6216,-3.4278,-3.3665,-3.5115,-3.6529,-3.6773,-3.6315,-3.7912,-3.8404,-3.7179,-3.823,-3.8657,-3.7127,-3.7319,-3.7088,-3.5142,-3.5654,-3.5494,-3.4011,-3.4137,-3.4304,-3.3784,-3.3641,-3.3411,-3.3197,-3.3136,-3.3111,-3.3283,-3.3111,-3.3111,-3.3136,-3.3136,-3.3136,-3.3136,-3.3136,-3.3136,-3.3136,-3.3136,-3.3136,-3.3136,-3.2939,-3.2939,-3.2853,-3.2239,-3.1488,-3.1356,-2.9715,-2.7552,-2.6476,-2.5917,-2.5674,-1.0015,-1.0607,-1.1222,-1.2641,-1.4598,-1.6025,-1.7134,-1.8105,-1.9958,-2.1253,-2.2064,-2.2617,-2.3185,-2.3881,-2.6416,-2.7861,-2.8355,-2.9096,-3.0328,-3.1777,-3.0732,-3.0822,-3.1689,-2.9943,-2.8534,-2.7534,-2.6115,-2.49,-2.4094,-2.4004,-2.4043,-2.4121,-2.4531,-2.4805,-2.4824,-2.5059,-2.5195,-2.5243,-2.7061,-2.8166,-2.8514,-2.9759,-3.0779,-3.1514,-3.2045,-3.2187,-3.2305,-3.2955,-3.3293,-3.2891,-3.3345,-3.4025,-3.4572,-3.461,-3.4872,-3.5424,-3.5489,-3.541,-3.5234,-3.5463,-3.5878,-3.6443,-3.5062,-3.4434,-3.4884,-3.3536,-3.2975,-3.3772,-3.4918,-3.5842,-3.6593,-3.725,-3.7377,-3.7157,-3.7424,-3.7155,-3.6396,-3.6031,-3.5521,-3.4774,-3.4485,-3.4137,-3.3343,-3.3471,-3.3556,-3.3154,-3.3136,-3.3136,-3.3136,-3.3136,-3.3136,-3.3136,-3.3136,-3.3136,-3.3136,-3.3136,-3.3136,-3.3136,-3.3136,-3.3136,-3.3136,-3.3136,-3.3136,-3.3068,-3.2612,-3.2525,-3.3025,-3.2108,-3.1178,-3.0619,-2.9258,-2.722,-2.5965,-2.5693,-2.5674,-1.3534,-1.3911,-1.4288,-1.5304,-1.662,-1.7607,-1.891,-2.0282,-2.1659,-2.2818,-2.3683,-2.4097,-2.4245,-2.459,-2.6941,-2.8032,-2.8089,-2.9103,-3.0141,-3.0832,-2.9737,-2.9827,-3.0699,-2.8576,-2.7079,-2.6309,-2.5097,-2.4102,-2.353,-2.3789,-2.4023,-2.4219,-2.4812,-2.5184,-2.5273,-2.5538,-2.5868,-2.6332,-2.7458,-2.868,-2.9942,-3.1563,-3.2315,-3.2087,-3.2366,-3.207,-3.1122,-3.283,-3.3156,-3.1709,-3.2904,-3.3739,-3.4007,-3.3979,-3.4312,-3.5001,-3.51,-3.4982,-3.4773,-3.4738,-3.4906,-3.5244,-3.4073,-3.3386,-3.3374,-3.2514,-3.2237,-3.2889,-3.3288,-3.4341,-3.5711,-3.6183,-3.633,-3.6524,-3.6175,-3.6044,-3.5369,-3.4824,-3.4609,-3.4262,-3.3658,-3.3136,-3.3136,-3.3154,-3.3154,-3.3111,-3.3136,-3.3136,-3.3136,-3.3136,-3.3136,-3.3136,-3.3136,-3.3136,-3.3136,-3.3136,-3.3136,-3.3136,-3.3136,-3.3136,-3.3136,-3.3136,-3.2742,-3.2413,-3.1865,-3.1733,-3.2152,-3.1557,-3.0619,-2.9943,-2.8541,-2.6839,-2.5888,-2.5742,-2.5674,-1.4073,-1.5423,-1.6817,-1.808,-1.9369,-1.9524,-2.0333,-2.1693,-2.3018,-2.3701,-2.3949,-2.502,-2.5596,-2.5752,-2.8168,-2.9081,-2.8836,-2.9767,-3.0359,-3.0403,-2.9214,-2.9324,-3.0399,-2.8139,-2.6907,-2.6489,-2.5165,-2.4394,-2.4297,-2.4375,-2.4609,-2.5028,-2.5125,-2.5293,-2.5605,-2.5752,-2.6352,-2.741,-2.8634,-2.9852,-3.1021,-3.2345,-3.3182,-3.332,-3.2275,-3.1789,-3.1785,-3.1227,-3.1357,-3.2442,-3.2558,-3.3017,-3.3842,-3.3945,-3.3979,-3.4047,-3.4047,-3.4041,-3.3997,-3.3957,-3.3722,-3.303,-3.2731,-3.264,-3.2632,-3.1224,-3.1197,-3.3092,-3.2346,-3.23,-3.3276,-3.4896,-3.5251,-3.4079,-3.5156,-3.5102,-3.3539,-3.4189,-3.4163,-3.3513,-3.3197,-3.3136,-3.3136,-3.3136,-3.3136,-3.3136,-3.3136,-3.3136,-3.3136,-3.3136,-3.3136,-3.3136,-3.3136,-3.3136,-3.3136,-3.3136,-3.3136,-3.3136,-3.3136,-3.3136,-3.3136,-3.2982,-3.237,-3.1996,-3.2196,-3.1996,-3.1488,-3.0732,-2.9806,-2.8773,-2.7295,-2.5965,-2.5742,-2.5742,-2.5674,-1.634,-1.6922,-1.829,-1.9176,-1.9782,-2.1456,-2.2517,-2.3117,-2.4412,-2.4971,-2.5069,-2.5479,-2.6159,-2.6982,-2.8634,-2.8454,-2.7186,-2.9349,-3.0091,-2.9255,-2.781,-2.7767,-2.8538,-2.6718,-2.5585,-2.5271,-2.4999,-2.4687,-2.4473,-2.4687,-2.4902,-2.5145,-2.5371,-2.5586,-2.58,-2.6524,-2.7173,-2.7767,-2.9487,-3.0754,-3.1267,-3.2413,-3.3182,-3.3317,-3.3478,-3.2909,-3.1647,-3.2502,-3.2399,-3.0898,-3.1378,-3.1838,-3.22,-3.277,-3.3087,-3.3087,-3.3087,-3.2841,-3.2307,-3.22,-3.2343,-3.2522,-3.1452,-3.1329,-3.1792,-3.1113,-3.0823,-3.1808,-3.2133,-3.2136,-3.2469,-3.3571,-3.422,-3.422,-3.4137,-3.4011,-3.3386,-3.3428,-3.3513,-3.3197,-3.3136,-3.3136,-3.3136,-3.3136,-3.3136,-3.3136,-3.3136,-3.3136,-3.3136,-3.3136,-3.3136,-3.3136,-3.3136,-3.3136,-3.3136,-3.3136,-3.3136,-3.3136,-3.3136,-3.3136,-3.3136,-3.3136,-3.2655,-3.2196,-3.2413,-3.1733,-3.0866,-2.9579,-2.8727,-2.7955,-2.6428,-2.582,-2.5674,-2.5674,-2.5674,-1.8551,-1.9057,-1.9886,-2.0538,-2.11,-2.2885,-2.3949,-2.4412,-2.5284,-2.5674,-2.5674,-2.5674,-2.6207,-2.7078,-2.8262,-2.772,-2.6196,-2.9038,-2.9561,-2.7876,-2.6724,-2.6704,-2.7167,-2.5721,-2.4785,-2.4707,-2.5078,-2.5117,-2.4902,-2.5137,-2.5273,-2.5312,-2.5557,-2.5917,-2.638,-2.722,-2.7861,-2.8912,-3.0395,-3.1356,-3.1821,-3.2612,-3.3136,-3.3197,-3.3784,-3.3328,-3.1477,-3.2712,-3.2535,-3.0739,-3.1341,-3.1834,-3.1719,-3.1974,-3.2128,-3.2155,-3.2128,-3.1874,-3.1341,-3.1325,-3.1607,-3.1904,-3.1354,-3.1177,-3.172,-3.1233,-3.1175,-3.1587,-3.1964,-3.2223,-3.2516,-3.291,-3.3386,-3.3995,-3.3513,-3.3136,-3.3136,-3.3136,-3.3111,-3.3111,-3.3136,-3.3136,-3.3162,-3.3244,-3.3244,-3.3162,-3.3194,-3.3294,-3.3119,-3.3136,-3.3136,-3.3136,-3.3136,-3.3136,-3.3136,-3.3136,-3.3136,-3.3136,-3.3136,-3.3136,-3.3136,-3.3136,-3.2853,-3.2457,-3.1777,-3.1,-2.9897,-2.8588,-2.7767,-2.7173,-2.6476,-2.5723,-2.5674,-2.5674,-2.5674,-2.0385,-2.1456,-2.1693,-2.2366,-2.3335,-2.3881,-2.459,-2.5625,-2.5868,-2.6062,-2.6014,-2.582,-2.5936,-2.6102,-2.7289,-2.6935,-2.6444,-2.8812,-2.8876,-2.6698,-2.6208,-2.6351,-2.6848,-2.5378,-2.4805,-2.5078,-2.5508,-2.5654,-2.5577,-2.5644,-2.5664,-2.5752,-2.5849,-2.6524,-2.7579,-2.7908,-2.8912,-3.053,-3.1223,-3.1865,-3.2896,-3.3068,-3.3136,-3.3111,-3.3172,-3.2643,-3.1486,-3.1559,-3.1533,-3.1296,-3.2357,-3.3019,-3.2363,-3.1726,-3.1257,-3.1357,-3.1257,-3.122,-3.1288,-3.1622,-3.1513,-3.12,-3.1861,-3.2094,-3.162,-3.1493,-3.1637,-3.2114,-3.229,-3.2466,-3.2918,-3.3043,-3.3154,-3.3111,-3.3111,-3.3136,-3.3136,-3.3136,-3.3136,-3.3144,-3.3169,-3.3093,-3.3194,-3.342,-3.3495,-3.3244,-3.342,-3.3545,-3.3169,-3.3136,-3.3136,-3.3136,-3.3136,-3.3136,-3.3136,-3.3136,-3.3136,-3.3136,-3.3136,-3.3136,-3.3136,-3.3068,-3.2525,-3.1996,-3.0732,-2.992,-2.8866,-2.7673,-2.6982,-2.638,-2.5917,-2.5674,-2.5674,-2.5674,-2.5674,-2.1304,-2.1811,-2.2717,-2.3285,-2.393,-2.5577,-2.6675,-2.7078,-2.784,-2.7767,-2.7125,-2.6982,-2.6685,-2.6477,-2.7195,-2.6907,-2.5917,-2.7598,-2.7914,-2.6977,-2.5918,-2.5884,-2.6398,-2.5737,-2.5343,-2.5527,-2.5615,-2.5674,-2.5674,-2.5723,-2.611,-2.686,-2.6982,-2.7673,-2.8819,-2.967,-3.0598,-3.1178,-3.2108,-3.2742,-3.3068,-3.3136,-3.3136,-3.3086,-3.2692,-3.229,-3.1989,-3.1964,-3.1533,-3.0867,-3.1576,-3.2071,-3.202,-3.1292,-3.11,-3.1584,-3.11,-3.0981,-3.1286,-3.1505,-3.1512,-3.1281,-3.1635,-3.1889,-3.193,-3.1964,-3.2215,-3.2692,-3.2817,-3.2918,-3.3043,-3.3136,-3.3136,-3.3136,-3.3136,-3.3136,-3.3212,-3.3463,-3.3621,-3.3646,-3.3646,-3.3646,-3.3571,-3.3621,-3.3319,-3.3144,-3.3269,-3.3269,-3.3187,-3.3136,-3.3136,-3.3136,-3.3136,-3.3136,-3.3136,-3.3162,-3.3144,-3.3187,-3.3187,-3.3136,-3.3136,-3.2982,-3.2413,-3.1311,-3.0056,-2.8866,-2.7814,-2.6935,-2.6284,-2.6014,-2.5771,-2.5674,-2.5674,-2.5674,-2.5674,-2.2976,-2.358,-2.4677,-2.5158,-2.5382,-2.7463,-2.8283,-2.8308,-2.8541,-2.8369,-2.7809,-2.7345,-2.6878,-2.6586,-2.6936,-2.6689,-2.6055,-2.6653,-2.7125,-2.7183,-2.5821,-2.5563,-2.6222,-2.5904,-2.5674,-2.5674,-2.5674,-2.5674,-2.5723,-2.6207,-2.6812,-2.7505,-2.8049,-2.8866,-2.9988,-3.0754,-3.1356,-3.1909,-3.2698,-3.3283,-3.3513,-3.3326,-3.3283,-3.3505,-3.2971,-3.2566,-3.2541,-3.2541,-3.2039,-3.1185,-3.1235,-3.1643,-3.2136,-3.1496,-3.1179,-3.147,-3.1323,-3.106,-3.1361,-3.1644,-3.1687,-3.1712,-3.1888,-3.2164,-3.2466,-3.2541,-3.2742,-3.3036,-3.3111,-3.3136,-3.3136,-3.3294,-3.3294,-3.3136,-3.3136,-3.3169,-3.3345,-3.3671,-3.3872,-3.3822,-3.3696,-3.3621,-3.3495,-3.3596,-3.3244,-3.3169,-3.3244,-3.3244,-3.3212,-3.3136,-3.3136,-3.3136,-3.3136,-3.3136,-3.3136,-3.3162,-3.3194,-3.3219,-3.3244,-3.3187,-3.3136,-3.3068,-3.2655,-3.1134,-2.9715,-2.8541,-2.7458,-2.6524,-2.5771,-2.5674,-2.5713,-2.5674,-2.5674,-2.5674,-2.5674,-2.5478,-2.6695,-2.7448,-2.7689,-2.7783,-2.8885,-2.9324,-2.9209,-2.8459,-2.8148,-2.8008,-2.7308,-2.6695,-2.6534,-2.6665,-2.6526,-2.6397,-2.6094,-2.6546,-2.6901,-2.6065,-2.5593,-2.5859,-2.5762,-2.5674,-2.5674,-2.5674,-2.5674,-2.5742,-2.686,-2.7626,-2.7908,-2.9004,-3.0079,-3.1134,-3.1356,-3.1952,-3.2785,-3.3068,-3.3556,-3.4304,-3.3598,-3.3471,-3.4304,-3.3505,-3.3036,-3.2993,-3.3011,-3.2608,-3.1662,-3.1537,-3.1868,-3.2368,-3.1898,-3.1477,-3.1574,-3.1477,-3.1512,-3.1612,-3.2014,-3.2265,-3.2315,-3.2667,-3.3111,-3.3036,-3.2968,-3.2993,-3.3111,-3.3136,-3.3136,-3.3212,-3.342,-3.3495,-3.3287,-3.3187,-3.3338,-3.3746,-3.3847,-3.3897,-3.3847,-3.347,-3.3262,-3.3395,-3.3696,-3.3545,-3.3395,-3.3495,-3.3395,-3.3262,-3.3136,-3.3136,-3.3136,-3.3136,-3.3136,-3.3136,-3.337,-3.3445,-3.3545,-3.3621,-3.3646,-3.3165,-3.294,-3.2728,-3.1168,-2.9276,-2.8134,-2.7372,-2.6589,-2.5996,-2.5869,-2.583,-2.5732,-2.5693,-2.5693,-2.5713,-2.9445,-2.9763,-2.9591,-2.9534,-2.9534,-2.9793,-2.984,-2.9838,-2.9862,-2.9219,-2.8705,-2.833,-2.7733,-2.7369,-2.6973,-2.6855,-2.6668,-2.6387,-2.6309,-2.6602,-2.6328,-2.6094,-2.6113,-2.583,-2.5674,-2.5674,-2.5713,-2.5674,-2.5791,-2.7098,-2.8096,-2.8958,-3.0124,-3.1311,-3.2438,-3.2525,-3.2742,-3.3025,-3.3136,-3.324,-3.3471,-3.3326,-3.324,-3.3411,-3.3283,-3.3136,-3.3136,-3.3136,-3.2993,-3.2667,-3.2215,-3.2072,-3.2361,-3.2155,-3.1989,-3.1989,-3.2014,-3.219,-3.2541,-3.2717,-3.2817,-3.2842,-3.3011,-3.3111,-3.3136,-3.3136,-3.3136,-3.3136,-3.3136,-3.3136,-3.3162,-3.3287,-3.3438,-3.3621,-3.337,-3.3219,-3.342,-3.3646,-3.3897,-3.3922,-3.4073,-3.4098,-3.4048,-3.3922,-3.3796,-3.3621,-3.3445,-3.3319,-3.3187,-3.3136,-3.3136,-3.3136,-3.3136,-3.3136,-3.3237,-3.352,-3.3746,-3.3872,-3.4098,-3.4449,-3.358,-3.2663,-3.2311,-3.1504,-2.8769,-2.7175,-2.7321,-2.7138,-2.6754,-2.6191,-2.5927,-2.583,-2.5752,-2.5713,-2.5771,-3.1285,-3.124,-3.0698,-3.0496,-3.0496,-3.0354,-3.0284,-3.0256,-2.9947,-2.9642,-2.9044,-2.8502,-2.7677,-2.665,-2.6853,-2.6634,-2.6199,-2.6311,-2.6602,-2.6855,-2.6543,-2.6387,-2.6269,-2.5937,-2.5674,-2.5713,-2.5869,-2.622,-2.6749,-2.7889,-2.9135,-3.0215,-3.1424,-3.237,-3.2982,-3.3136,-3.3136,-3.3136,-3.3111,-3.3283,-3.37,-3.3326,-3.3606,-3.3743,-3.3563,-3.3144,-3.3413,-3.342,-3.3319,-3.3068,-3.2767,-3.2566,-3.2566,-3.2566,-3.2566,-3.2566,-3.2566,-3.2742,-3.2968,-3.3136,-3.3136,-3.3111,-3.3136,-3.3136,-3.3136,-3.3136,-3.3136,-3.3136,-3.3136,-3.3237,-3.3463,-3.3633,-3.3784,-3.3822,-3.3602,-3.3527,-3.3721,-3.4098,-3.4098,-3.4022,-3.3972,-3.4048,-3.4048,-3.3746,-3.3621,-3.347,-3.3287,-3.3212,-3.3136,-3.3136,-3.3187,-3.3262,-3.337,-3.347,-3.3646,-3.3972,-3.4449,-3.455,-3.4826,-3.5177,-3.4124,-3.2912,-3.223,-3.1271,-2.8488,-2.6912,-2.7582,-2.776,-2.6972,-2.6504,-2.6211,-2.6083,-2.6103,-2.5966,-2.5986,-3.1999,-3.1954,-3.1263,-3.0964,-3.0916,-3.0652,-3.0414,-3.0198,-2.9019,-2.8603,-2.8482,-2.7838,-2.6409,-2.4873,-2.606,-2.6158,-2.5115,-2.578,-2.6621,-2.6941,-2.6797,-2.6484,-2.6328,-2.5937,-2.5693,-2.5732,-2.6152,-2.681,-2.7639,-2.9092,-3.0399,-3.1329,-3.2498,-3.3057,-3.3237,-3.3187,-3.3136,-3.3136,-3.3262,-3.3631,-3.41,-3.3776,-3.4012,-3.4693,-3.4056,-3.3664,-3.3897,-3.3947,-3.3796,-3.3294,-3.3219,-3.3169,-3.3212,-3.3212,-3.3136,-3.3061,-3.2993,-3.3061,-3.3068,-3.3136,-3.3136,-3.3136,-3.3136,-3.3136,-3.3136,-3.3136,-3.3136,-3.3136,-3.3136,-3.3269,-3.3639,-3.4174,-3.43,-3.4111,-3.4003,-3.4243,-3.453,-3.4675,-3.4449,-3.3997,-3.3495,-3.3319,-3.3169,-3.3212,-3.3237,-3.3571,-3.3345,-3.3219,-3.3312,-3.3413,-3.347,-3.3571,-3.3746,-3.3972,-3.4198,-3.4449,-3.5002,-3.5403,-3.5705,-3.5762,-3.4823,-3.3669,-3.2653,-3.1154,-2.8998,-2.8279,-2.8714,-2.837,-2.7337,-2.6934,-2.6699,-2.6758,-2.6816,-2.6562,-2.6465,-3.3805,-3.3684,-3.2052,-3.1359,-3.1212,-3.022,-2.9558,-2.9084,-2.7441,-2.6559,-2.6106,-2.5887,-2.488,-2.3438,-2.4897,-2.5443,-2.4857,-2.5076,-2.5694,-2.6621,-2.6894,-2.666,-2.6367,-2.5888,-2.5693,-2.5762,-2.582,-2.6689,-2.8115,-2.9242,-3.0583,-3.2315,-3.2832,-3.3338,-3.3646,-3.3413,-3.3136,-3.3212,-3.3539,-3.3827,-3.4147,-3.4294,-3.4457,-3.4851,-3.4533,-3.4424,-3.45,-3.455,-3.4474,-3.4299,-3.3997,-3.3796,-3.3721,-3.3721,-3.3545,-3.3219,-3.3162,-3.3136,-3.3136,-3.3136,-3.3136,-3.3187,-3.3136,-3.3136,-3.3136,-3.3136,-3.3136,-3.3136,-3.3136,-3.3212,-3.3413,-3.3799,-3.4211,-3.4432,-3.4508,-3.459,-3.4634,-3.4349,-3.4073,-3.3947,-3.4073,-3.4173,-3.3746,-3.3671,-3.3646,-3.3646,-3.3545,-3.337,-3.3495,-3.3696,-3.3847,-3.3997,-3.4299,-3.455,-3.47,-3.4977,-3.5479,-3.5855,-3.6204,-3.6332,-3.5387,-3.4198,-3.3073,-3.1596,-2.9841,-2.9492,-2.9137,-2.836,-2.7207,-2.7207,-2.7207,-2.7187,-2.7129,-2.6953,-2.6992,-3.4969,-3.4264,-3.256,-3.1418,-3.0493,-2.9228,-2.8391,-2.7702,-2.6289,-2.5376,-2.4929,-2.4509,-2.3342,-2.2071,-2.3359,-2.3819,-2.3429,-2.3718,-2.4505,-2.5405,-2.5566,-2.5377,-2.561,-2.5613,-2.5693,-2.581,-2.6572,-2.7421,-2.8248,-2.9704,-3.1296,-3.248,-3.3123,-3.3778,-3.4198,-3.3972,-3.3897,-3.3922,-3.4123,-3.4274,-3.4349,-3.455,-3.468,-3.4856,-3.5152,-3.5403,-3.5082,-3.5056,-3.5253,-3.5278,-3.4977,-3.4525,-3.4324,-3.4274,-3.3997,-3.3571,-3.347,-3.3294,-3.3169,-3.3136,-3.3237,-3.3445,-3.3244,-3.3269,-3.3338,-3.3312,-3.3244,-3.3319,-3.3269,-3.3212,-3.3488,-3.4608,-3.4971,-3.469,-3.4911,-3.4956,-3.4695,-3.4248,-3.3771,-3.3646,-3.3671,-3.3671,-3.3621,-3.3771,-3.3897,-3.3796,-3.4198,-3.4073,-3.4123,-3.4299,-3.4374,-3.455,-3.4856,-3.5082,-3.5182,-3.5504,-3.5931,-3.6157,-3.6304,-3.6405,-3.6041,-3.4679,-3.329,-3.184,-3.0477,-2.9051,-2.8568,-2.7819,-2.7559,-2.7695,-2.7715,-2.7559,-2.748,-2.7441,-2.7539,-3.5307,-3.397,-3.2514,-3.094,-2.93,-2.805,-2.7329,-2.6781,-2.5474,-2.4625,-2.433,-2.3197,-2.1996,-2.0848,-2.1692,-2.1681,-2.162,-2.2457,-2.3771,-2.4241,-2.4467,-2.4459,-2.473,-2.5419,-2.6055,-2.6075,-2.6988,-2.7669,-2.8695,-3.0371,-3.1786,-3.2596,-3.3469,-3.4279,-3.4726,-3.468,-3.453,-3.4575,-3.4705,-3.4806,-3.4901,-3.4977,-3.5102,-3.5278,-3.573,-3.6006,-3.573,-3.5705,-3.5855,-3.6355,-3.5931,-3.5479,-3.5102,-3.4826,-3.4525,-3.3997,-3.3947,-3.3796,-3.3445,-3.3395,-3.3621,-3.3997,-3.3646,-3.3596,-3.3822,-3.3746,-3.3721,-3.3696,-3.3671,-3.342,-3.3941,-3.4552,-3.5046,-3.4926,-3.5059,-3.5037,-3.474,-3.4274,-3.3897,-3.3445,-3.3571,-3.3621,-3.3621,-3.3696,-3.3847,-3.4073,-3.45,-3.4756,-3.4781,-3.4856,-3.4906,-3.5177,-3.5529,-3.5906,-3.6031,-3.5881,-3.6355,-3.6732,-3.6732,-3.6631,-3.6511,-3.5284,-3.391,-3.2555,-3.1149,-2.9755,-2.8741,-2.8331,-2.8259,-2.8329,-2.8125,-2.791,-2.7891,-2.7949,-2.8027,-3.392,-3.2509,-3.0803,-2.9311,-2.8006,-2.7016,-2.6562,-2.6284,-2.484,-2.3491,-2.2367,-2.2154,-2.0711,-1.9438,-1.9905,-2.0443,-2.0961,-2.2024,-2.2757,-2.306,-2.3686,-2.4445,-2.4401,-2.5857,-2.6598,-2.6699,-2.7092,-2.7681,-2.9091,-3.0551,-3.2204,-3.3625,-3.4336,-3.4831,-3.5127,-3.4981,-3.4876,-3.5002,-3.5228,-3.5357,-3.5479,-3.573,-3.6045,-3.6045,-3.6373,-3.6304,-3.6304,-3.6254,-3.6329,-3.638,-3.6304,-3.6157,-3.5931,-3.5604,-3.4977,-3.4349,-3.4399,-3.4349,-3.3897,-3.4148,-3.4399,-3.455,-3.4304,-3.4304,-3.443,-3.4379,-3.4274,-3.4324,-3.4123,-3.3847,-3.3897,-3.419,-3.416,-3.4318,-3.453,-3.447,-3.4624,-3.4625,-3.4349,-3.3872,-3.3796,-3.3771,-3.3872,-3.4048,-3.4324,-3.4575,-3.4901,-3.5228,-3.5378,-3.5433,-3.5533,-3.5855,-3.6229,-3.6558,-3.6885,-3.6584,-3.6707,-3.7262,-3.7337,-3.7086,-3.6771,-3.5819,-3.461,-3.3591,-3.2002,-3.0276,-2.946,-2.89,-2.8495,-2.8315,-2.8223,-2.8203,-2.8164,-2.8125,-2.8164,-3.3552,-3.2135,-3.0434,-2.8676,-2.7086,-2.6328,-2.5781,-2.5198,-2.3846,-2.2522,-2.1478,-2.0731,-1.9628,-1.8493,-1.8616,-1.9524,-2.052,-2.0682,-2.1137,-2.15,-2.2914,-2.3738,-2.3912,-2.5891,-2.6924,-2.7226,-2.727,-2.7763,-2.9387,-3.1131,-3.2529,-3.3792,-3.4681,-3.5382,-3.5805,-3.5755,-3.56,-3.5676,-3.5852,-3.6003,-3.5977,-3.6351,-3.6637,-3.701,-3.6709,-3.6405,-3.6405,-3.6405,-3.6405,-3.6405,-3.6405,-3.6405,-3.6329,-3.6081,-3.5579,-3.4951,-3.4931,-3.4856,-3.4449,-3.46,-3.463,-3.4675,-3.4525,-3.4474,-3.4505,-3.443,-3.4525,-3.4675,-3.4881,-3.458,-3.4354,-3.4035,-3.4255,-3.4549,-3.4629,-3.4678,-3.4774,-3.4981,-3.4776,-3.4449,-3.4399,-3.4374,-3.4399,-3.46,-3.4851,-3.5127,-3.5378,-3.5604,-3.5881,-3.6031,-3.6132,-3.6383,-3.6732,-3.7111,-3.7412,-3.7262,-3.7285,-3.7789,-3.7939,-3.7688,-3.7515,-3.6776,-3.6006,-3.5132,-3.3237,-3.0934,-2.99,-2.9205,-2.8781,-2.834,-2.834,-2.8359,-2.8301,-2.8301,-2.8398,-3.3505,-3.2051,-3.0285,-2.8257,-2.6329,-2.5373,-2.4698,-2.3841,-2.2593,-2.1514,-2.0603,-1.9659,-1.8797,-1.8211,-1.8238,-1.8864,-1.999,-1.9222,-1.9709,-2.0927,-2.2344,-2.2971,-2.4034,-2.5651,-2.75,-2.7754,-2.7806,-2.8169,-2.9215,-3.1251,-3.2718,-3.3672,-3.4768,-3.5881,-3.6254,-3.6603,-3.6615,-3.6803,-3.701,-3.7083,-3.6803,-3.7036,-3.715,-3.7815,-3.7289,-3.7036,-3.6499,-3.6756,-3.6615,-3.6499,-3.6405,-3.6405,-3.6405,-3.6405,-3.6107,-3.5633,-3.5583,-3.5357,-3.5031,-3.5102,-3.5228,-3.5228,-3.47,-3.4751,-3.4801,-3.4876,-3.4575,-3.4977,-3.4876,-3.4931,-3.4625,-3.4544,-3.455,-3.4781,-3.5094,-3.5397,-3.519,-3.5253,-3.5332,-3.5152,-3.5052,-3.5002,-3.4956,-3.4981,-3.5232,-3.5604,-3.5881,-3.5977,-3.6182,-3.6483,-3.6634,-3.686,-3.7186,-3.7613,-3.7864,-3.7889,-3.804,-3.8517,-3.8467,-3.8216,-3.8191,-3.8016,-3.7243,-3.6266,-3.3805,-3.1662,-3.0611,-2.9639,-2.9164,-2.8809,-2.8633,-2.8613,-2.8769,-2.8809,-2.8848,-3.3368,-3.1609,-2.9813,-2.7836,-2.5625,-2.386,-2.295,-2.268,-2.1475,-2.0297,-1.9506,-1.9469,-1.8883,-1.8212,-1.8317,-1.8547,-1.8725,-1.8903,-1.9473,-2.0796,-2.2464,-2.3877,-2.5219,-2.7153,-2.7902,-2.8125,-2.8164,-2.8256,-2.9175,-3.1243,-3.2506,-3.3241,-3.5136,-3.6329,-3.6427,-3.7036,-3.7906,-3.8017,-3.8827,-3.8872,-3.8198,-3.8783,-3.8315,-3.7861,-3.8088,-3.8379,-3.701,-3.7243,-3.7243,-3.6568,-3.6452,-3.6405,-3.6405,-3.6405,-3.6056,-3.5855,-3.5881,-3.6006,-3.5458,-3.5705,-3.583,-3.578,-3.578,-3.6078,-3.568,-3.5403,-3.5278,-3.6103,-3.5077,-3.455,-3.467,-3.4294,-3.4344,-3.4684,-3.5127,-3.5382,-3.5449,-3.568,-3.578,-3.578,-3.5604,-3.5629,-3.5583,-3.5583,-3.5633,-3.6056,-3.638,-3.6455,-3.6606,-3.686,-3.7287,-3.7563,-3.7739,-3.8165,-3.8492,-3.8492,-3.8668,-3.917,-3.8994,-3.8743,-3.8768,-3.8718,-3.8342,-3.701,-3.4607,-3.2893,-3.2041,-3.1037,-2.9948,-2.9443,-2.9356,-2.942,-2.9489,-2.945,-2.9313,-3.1784,-3.0039,-2.828,-2.6563,-2.4914,-2.3698,-2.2685,-2.1889,-2.1257,-2.0178,-1.9018,-1.8899,-1.8503,-1.7969,-1.8263,-1.849,-1.8557,-1.8798,-1.931,-2.067,-2.241,-2.3959,-2.4996,-2.702,-2.8281,-2.8301,-2.8388,-2.888,-2.9807,-3.1316,-3.2833,-3.4605,-3.5667,-3.638,-3.6452,-3.6896,-3.7474,-3.8179,-3.9139,-3.9579,-3.9404,-3.9579,-3.9711,-3.9244,-3.9139,-3.8649,-3.8334,-3.7243,-3.7402,-3.6959,-3.662,-3.6081,-3.6107,-3.5881,-3.5479,-3.6056,-3.5554,-3.5303,-3.5132,-3.5906,-3.5931,-3.568,-3.568,-3.568,-3.5479,-3.5303,-3.5307,-3.5805,-3.4977,-3.47,-3.4876,-3.4483,-3.4438,-3.467,-3.5248,-3.5403,-3.568,-3.6078,-3.6279,-3.6254,-3.6232,-3.6307,-3.6307,-3.6257,-3.6257,-3.6408,-3.6782,-3.6958,-3.7086,-3.7362,-3.7864,-3.8391,-3.8517,-3.8718,-3.9019,-3.922,-3.917,-3.9471,-3.9471,-3.9295,-3.932,-3.9194,-3.8842,-3.8255,-3.6578,-3.5024,-3.3759,-3.2057,-3.052,-3.0238,-3.0163,-3.0207,-3.0194,-2.9721,-2.9623,-2.9839,-2.793,-2.6735,-2.5469,-2.4166,-2.3298,-2.2116,-2.0985,-2.0239,-1.9336,-1.8523,-1.8225,-1.8016,-1.7806,-1.8116,-1.8397,-1.8531,-1.9025,-1.954,-2.073,-2.2322,-2.3917,-2.5281,-2.7114,-2.8301,-2.8354,-2.8847,-2.9618,-3.0876,-3.228,-3.4019,-3.5858,-3.6048,-3.6358,-3.6499,-3.6989,-3.7723,-3.9288,-4.0059,-4.0361,-4.0318,-4.0361,-4.0618,-4.0419,-3.9901,-3.9112,-3.9112,-3.8612,-3.8202,-3.7073,-3.6682,-3.6243,-3.5999,-3.5755,-3.5328,-3.5554,-3.5152,-3.4951,-3.5002,-3.5303,-3.5454,-3.5253,-3.5132,-3.5433,-3.5132,-3.4951,-3.5177,-3.583,-3.5056,-3.5031,-3.5228,-3.4826,-3.4821,-3.5006,-3.5369,-3.554,-3.5765,-3.6335,-3.6757,-3.6782,-3.6835,-3.7086,-3.7061,-3.6935,-3.6885,-3.6908,-3.7134,-3.7387,-3.7688,-3.799,-3.8391,-3.8944,-3.9094,-3.9195,-3.9371,-3.9622,-3.9697,-3.9798,-3.9798,-3.9722,-3.9672,-3.957,-3.9265,-3.8589,-3.7945,-3.6855,-3.5449,-3.3224,-3.1151,-3.1406,-3.1508,-3.1182,-3.0918,-3.0313,-2.9996,-2.7577,-2.5377,-2.5693,-2.5059,-2.3712,-2.1298,-2.0289,-2.0008,-1.8077,-1.7455,-1.7483,-1.7563,-1.7684,-1.7675,-1.7943,-1.8263,-1.8504,-1.8811,-1.9877,-2.1356,-2.3039,-2.4433,-2.5827,-2.7222,-2.8354,-2.8548,-2.925,-3.0618,-3.2079,-3.3204,-3.4117,-3.4678,-3.5953,-3.631,-3.6709,-3.7289,-3.8738,-4.0118,-4.0916,-4.1127,-4.1211,-4.1127,-4.0916,-4.049,-4.0703,-4.0462,-3.8532,-3.9125,-3.8874,-3.716,-3.6676,-3.6237,-3.5772,-3.5705,-3.5403,-3.5102,-3.5127,-3.4876,-3.4801,-3.5056,-3.5207,-3.5056,-3.5132,-3.5458,-3.5307,-3.5357,-3.573,-3.5956,-3.5303,-3.5132,-3.5307,-3.5353,-3.5324,-3.5575,-3.5934,-3.626,-3.6533,-3.6812,-3.7161,-3.7236,-3.7412,-3.7613,-3.7839,-3.7713,-3.7487,-3.7437,-3.7788,-3.804,-3.8442,-3.8743,-3.9019,-3.9371,-3.9572,-3.9647,-3.9672,-3.9848,-4.0149,-4.0199,-4.0174,-4.0049,-3.9898,-3.9744,-3.984,-3.9528,-3.8969,-3.8065,-3.7388,-3.6062,-3.4737,-3.3479,-3.2705,-3.2025,-3.1385,-3.0815,-3.0624,-2.8994,-2.7746,-2.632,-2.5,-2.3654,-2.1915,-2.0832,-2.0133,-1.8547,-1.7516,-1.7233,-1.7501,-1.7582,-1.7675,-1.7849,-1.8155,-1.8504,-1.8784,-2.0076,-2.1553,-2.3095,-2.4654,-2.61,-2.7403,-2.8301,-2.8601,-2.965,-3.0979,-3.228,-3.3822,-3.4921,-3.5571,-3.6168,-3.631,-3.6756,-3.754,-3.9006,-4.0059,-4.0661,-4.0831,-4.1378,-4.0873,-4.0661,-4.1085,-4.0318,-4.0661,-4.0133,-3.9333,-3.8688,-3.7865,-3.6812,-3.6106,-3.5596,-3.5554,-3.5429,-3.5173,-3.5253,-3.4977,-3.4906,-3.5257,-3.5483,-3.5755,-3.5655,-3.5483,-3.5458,-3.5257,-3.5332,-3.5454,-3.5554,-3.5458,-3.5906,-3.6028,-3.6028,-3.6251,-3.66,-3.6956,-3.7209,-3.7462,-3.7663,-3.7764,-3.7889,-3.804,-3.8291,-3.8517,-3.8241,-3.804,-3.8366,-3.8718,-3.912,-3.9446,-3.9697,-3.9898,-4.0074,-4.0199,-4.0199,-4.04,-4.0651,-4.0626,-4.0576,-4.0501,-4.0425,-4.0648,-4.0721,-4.0383,-4.0205,-3.973,-3.9355,-3.9267,-3.7911,-3.5524,-3.3762,-3.2411,-3.1808,-3.125,-3.1152,-2.8814,-2.8089,-2.6416,-2.5059,-2.3907,-2.2751,-2.1902,-2.1088,-1.9432,-1.8196,-1.734,-1.7554,-1.7649,-1.7782,-1.805,-1.8728,-1.9306,-1.9808,-2.0869,-2.2358,-2.3933,-2.5041,-2.6282,-2.7403,-2.8301,-2.8708,-3.012,-3.1571,-3.2331,-3.4117,-3.5307,-3.6073,-3.6405,-3.6405,-3.6687,-3.752,-3.8559,-3.9183,-4.0232,-4.0361,-4.1,-4.0831,-4.0361,-4.0958,-4.0275,-4.0065,-3.9968,-3.9243,-3.8526,-3.7838,-3.6951,-3.5989,-3.5592,-3.5429,-3.5479,-3.5504,-3.5454,-3.5157,-3.5357,-3.5357,-3.5579,-3.578,-3.5705,-3.5533,-3.5408,-3.5328,-3.568,-3.578,-3.583,-3.6006,-3.6581,-3.6656,-3.6804,-3.7076,-3.7577,-3.7907,-3.7789,-3.7916,-3.8116,-3.8291,-3.8492,-3.8793,-3.8994,-3.927,-3.917,-3.9019,-3.9295,-3.9572,-3.9798,-4.0099,-4.0325,-4.0475,-4.0601,-4.0701,-4.0777,-4.0927,-4.1053,-4.1003,-4.1003,-4.105,-4.11,-4.1326,-4.1326,-4.0943,-4.0918,-4.1225,-4.096,-4.0355,-3.8785,-3.685,-3.4877,-3.2761,-3.2174,-3.1641,-3.1582,-2.6486,-2.5279,-2.5634,-2.5254,-2.4392,-2.3595,-2.3087,-2.254,-2.0418,-1.8782,-1.7909,-1.7806,-1.7955,-1.8212,-1.8605,-1.958,-2.0851,-2.1388,-2.2317,-2.3789,-2.4986,-2.5864,-2.6752,-2.7707,-2.8601,-2.9006,-3.0773,-3.2331,-3.2331,-3.48,-3.6048,-3.631,-3.6405,-3.664,-3.6593,-3.7494,-3.8062,-3.8532,-4.059,-4.0275,-4.0618,-4.0689,-4.0213,-3.9972,-3.9848,-3.9683,-3.9514,-3.9031,-3.8357,-3.7775,-3.7146,-3.6294,-3.5575,-3.6003,-3.5805,-3.5127,-3.5454,-3.5483,-3.5508,-3.5056,-3.5353,-3.5755,-3.578,-3.5708,-3.5708,-3.5956,-3.6355,-3.6508,-3.6483,-3.6684,-3.7033,-3.7333,-3.7606,-3.7808,-3.8261,-3.859,-3.8392,-3.8517,-3.8718,-3.9044,-3.9396,-3.9697,-3.9873,-4.0023,-4.0023,-4.0074,-4.0275,-4.0425,-4.0551,-4.0651,-4.0774,-4.0978,-4.1078,-4.1254,-4.1329,-4.1379,-4.1376,-4.1351,-4.1451,-4.1706,-4.1706,-4.1756,-4.1681,-4.1426,-4.1551,-4.1856,-4.1576,-4.1193,-3.9375,-3.7445,-3.4962,-3.3118,-3.2535,-3.215,-3.2012,-2.8019,-2.7857,-2.6941,-2.6044,-2.5179,-2.4036,-2.3678,-2.3527,-2.2011,-2.0529,-1.9529,-1.9136,-1.9194,-1.9469,-1.9779,-2.0683,-2.2386,-2.2741,-2.3635,-2.5261,-2.6045,-2.6717,-2.7599,-2.8509,-2.9059,-2.9513,-3.1491,-3.2955,-3.2331,-3.509,-3.6216,-3.6405,-3.6691,-3.7335,-3.7861,-3.8315,-3.8017,-4.0376,-4.0031,-3.8801,-4.0546,-3.9776,-3.8914,-3.889,-3.9132,-3.9311,-3.9223,-3.8678,-3.8157,-3.7855,-3.7385,-3.6319,-3.5801,-3.6107,-3.6254,-3.583,-3.6081,-3.6081,-3.6207,-3.6157,-3.6232,-3.6207,-3.6157,-3.6307,-3.6584,-3.6759,-3.7061,-3.7287,-3.7287,-3.7487,-3.7713,-3.8061,-3.8261,-3.8165,-3.8492,-3.8868,-3.8968,-3.9219,-3.9496,-3.9873,-4.0224,-4.0475,-4.0676,-4.0777,-4.0802,-4.0877,-4.1053,-4.1028,-4.1103,-4.105,-4.115,-4.1354,-4.1505,-4.1731,-4.1907,-4.1982,-4.2108,-4.2183,-4.2333,-4.2534,-4.2484,-4.2233,-4.2283,-4.2258,-4.2359,-4.2409,-4.1963,-4.1293,-3.984,-3.7884,-3.5238,-3.3372,-3.2632,-3.2383,-3.2402,-2.7543,-2.8019,-2.7322,-2.6621,-2.5887,-2.5133,-2.4638,-2.3964,-2.2757,-2.1426,-2.0114,-1.9468,-1.9681,-2.0178,-2.0719,-2.2151,-2.4153,-2.4367,-2.518,-2.6717,-2.6879,-2.7438,-2.8368,-2.9197,-2.927,-2.9859,-3.1644,-3.3204,-3.3254,-3.5307,-3.6263,-3.655,-3.7053,-3.8063,-3.8705,-3.8523,-3.8588,-4.0343,-3.9609,-3.9708,-4.0597,-4.0142,-3.8912,-3.8714,-3.8773,-3.8903,-3.8622,-3.8256,-3.778,-3.7829,-3.7234,-3.6229,-3.6081,-3.6282,-3.6656,-3.6707,-3.6908,-3.6958,-3.7061,-3.7186,-3.7161,-3.7036,-3.6935,-3.7111,-3.7387,-3.7437,-3.7613,-3.7814,-3.804,-3.8165,-3.8341,-3.8616,-3.8768,-3.8692,-3.9143,-3.9545,-3.9746,-3.9998,-4.0275,-4.0676,-4.0877,-4.1075,-4.13,-4.1505,-4.1555,-4.1681,-4.1781,-4.1731,-4.1681,-4.1731,-4.1702,-4.1882,-4.2032,-4.2258,-4.2459,-4.261,-4.276,-4.2936,-4.2986,-4.3017,-4.2936,-4.266,-4.2861,-4.2986,-4.2811,-4.2599,-4.2258,-4.1339,-3.943,-3.7466,-3.5221,-3.374,-3.2802,-3.2676,-3.2793,-2.5063,-2.5781,-2.6641,-2.6738,-2.6445,-2.647,-2.5585,-2.3841,-2.2826,-2.1554,-1.994,-1.9582,-2.0244,-2.1039,-2.1353,-2.3245,-2.5629,-2.6028,-2.6896,-2.7707,-2.7887,-2.8281,-2.8548,-2.8953,-2.9807,-3.0721,-3.218,-3.4068,-3.4483,-3.584,-3.6508,-3.6821,-3.7792,-3.8486,-3.8632,-3.8809,-3.913,-3.9986,-4.0056,-4.0183,-4.0568,-4.0721,-3.9382,-3.8859,-3.8655,-3.8378,-3.7983,-3.7254,-3.7157,-3.7059,-3.6729,-3.6492,-3.6581,-3.6933,-3.7134,-3.7337,-3.7688,-3.7764,-3.7839,-3.7864,-3.8015,-3.7914,-3.804,-3.8065,-3.8015,-3.8065,-3.8191,-3.8291,-3.8442,-3.8642,-3.8844,-3.907,-3.9296,-3.9647,-4.0097,-4.0348,-4.0498,-4.0802,-4.1103,-4.1329,-4.1455,-4.163,-4.1756,-4.1932,-4.2133,-4.2258,-4.2308,-4.2333,-4.2333,-4.2484,-4.2509,-4.2559,-4.271,-4.2836,-4.2961,-4.2936,-4.2936,-4.2986,-4.2986,-4.2986,-4.2986,-4.2986,-4.2986,-4.2986,-4.2986,-4.2656,-4.1906,-4.0487,-3.8653,-3.6652,-3.4821,-3.3955,-3.3008,-3.3105,-3.3203,-2.6665,-2.6572,-2.6586,-2.6328,-2.5977,-2.6005,-2.5866,-2.5564,-2.5539,-2.4775,-2.3445,-2.3231,-2.3074,-2.4188,-2.4309,-2.5703,-2.6857,-2.7726,-2.7833,-2.8228,-2.8441,-2.9006,-2.967,-3.0411,-3.1214,-3.2331,-3.365,-3.4629,-3.4823,-3.6059,-3.691,-3.7228,-3.8188,-3.8441,-3.8549,-3.8732,-3.9611,-3.9953,-3.9754,-3.9953,-3.982,-3.9691,-3.8704,-3.8054,-3.8507,-3.8181,-3.7776,-3.756,-3.7625,-3.7625,-3.6866,-3.6578,-3.6985,-3.7136,-3.7262,-3.7739,-3.7914,-3.799,-3.8065,-3.8391,-3.8617,-3.8718,-3.8919,-3.8894,-3.8768,-3.8693,-3.8793,-3.8868,-3.9044,-3.9295,-3.9521,-3.9722,-3.9923,-4.03,-4.0752,-4.1053,-4.1178,-4.1354,-4.1681,-4.1932,-4.2057,-4.2208,-4.2308,-4.2409,-4.261,-4.2735,-4.2811,-4.2785,-4.2811,-4.2911,-4.2961,-4.2986,-4.2986,-4.2986,-4.2986,-4.2961,-4.2961,-4.2986,-4.2986,-4.2986,-4.2986,-4.2986,-4.2986,-4.293,-4.2737,-4.2093,-4.1248,-3.9522,-3.7604,-3.6295,-3.4655,-3.3925,-3.3418,-3.3418,-3.3418,-2.6309,-2.6221,-2.6359,-2.623,-2.5996,-2.5752,-2.5927,-2.6306,-2.6238,-2.5544,-2.4744,-2.4439,-2.4898,-2.5432,-2.5666,-2.6549,-2.8048,-2.8121,-2.8247,-2.8335,-2.8794,-2.9513,-3.0566,-3.1673,-3.2504,-3.3601,-3.4508,-3.5162,-3.5502,-3.6306,-3.7211,-3.7612,-3.8434,-3.8662,-3.8865,-3.9493,-4.0011,-3.98,-3.9421,-3.9358,-3.9206,-3.8814,-3.782,-3.765,-3.8376,-3.8178,-3.7914,-3.7914,-3.8096,-3.8075,-3.725,-3.7184,-3.7588,-3.7713,-3.8115,-3.8592,-3.8743,-3.8793,-3.8843,-3.9019,-3.9145,-3.927,-3.9521,-3.9572,-3.9496,-3.9396,-3.9446,-3.9496,-3.9772,-4.0049,-4.0249,-4.045,-4.0573,-4.0799,-4.1229,-4.163,-4.1781,-4.1907,-4.2158,-4.2514,-4.2715,-4.2811,-4.2936,-4.2986,-4.2986,-4.2936,-4.2911,-4.2911,-4.2911,-4.2936,-4.2961,-4.2986,-4.2986,-4.2986,-4.2986,-4.3011,-4.3011,-4.3011,-4.2986,-4.2986,-4.2986,-4.2986,-4.2986,-4.2681,-4.2319,-4.1533,-4.0707,-3.8557,-3.6639,-3.5458,-3.455,-3.3839,-3.3418,-3.3418,-3.3418,-2.502,-2.5374,-2.6065,-2.6367,-2.6328,-2.5966,-2.6113,-2.6315,-2.5699,-2.4954,-2.4744,-2.4393,-2.5125,-2.6168,-2.6495,-2.7128,-2.8014,-2.8301,-2.8301,-2.8388,-2.9513,-3.0276,-3.0979,-3.1898,-3.3403,-3.4166,-3.4848,-3.5693,-3.6443,-3.7235,-3.7888,-3.8189,-3.9511,-3.9743,-3.907,-3.9952,-4.0074,-3.9294,-3.9114,-3.9182,-4.0144,-3.9551,-3.8276,-3.8579,-3.8453,-3.8032,-3.7682,-3.7785,-3.8114,-3.8039,-3.7965,-3.7914,-3.8216,-3.8567,-3.912,-3.9421,-3.9521,-3.9622,-3.9672,-3.9848,-3.9898,-3.9898,-3.9848,-4.0149,-4.0224,-3.9973,-3.9923,-4.0174,-4.045,-4.0551,-4.0727,-4.1053,-4.1329,-4.153,-4.1831,-4.2108,-4.2283,-4.2409,-4.2585,-4.2841,-4.2891,-4.3011,-4.3212,-4.3237,-4.3313,-4.3162,-4.3137,-4.3162,-4.3288,-4.3288,-4.3137,-4.3137,-4.3187,-4.3212,-4.3037,-4.3062,-4.3062,-4.3062,-4.3062,-4.2986,-4.2986,-4.2986,-4.2986,-4.2737,-4.2432,-4.1191,-3.9989,-3.8141,-3.6539,-3.515,-3.4258,-3.365,-3.3418,-3.3457,-3.3418,-2.759,-2.6481,-2.6408,-2.6387,-2.6426,-2.6621,-2.6758,-2.6863,-2.6995,-2.6883,-2.694,-2.7062,-2.722,-2.7378,-2.7542,-2.796,-2.8121,-2.8301,-2.8301,-2.8741,-2.9755,-3.0979,-3.1949,-3.3155,-3.4557,-3.5499,-3.6051,-3.6251,-3.7064,-3.7889,-3.8467,-3.8718,-3.97,-3.9525,-3.8995,-3.9801,-3.9398,-3.8894,-3.8717,-3.8488,-3.8666,-3.872,-3.8009,-3.8287,-3.8174,-3.8554,-3.8452,-3.8746,-3.8556,-3.8236,-3.8039,-3.8216,-3.8693,-3.9195,-3.9521,-3.9722,-4.0124,-4.0275,-4.04,-4.0576,-4.0701,-4.0774,-4.0877,-4.0924,-4.0874,-4.0551,-4.0501,-4.0802,-4.1028,-4.1103,-4.1254,-4.163,-4.1982,-4.2208,-4.2384,-4.2615,-4.2791,-4.2891,-4.2961,-4.3011,-4.3011,-4.3187,-4.3388,-4.3539,-4.3589,-4.3639,-4.3639,-4.3714,-4.4016,-4.4091,-4.3589,-4.3539,-4.3589,-4.3539,-4.3363,-4.3338,-4.3463,-4.3338,-4.3263,-4.3162,-4.3062,-4.3212,-4.3363,-4.3087,-4.2569,-4.1057,-3.9661,-3.8543,-3.6924,-3.5066,-3.4289,-3.3838,-3.3633,-3.3633,-3.3516,-2.7612,-2.6898,-2.6534,-2.6387,-2.6465,-2.6836,-2.7129,-2.7324,-2.7559,-2.7826,-2.8002,-2.8184,-2.8301,-2.8301,-2.8301,-2.8301,-2.8301,-2.8301,-2.8301,-2.8761,-3.0172,-3.1418,-3.2805,-3.4264,-3.5307,-3.6335,-3.6709,-3.7111,-3.7839,-3.8391,-3.8894,-3.8994,-3.922,-3.922,-3.8944,-3.8919,-3.8919,-3.8894,-3.8492,-3.8115,-3.7613,-3.7814,-3.7914,-3.8081,-3.8432,-3.8836,-3.9014,-3.9288,-3.9244,-3.8969,-3.8869,-3.9145,-3.9546,-3.9898,-4.0199,-4.045,-4.0727,-4.0877,-4.0978,-4.11,-4.1351,-4.1376,-4.1326,-4.1225,-4.1656,-4.1329,-4.1128,-4.1404,-4.158,-4.1681,-4.1856,-4.2213,-4.2409,-4.2635,-4.271,-4.2811,-4.2886,-4.2936,-4.3187,-4.3438,-4.3514,-4.3689,-4.389,-4.4116,-4.4166,-4.4192,-4.4166,-4.4217,-4.4543,-4.4844,-4.4342,-4.4066,-4.4192,-4.4141,-4.4041,-4.4016,-4.4066,-4.3865,-4.3589,-4.374,-4.384,-4.379,-4.374,-4.3248,-4.2217,-4.0388,-3.9121,-3.8017,-3.6491,-3.4532,-3.4182,-3.4082,-3.3965,-3.3887,-3.3965,-2.7117,-2.7252,-2.6703,-2.6523,-2.6621,-2.7012,-2.7402,-2.7715,-2.7754,-2.8002,-2.8223,-2.8281,-2.8301,-2.8301,-2.8301,-2.8301,-2.8301,-2.8301,-2.8301,-2.9303,-3.1133,-3.223,-3.3552,-3.4993,-3.598,-3.6737,-3.7211,-3.7938,-3.8718,-3.9045,-3.912,-3.9045,-3.8994,-3.8994,-3.8944,-3.8919,-3.8919,-3.8919,-3.8768,-3.8617,-3.8366,-3.814,-3.814,-3.8316,-3.8617,-3.8944,-3.9145,-3.9397,-3.9622,-3.9823,-3.9848,-4.0149,-4.035,-4.0576,-4.0724,-4.1,-4.1304,-4.1404,-4.148,-4.163,-4.1681,-4.163,-4.153,-4.1731,-4.2187,-4.2187,-4.1907,-4.1957,-4.2187,-4.2338,-4.2489,-4.2615,-4.2841,-4.2961,-4.2986,-4.3187,-4.3187,-4.3187,-4.3463,-4.3815,-4.4016,-4.4192,-4.4468,-4.4669,-4.4719,-4.4719,-4.4769,-4.4794,-4.492,-4.5221,-4.5146,-4.4995,-4.5045,-4.4945,-4.4644,-4.4669,-4.4694,-4.4367,-4.4166,-4.4443,-4.4369,-4.3772,-4.3324,-4.3247,-4.1994,-3.9908,-3.8319,-3.7103,-3.5509,-3.4269,-3.4238,-3.4375,-3.4394,-3.4394,-3.459,-3.0027,-2.928,-2.7591,-2.709,-2.7441,-2.7851,-2.8105,-2.8164,-2.8164,-2.8223,-2.8281,-2.8301,-2.8301,-2.8301,-2.8301,-2.8301,-2.8301,-2.8301,-2.9164,-3.0224,-3.152,-3.2755,-3.4162,-3.5697,-3.6493,-3.726,-3.7914,-3.8592,-3.907,-3.9295,-3.9496,-3.9421,-3.9421,-3.9245,-3.8944,-3.8919,-3.8944,-3.8994,-3.907,-3.8969,-3.9195,-3.8994,-3.8743,-3.8919,-3.9245,-3.9446,-3.9597,-3.9647,-3.9948,-4.0325,-4.0701,-4.0953,-4.1128,-4.1204,-4.1354,-4.1605,-4.1831,-4.1957,-4.2057,-4.2258,-4.2333,-4.2409,-4.2409,-4.2459,-4.271,-4.271,-4.2585,-4.261,-4.2735,-4.2791,-4.2891,-4.2811,-4.2961,-4.3062,-4.3137,-4.3664,-4.394,-4.3865,-4.3915,-4.4242,-4.4518,-4.4819,-4.5196,-4.5271,-4.5246,-4.5296,-4.5397,-4.5472,-4.5773,-4.5874,-4.5899,-4.5874,-4.5849,-4.5321,-4.4844,-4.5196,-4.5221,-4.4895,-4.4744,-4.4945,-4.4451,-4.3128,-4.2782,-4.3048,-4.1411,-3.9197,-3.7761,-3.6641,-3.5848,-3.4916,-3.4701,-3.4648,-3.4746,-3.4902,-3.5117]}]]